[[{"header":{"parameterUnit":"m.s-1","parameterCategory":1,"la1":30.6,"la2":28.766,"lo1":-90.7593,"lo2":-88.6598,"dy":0.0162,"dx":0.0183,"nx":116,"ny":114,"refTime":"2024-05-29T06:00:00:Z","depth":0,"parameterNumber":2,"parameterNumberName":"U-component_of_WINDS"},"data":[0.0,0.0,0.0,0.0,0.0,0.0,0.0,0.0,0.0,0.0,0.0,0.0,0.0,0.0,0.0,0.0,0.0,0.0,0.0,0.0,0.0,0.0,0.0,0.0,0.0,0.0,0.0,0.0,0.0,0.0,0.0,0.0,0.0,0.0,0.0,0.0,0.0,0.0,0.0,0.0,0.0,0.0,0.0,0.0,0.0,0.0,0.0,0.0,0.0,0.0,0.0,0.0,0.0,0.0,0.0,0.0,0.0,0.0,0.0,0.0,0.0,0.0,0.0,0.0,0.0,0.0,0.0,0.0,0.0,0.0,0.0,0.0,0.0,0.0,0.0,0.0,0.0,0.0,0.0,0.0,0.0,0.0,0.0,0.0,0.0,0.0,0.0,0.0,0.0,0.0,0.0,0.0,0.0,0.0,0.0,0.0,0.0,0.0,0.0,0.0,0.0,0.0,0.0,0.0,0.0,0.0,0.0,0.0,0.0,0.0,0.0,0.0,0.0,0.0,0.0,0.0,0.0,0.0,0.0,0.0,0.0,0.0,0.0,0.0,0.0,0.0,0.0,0.0,0.0,0.0,0.0,0.0,0.0,0.0,0.0,0.0,0.0,0.0,0.0,0.0,0.0,0.0,0.0,0.0,0.0,0.0,0.0,0.0,0.0,0.0,0.0,0.0,0.0,0.0,0.0,0.0,0.0,0.0,0.0,0.0,0.0,0.0,0.0,0.0,0.0,0.0,0.0,0.0,0.0,0.0,0.0,0.0,0.0,0.0,0.0,0.0,0.0,0.0,0.0,0.0,0.0,0.0,0.0,0.0,0.0,0.0,0.0,0.0,0.0,0.0,0.0,0.0,0.0,0.0,0.0,0.0,0.0,0.0,0.0,0.0,0.0,0.0,0.0,0.0,0.0,0.0,0.0,0.0,0.0,0.0,0.0,0.0,0.0,0.0,0.0,0.0,0.0,0.0,0.0,0.0,0.0,0.0,0.0,0.0,0.0,0.0,0.0,0.0,0.0,0.0,0.0,0.0,0.0,0.0,0.0,0.0,0.0,0.0,0.0,0.0,0.0,0.0,0.0,0.0,0.0,0.0,0.0,0.0,0.0,0.0,0.0,0.0,0.0,0.0,0.0,0.0,0.0,0.0,0.0,0.0,0.0,0.0,0.0,0.0,0.0,0.0,0.0,0.0,0.0,0.0,0.0,0.0,0.0,0.0,0.0,0.0,0.0,0.0,0.0,0.0,0.0,0.0,0.0,0.0,0.0,0.0,0.0,0.0,0.0,0.0,0.0,0.0,0.0,0.0,0.0,0.0,0.0,0.0,0.0,0.0,0.0,0.0,0.0,0.0,0.0,0.0,0.0,0.0,0.0,0.0,0.0,0.0,0.0,0.0,0.0,0.0,0.0,0.0,0.0,0.0,0.0,0.0,0.0,0.0,0.0,0.0,0.0,0.0,0.0,0.0,0.0,0.0,0.0,0.0,0.0,0.0,0.0,0.0,0.0,0.0,0.0,0.0,0.0,0.0,0.0,0.0,0.0,0.0,0.0,0.0,0.0,0.0,0.0,0.0,0.0,0.0,0.0,0.0,0.0,0.0,0.0,0.0,0.0,0.0,0.0,0.0,0.0,0.0,0.0,0.0,0.0,0.0,0.0,0.0,0.0,0.0,0.0,0.0,0.0,0.0,0.0,0.0,0.0,0.0,0.0,0.0,0.0,0.0,0.0,0.0,0.0,0.0,0.0,0.0,0.0,0.0,0.0,0.0,0.0,0.0,0.0,0.0,0.0,0.0,0.0,0.0,0.0,0.0,0.0,0.0,0.0,0.0,0.0,0.0,0.0,0.0,0.0,0.0,0.0,0.0,0.0,0.0,0.0,0.0,0.0,0.0,0.0,0.0,0.0,0.0,0.0,0.0,0.0,0.0,0.0,0.0,0.0,0.0,0.0,0.0,0.0,0.0,0.0,0.0,0.0,0.0,0.0,0.0,0.0,0.0,0.0,0.0,0.0,0.0,0.0,0.0,0.0,0.0,0.0,0.0,0.0,0.0,0.0,0.0,0.0,0.0,0.0,0.0,0.0,0.0,0.0,0.0,0.0,0.0,0.0,0.0,0.0,0.0,0.0,0.0,0.0,0.0,0.0,0.0,0.0,0.0,0.0,0.0,0.0,0.0,0.0,0.0,0.0,0.0,0.0,0.0,0.0,0.0,0.0,0.0,0.0,0.0,0.0,0.0,0.0,0.0,0.0,0.0,0.0,0.0,0.0,0.0,0.0,0.0,0.0,0.0,0.0,0.0,0.0,0.0,0.0,0.0,0.0,0.0,0.0,0.0,0.0,0.0,0.0,0.0,0.0,0.0,0.0,0.0,0.0,0.0,0.0,0.0,0.0,0.0,0.0,0.0,0.0,0.0,0.0,0.0,0.0,0.0,0.0,0.0,0.0,0.0,0.0,0.0,0.0,0.0,0.0,0.0,0.0,0.0,0.0,0.0,0.0,0.0,0.0,0.0,0.0,0.0,0.0,0.0,0.0,0.0,0.0,0.0,0.0,0.0,0.0,0.0,0.0,0.0,0.0,0.0,0.0,0.0,0.0,0.0,0.0,0.0,0.0,0.0,0.0,0.0,0.0,0.0,0.0,0.0,0.0,0.0,0.0,0.0,0.0,0.0,0.0,0.0,0.0,0.0,0.0,0.0,0.0,0.0,0.0,0.0,0.0,0.0,0.0,0.0,0.0,0.0,0.0,0.0,0.0,0.0,0.0,0.0,0.0,0.0,0.0,0.0,0.0,0.0,0.0,0.0,0.0,0.0,0.0,0.0,0.0,0.0,0.0,0.0,0.0,0.0,0.0,0.0,0.0,0.0,0.0,0.0,0.0,0.0,0.0,0.0,0.0,0.0,0.0,0.0,0.0,0.0,0.0,0.0,0.0,0.0,0.0,0.0,0.0,0.0,0.0,0.0,0.0,0.0,0.0,0.0,0.0,0.0,0.0,0.0,0.0,0.0,0.0,0.0,0.0,0.0,0.0,0.0,0.0,0.0,0.0,0.0,0.0,0.0,0.0,0.0,0.0,0.0,0.0,0.0,0.0,0.0,0.0,0.0,0.0,0.0,0.0,0.0,0.0,0.0,0.0,0.0,0.0,0.0,0.0,0.0,0.0,0.0,0.0,0.0,0.0,0.0,0.0,0.0,0.0,0.0,0.0,0.0,0.0,0.0,0.0,0.0,0.0,0.0,0.0,0.0,0.0,0.0,0.0,0.0,0.0,0.0,0.0,0.0,0.0,0.0,0.0,0.0,0.0,0.0,0.0,0.0,0.0,0.0,0.0,0.0,0.0,0.0,0.0,0.0,0.0,0.0,0.0,0.0,0.0,0.0,0.0,0.0,0.0,0.0,0.0,0.0,0.0,0.0,0.0,0.0,0.0,0.0,0.0,0.0,0.0,0.0,0.0,0.0,0.0,0.0,0.0,0.0,0.0,0.0,0.0,0.0,0.0,0.0,0.0,0.0,0.0,0.0,0.0,0.0,0.0,0.0,0.0,0.0,0.0,0.0,0.0,0.0,0.0,0.0,0.0,0.0,0.0,0.0,0.0,0.0,0.0,0.0,0.0,0.0,0.0,0.0,0.0,0.0,0.0,0.0,0.0,0.0,0.0,0.0,0.0,0.0,0.0,0.0,0.0,0.0,0.0,0.0,0.0,0.0,0.0,0.0,0.0,0.0,0.0,0.0,0.0,0.0,0.0,0.0,0.0,0.0,0.0,0.0,0.0,0.0,0.0,0.0,0.0,0.0,0.0,0.0,0.0,0.0,0.0,0.0,0.0,0.0,0.0,0.0,0.0,0.0,0.0,0.0,0.0,0.0,0.0,0.0,0.0,0.0,0.0,0.0,0.0,0.0,0.0,0.0,0.0,0.0,0.0,0.0,0.0,0.0,0.0,0.0,0.0,0.0,0.0,0.0,0.0,0.0,0.0,0.0,0.0,0.0,0.0,0.0,0.0,0.0,0.0,0.0,0.0,0.0,0.0,0.0,0.0,0.0,0.0,0.0,0.0,0.0,0.0,0.0,0.0,0.0,0.0,0.0,0.0,0.0,0.0,0.0,0.0,0.0,0.0,0.0,0.0,0.0,0.0,0.0,0.0,0.0,0.0,0.0,0.0,0.0,0.0,0.0,0.0,0.0,0.0,0.0,0.0,0.0,0.0,0.0,0.0,0.0,0.0,0.0,0.0,0.0,0.0,0.0,0.0,0.0,0.0,0.0,0.0,0.0,0.0,0.0,0.0,0.0,0.0,0.0,0.0,0.0,0.0,0.0,0.0,0.0,0.0,0.0,0.0,0.0,0.0,0.0,0.0,0.0,0.0,0.0,0.0,0.0,0.0,0.0,0.0,0.0,0.0,0.0,0.0,0.0,0.0,0.0,0.0,0.0,0.0,0.0,0.0,0.0,0.0,0.0,0.0,0.0,0.0,0.0,0.0,0.0,0.0,0.0,0.0,0.0,0.0,0.0,0.0,0.0,0.0,0.0,0.0,0.0,0.0,0.0,0.0,0.0,0.0,0.0,0.0,0.0,0.0,0.0,0.0,0.0,0.0,0.0,0.0,0.0,0.0,0.0,0.0,0.0,0.0,0.0,0.0,0.0,0.0,0.0,0.0,0.0,0.0,0.0,0.0,0.0,0.0,0.0,0.0,0.0,0.0,0.0,0.0,0.0,0.0,0.0,0.0,0.0,0.0,0.0,0.0,0.0,0.0,0.0,0.0,0.0,0.0,0.0,0.0,0.0,0.0,0.0,0.0,0.0,0.0,0.0,0.0,0.0,0.0,0.0,0.0,0.0,0.0,0.0,0.0,0.0,0.0,0.0,0.0,0.0,0.0,0.0,0.0,0.0,0.0,0.0,0.0,0.0,0.0,0.0,0.0,0.0,0.0,0.0,0.0,0.0,0.0,0.0,0.0,0.0,0.0,0.0,0.0,0.0,0.0,0.0,0.0,0.0,0.0,0.0,0.0,0.0,0.0,0.0,0.0,0.0,0.0,0.0,0.0,0.0,0.0,0.0,0.0,0.0,0.0,0.0,0.0,0.0,0.0,0.0,0.0,0.0,0.0,0.0,0.0,0.0,0.0,0.0,0.0,0.0,0.0,0.0,0.0,0.0,0.0,0.0,0.0,0.0,0.0,0.0,0.0,0.0,0.0,0.0,0.0,0.0,0.0,0.0,0.0,0.0,0.0,0.0,0.0,0.0,0.0,0.0,0.0,0.0,0.0,0.0,0.0,0.0,0.0,0.0,0.0,0.0,0.0,0.0,0.0,0.0,0.0,0.0,0.0,0.0,0.0,0.0,0.0,0.0,0.0,0.0,0.0,0.0,0.0,0.0,0.0,0.0,0.0,0.0,0.0,0.0,0.0,0.0,0.0,0.0,0.0,0.0,0.0,0.0,0.0,0.0,0.0,0.0,0.0,0.0,0.0,0.0,0.0,0.0,0.0,0.0,0.0,0.0,0.0,0.0,0.0,0.0,0.0,0.0,0.0,0.0,0.0,0.0,0.0,0.0,0.0,0.0,0.0,0.0,0.0,0.0,0.0,0.0,0.0,0.0,0.0,0.0,0.0,0.0,0.0,0.0,0.0,0.0,0.0,0.0,0.0,0.0,0.0,0.0,0.0,0.0,0.0,0.0,0.0,0.0,0.0,0.0,0.0,0.0,0.0,0.0,0.0,0.0,0.0,0.0,0.0,0.0,0.0,0.0,0.0,0.0,0.0,0.0,0.0,0.0,0.0,0.0,0.0,0.0,0.0,0.0,0.0,0.0,0.0,0.0,0.0,0.0,0.0,0.0,0.0,0.0,0.0,0.0,0.0,0.0,0.0,0.0,0.0,0.0,0.0,0.0,0.0,0.0,0.0,0.0,0.0,0.0,0.0,0.0,0.0,0.0,0.0,0.0,0.0,0.0,0.0,0.0,0.0,0.0,0.0,0.0,0.0,0.0,0.0,0.0,0.0,0.0,0.0,0.0,0.0,0.0,0.0,0.0,0.0,0.0,0.0,0.0,0.0,0.0,0.0,0.0,0.0,0.0,0.0,0.0,0.0,0.0,0.0,0.0,0.0,0.0,-2.1658,-2.0062,0.0,0.0,0.0,0.0,0.0,0.0,0.0,0.0,0.0,0.0,0.0,0.0,0.0,0.0,0.0,0.0,0.0,0.0,0.0,0.0,0.0,0.0,0.0,-0.6255,-0.6433,-0.6471,-0.6471,-0.6519,-0.6613,0.0,0.0,0.0,0.0,0.0,-0.6784,-0.6941,-0.7591,-0.8731,-0.8751,-0.9625,-1.1283,-1.1101,-1.0813,-1.0432,0.0,0.0,0.0,0.0,0.0,0.0,0.0,0.0,0.0,0.0,0.0,0.0,0.0,0.0,0.0,0.0,0.0,0.0,0.0,0.0,0.0,0.0,0.0,0.0,0.0,0.0,0.0,0.0,0.0,0.0,0.0,0.0,0.0,0.0,0.0,0.0,0.0,0.0,0.0,0.0,0.0,0.0,0.0,0.0,0.0,0.0,0.0,0.0,0.0,0.0,0.0,0.0,0.0,0.0,0.0,0.0,0.0,0.0,0.0,0.0,0.0,0.0,0.0,0.0,0.0,0.0,0.0,0.0,0.0,0.0,-2.5346,-2.3893,0.0,0.0,0.0,0.0,0.0,0.0,0.0,0.0,0.0,0.0,0.0,0.0,0.0,0.0,0.0,0.0,0.0,0.0,0.0,0.0,0.0,-0.6107,-0.6385,-0.6806,-0.7211,-0.759,-0.7516,-0.7493,-0.7592,-0.7496,0.0,0.0,0.0,-0.7466,-0.7504,-0.7836,-0.8883,-1.0654,-1.0857,-1.1901,-1.3753,-1.474,-1.4444,-1.3027,-1.2402,0.0,0.0,0.0,0.0,0.0,0.0,0.0,0.0,0.0,0.0,0.0,0.0,0.0,0.0,0.0,0.0,0.0,0.0,0.0,0.0,0.0,0.0,0.0,0.0,0.0,0.0,0.0,0.0,0.0,0.0,0.0,0.0,0.0,0.0,0.0,0.0,0.0,0.0,0.0,0.0,0.0,0.0,0.0,0.0,0.0,0.0,0.0,0.0,0.0,0.0,0.0,0.0,0.0,0.0,0.0,0.0,0.0,0.0,0.0,0.0,0.0,0.0,0.0,-3.0556,-3.1093,-3.1599,-3.1599,-3.2171,-3.3019,-2.9937,-2.8986,-2.9451,-2.6784,0.0,0.0,0.0,0.0,0.0,0.0,0.0,0.0,0.0,0.0,0.0,0.0,0.0,0.0,0.0,0.0,0.0,0.0,0.0,-0.6625,-0.7174,-0.7308,-0.775,-0.8764,-0.838,-0.8285,-0.8746,-0.8281,0.0,0.0,-0.7953,-0.8095,-0.8334,-0.8952,-1.006,-1.1695,-1.404,-1.5681,-1.6647,-1.7044,-1.7532,-1.7962,-1.5876,-1.4829,-1.4514,0.0,0.0,0.0,0.0,0.0,0.0,0.0,0.0,0.0,0.0,0.0,0.0,0.0,0.0,0.0,0.0,0.0,0.0,0.0,0.0,0.0,0.0,0.0,0.0,0.0,0.0,0.0,0.0,0.0,0.0,0.0,0.0,0.0,0.0,0.0,0.0,0.0,0.0,0.0,0.0,0.0,-1.7856,-1.9058,0.0,0.0,0.0,0.0,0.0,0.0,0.0,0.0,0.0,0.0,0.0,0.0,0.0,-2.8265,-2.8834,-3.1809,-3.3187,-3.2966,-3.5318,-3.6122,-3.5534,-3.5534,-3.6006,-3.6793,-3.6293,0.0,-3.1385,-3.0404,0.0,0.0,0.0,0.0,0.0,0.0,0.0,0.0,0.0,0.0,0.0,0.0,0.0,0.0,0.0,0.0,0.0,0.0,0.0,0.0,0.0,-0.8917,-0.9738,-1.0643,-1.0829,-1.0622,-0.9995,-1.0033,-0.9546,-0.8378,-0.8763,-0.9227,-0.9737,-1.0641,-1.2226,-1.4486,-1.6783,-1.8011,-1.8236,-1.891,-1.9746,-2.0623,-1.9387,-1.801,-1.6577,-1.5261,0.0,0.0,0.0,0.0,0.0,0.0,0.0,0.0,0.0,0.0,0.0,0.0,0.0,0.0,0.0,0.0,0.0,0.0,0.0,0.0,0.0,0.0,0.0,0.0,0.0,0.0,0.0,0.0,0.0,0.0,0.0,0.0,0.0,0.0,0.0,0.0,0.0,0.0,0.0,-1.8331,-2.0652,-2.0254,-2.1026,-2.1061,0.0,0.0,0.0,0.0,0.0,0.0,0.0,0.0,0.0,-2.9674,-3.065,-3.191,-3.3493,-3.5036,-3.6146,-3.6825,-3.8025,-3.8716,-3.8893,-3.8893,-3.9083,-3.941,-3.941,-3.8203,-3.6098,-3.4088,-3.2428,-3.1026,0.0,0.0,0.0,0.0,-3.1751,-3.2774,0.0,0.0,0.0,0.0,0.0,0.0,0.0,0.0,0.0,0.0,0.0,0.0,-0.9323,-1.0489,-1.1586,-1.2602,-1.3009,-1.2843,-1.2005,-1.1786,-1.1056,-0.9665,-1.003,-1.0521,-1.1067,-1.2677,-1.4712,-1.7126,-1.8974,-1.9851,-1.9814,-2.0751,-2.1637,-2.2436,-2.2118,-2.0809,-1.8809,-1.7632,-1.6195,-1.4581,0.0,0.0,0.0,0.0,0.0,0.0,0.0,0.0,0.0,0.0,0.0,0.0,0.0,0.0,0.0,0.0,0.0,0.0,0.0,0.0,0.0,0.0,0.0,0.0,0.0,0.0,0.0,0.0,0.0,0.0,0.0,0.0,0.0,0.0,0.0,0.0,0.0,-2.0908,-2.2859,-2.1633,-2.2889,-2.3161,0.0,0.0,0.0,0.0,0.0,0.0,-2.8719,-2.9854,-3.1522,-3.384,-3.4259,-3.5424,-3.7447,-3.7687,-3.8491,-3.9785,-3.9821,-4.0208,-4.0912,-4.0912,-4.0912,-4.0912,-4.0912,-4.0567,-3.9807,-3.7408,-3.5799,-3.4809,-3.4122,-3.3815,-3.3852,-3.4798,-3.5444,-3.6185,0.0,0.0,0.0,0.0,0.0,0.0,0.0,0.0,0.0,0.0,0.0,-0.8869,-1.0691,-1.1521,-1.2644,-1.4411,-1.4076,-1.4215,-1.5275,-1.3179,-1.2093,-1.2565,-1.2065,-1.1889,-1.2113,-1.4992,-1.7282,-1.8868,-2.0373,-2.1393,-2.195,-2.2704,-2.3297,-2.3685,-2.3569,-2.2895,-2.1742,-1.9726,-1.8624,-1.8014,-1.5424,0.0,0.0,0.0,0.0,0.0,0.0,0.0,0.0,0.0,0.0,0.0,0.0,0.0,0.0,0.0,0.0,0.0,0.0,0.0,0.0,0.0,0.0,0.0,0.0,0.0,0.0,0.0,0.0,0.0,0.0,0.0,0.0,0.0,0.0,0.0,0.0,0.0,0.0,-2.3701,-2.5958,0.0,0.0,0.0,0.0,-2.6591,-2.8588,-3.0333,-3.1558,-3.3583,-3.5278,-3.6546,-3.7973,-3.889,-3.9272,-3.9956,-4.0494,-4.0819,-4.0819,-4.086,-4.0912,-4.0912,-4.0912,-4.0912,-4.0912,-4.0877,-4.0775,-3.9985,-3.8604,-3.6978,-3.7176,-3.7101,-3.6932,-3.7305,-3.8383,-3.9691,0.0,0.0,0.0,0.0,0.0,-0.7243,-0.729,-0.759,-0.7891,-0.8165,-0.9407,-1.0868,-1.245,-1.3667,-1.4993,-1.6502,-1.6825,-1.6718,-1.6147,-1.4876,-1.417,-1.421,-1.3356,-1.3897,-1.6093,-1.7562,-1.9161,-2.0875,-2.1362,-2.2079,-2.3007,-2.3266,-2.3794,-2.4493,-2.4016,-2.3782,-2.3624,-2.1328,-2.0031,-1.9351,-1.7265,-1.5718,0.0,0.0,0.0,0.0,0.0,0.0,0.0,0.0,0.0,0.0,0.0,0.0,0.0,0.0,0.0,0.0,0.0,0.0,0.0,0.0,0.0,0.0,0.0,0.0,0.0,0.0,0.0,0.0,0.0,0.0,0.0,0.0,0.0,0.0,0.0,0.0,0.0,-2.742,-2.9168,0.0,-2.8936,-2.9432,-3.0287,-3.14,-3.2837,-3.4248,-3.5643,-3.6905,-3.8005,-3.8911,-3.9436,-3.9731,-3.9848,-4.0678,-4.1161,-4.1376,-4.1965,-4.228,-4.2378,-4.2378,-4.2378,-4.2403,-4.2688,-4.2836,-4.2853,-4.3279,-4.2173,-4.0268,-4.0599,-4.0955,-4.1295,-4.1425,-4.1859,-4.2389,0.0,0.0,0.0,0.0,-0.7489,-0.7422,-0.7484,-0.7987,-0.8532,-0.9018,-1.0687,-1.2455,-1.4104,-1.5534,-1.6816,-1.7938,-1.8448,-1.835,-1.7563,-1.6451,-1.5756,-1.5574,-1.4813,-1.5878,-1.9108,-1.9575,-2.0663,-2.2464,-2.2653,-2.3197,-2.408,-2.4307,-2.4736,-2.532,-2.4841,-2.4804,-2.5008,-2.3123,-2.1859,-2.0991,-1.9369,-1.8158,-1.7137,0.0,0.0,0.0,0.0,0.0,0.0,0.0,0.0,0.0,0.0,0.0,0.0,0.0,0.0,0.0,0.0,0.0,0.0,0.0,0.0,0.0,0.0,0.0,0.0,0.0,0.0,0.0,0.0,0.0,0.0,0.0,0.0,0.0,0.0,-2.8324,-3.0637,-3.0493,-3.2153,-3.316,-3.2752,-3.3151,-3.4019,-3.5423,-3.6324,-3.7312,-3.8455,-3.9052,-3.9723,-4.0502,-4.0536,-4.0705,-4.1061,-4.1631,-4.2014,-4.2165,-4.2773,-4.3114,-4.3189,-4.3189,-4.3189,-4.3214,-4.3523,-4.3751,-4.3944,-4.4646,-4.4248,-4.3178,-4.3318,-4.3522,-4.373,-4.3629,-4.3597,-4.36,0.0,0.0,0.0,-0.7602,-0.7596,-0.7627,-0.7694,-0.8282,-0.9221,-1.0619,-1.1948,-1.355,-1.5589,-1.6967,-1.7997,-1.8672,-1.8732,-1.9016,-1.9663,-1.7818,-1.6696,-1.6696,-1.6509,-1.7826,-2.0878,-2.0925,-2.1825,-2.3668,-2.43,-2.4818,-2.5246,-2.5891,-2.6202,-2.6219,-2.6096,-2.6041,-2.6025,-2.5173,-2.4225,-2.3186,-2.1744,-2.107,-2.0718,0.0,0.0,0.0,0.0,0.0,0.0,0.0,0.0,0.0,0.0,0.0,0.0,0.0,0.0,0.0,0.0,0.0,0.0,0.0,0.0,0.0,0.0,0.0,0.0,0.0,0.0,0.0,0.0,0.0,0.0,0.0,0.0,0.0,-2.8639,-3.037,-3.2014,-3.288,-3.4903,-3.599,-3.5381,-3.6895,-3.8032,-3.839,-3.8915,-3.9385,-3.9709,-3.9978,-4.0519,-4.1376,-4.141,-4.1938,-4.2962,-4.3022,-4.309,-4.3224,-4.3258,-4.3276,-4.3276,-4.3276,-4.3276,-4.3276,-4.3283,-4.3569,-4.3991,-4.4077,-4.4707,-4.5533,-4.523,-4.4689,-4.4048,-4.3788,-4.3532,-4.3286,0.0,0.0,-0.7768,-0.7634,-0.7597,-0.7627,-0.7694,-0.868,-0.9756,-1.0688,-1.2802,-1.4784,-1.6293,-1.7639,-1.8702,-1.9378,-1.9438,-1.9513,-1.9693,-1.7818,-1.6696,-1.6696,-1.8037,-1.9685,-2.1659,-2.1708,-2.275,-2.4913,-2.4995,-2.5377,-2.6013,-2.6139,-2.6501,-2.7,-2.6947,-2.7191,-2.7578,-2.7342,-2.6697,-2.5621,-2.3483,-2.232,-2.1679,0.0,0.0,0.0,0.0,0.0,0.0,0.0,0.0,0.0,0.0,0.0,0.0,0.0,0.0,0.0,0.0,0.0,0.0,0.0,0.0,0.0,0.0,0.0,0.0,0.0,0.0,0.0,0.0,0.0,0.0,0.0,-3.024,-3.2216,-3.1786,-3.4271,-3.6372,-3.7009,-3.8304,-3.9445,-4.0196,-4.0045,-4.0191,-4.0855,-4.0605,-4.035,-4.0136,-4.062,-4.101,-4.1256,-4.1851,-4.2346,-4.2628,-4.3417,-4.3812,-4.3864,-4.4492,-4.4803,-4.4803,-4.4803,-4.4803,-4.4803,-4.5202,-4.5633,-4.6107,-4.6579,-4.6799,-4.6801,-4.5883,-4.5653,-4.5807,-4.5725,-4.5047,-4.4035,0.0,-0.7812,-0.7863,-0.7746,-0.7657,-0.7635,-0.7724,-0.8859,-1.0071,-1.1091,-1.3304,-1.5396,-1.695,-1.7818,-1.8553,-1.9211,-1.9271,-1.9151,-1.8882,-1.7773,-1.7417,-1.8151,-1.9338,-2.0827,-2.2632,-2.3006,-2.4079,-2.59,-2.5748,-2.5913,-2.6399,-2.6573,-2.6901,-2.7298,-2.7613,-2.7976,-2.8279,-2.8148,-2.7804,-2.7176,-2.5672,-2.4498,-2.3487,-2.2216,-2.1814,-2.1728,-2.0531,-2.002,-1.9871,-1.9477,0.0,0.0,0.0,0.0,0.0,0.0,0.0,0.0,0.0,0.0,0.0,0.0,0.0,0.0,0.0,0.0,0.0,0.0,0.0,0.0,0.0,0.0,0.0,0.0,-3.3619,-3.5809,-3.5877,-3.7442,-3.9011,-4.0236,-4.0926,-4.1673,-4.2641,-4.2046,-4.1879,-4.248,-4.2129,-4.1803,-4.1724,-4.2016,-4.2328,-4.2688,-4.3023,-4.3338,-4.3698,-4.4671,-4.5163,-4.5163,-4.5973,-4.6362,-4.6345,-4.6035,-4.5995,-4.6204,-4.6202,-4.6584,-4.7226,-4.763,-4.784,-4.7811,0.0,0.0,0.0,0.0,-4.5369,-4.4552,0.0,-0.7977,-0.7942,-0.7928,-0.7761,-0.7687,-0.7819,-0.8909,-1.0214,-1.1636,-1.359,-1.5543,-1.74,-1.7701,-1.8,-1.8642,-1.8702,-1.8446,-1.7848,-1.7893,-1.8599,-2.0093,-2.0404,-2.152,-2.3649,-2.4438,-2.5424,-2.6606,-2.6417,-2.6415,-2.6619,-2.7075,-2.7381,-2.7564,-2.8227,-2.8558,-2.8622,-2.8356,-2.8207,-2.8121,-2.7936,-2.6992,-2.5602,-2.4524,-2.458,-2.5063,-2.3941,-2.3244,-2.271,-2.158,0.0,0.0,0.0,0.0,0.0,0.0,0.0,0.0,0.0,0.0,0.0,0.0,0.0,0.0,0.0,0.0,0.0,0.0,0.0,0.0,0.0,0.0,0.0,0.0,-3.707,-3.9521,-4.0288,-4.0167,-4.0691,-4.25,-4.2775,-4.3008,-4.3457,-4.3178,-4.3105,-4.345,-4.335,-4.3417,-4.3773,-4.3734,0.0,0.0,0.0,-4.4802,-4.558,-4.6337,-4.6734,-4.6734,-4.7407,-4.7689,-4.7672,-4.7027,-4.695,-4.7313,-4.6618,-4.6825,-4.7654,-4.7749,-4.8134,-4.8568,-4.7973,-4.7162,-4.6231,-4.5555,-4.5194,-4.5027,0.0,-0.8128,-0.8189,-0.8089,-0.7934,-0.7899,-0.8089,-0.901,-1.0237,-1.1768,-1.3803,-1.5582,-1.6757,-1.7606,-1.8261,-1.8659,-1.8702,-1.8625,0.0,0.0,-1.9509,-1.9942,-2.0813,-2.2228,-2.4206,-2.472,-2.5529,-2.6691,-2.6521,-2.6752,-2.7321,-2.7308,-2.7912,-2.9003,-2.9152,-2.9549,-3.0092,-2.9988,-2.9539,-2.8874,-2.8783,-2.7851,-2.6413,-2.5764,-2.5407,-2.5196,-2.4595,-2.4445,-2.4519,-2.4448,-2.4088,-2.3582,-2.2993,-2.2026,0.0,0.0,0.0,0.0,0.0,0.0,0.0,0.0,0.0,0.0,0.0,0.0,0.0,0.0,0.0,0.0,0.0,0.0,0.0,-3.668,-3.8868,-4.0959,-4.3063,-4.3281,-4.3077,-4.2746,-4.3333,-4.3675,-4.3531,-4.3427,-4.3542,-4.3939,-4.3833,-4.3917,-4.4253,-4.4693,-4.5011,-4.5193,-4.6045,-4.6586,-4.6768,-4.7259,-4.751,-4.751,-4.762,0.0,-4.7689,-4.7534,-4.7548,-4.7588,-4.7246,-4.7409,-4.7921,-4.782,-4.8173,-4.875,-4.8689,-4.8522,-4.8176,-4.6925,-4.6453,-4.6263,-0.8256,-0.8282,-0.8263,-0.8121,-0.7984,-0.7942,-0.8032,-0.9106,-1.0297,-1.1358,-1.3462,-1.5078,-1.5679,-1.6314,-1.6708,-1.6743,-1.7057,0.0,0.0,-1.9615,-2.029,-2.0926,-2.2157,-2.3439,-2.4664,-2.5253,-2.593,-2.6691,-2.6907,-2.717,-2.752,-2.8068,-2.8721,-2.9413,-2.9777,-3.0158,-3.0506,-3.0422,-3.0119,-2.9648,-2.9538,-2.8798,-2.7664,-2.6831,-2.645,-2.6334,-2.5862,-2.5639,-2.5587,-2.5827,-2.5601,-2.5165,-2.5012,-2.4054,-2.2923,0.0,0.0,0.0,0.0,0.0,0.0,0.0,0.0,0.0,0.0,0.0,0.0,0.0,0.0,-3.0487,-3.2574,0.0,-3.6921,-3.9434,-4.1295,-4.2823,-4.4085,-4.4575,-4.455,-4.3873,-4.4167,-4.4217,-4.3779,-4.4099,-4.4353,-4.44,-4.5073,-4.5558,-4.5741,-4.6208,-4.6649,-4.7044,-4.7412,-4.7643,-4.7786,-4.8364,-4.8511,-4.8241,-4.8665,-4.8855,-4.8855,-4.8413,-4.8539,-4.9012,-4.8483,-4.8686,-4.9369,-4.8967,-4.8693,-4.8569,-4.8605,-4.8569,-4.8346,-4.7458,-4.7045,-4.6822,-0.8441,-0.8403,-0.8309,-0.8189,-0.8068,-0.7991,-0.8023,-0.9103,-1.0182,-1.0931,-1.2816,-1.4222,-1.4579,-1.4849,-1.5006,-1.4988,-1.5709,0.0,0.0,-1.9839,-2.0821,-2.2052,-2.3396,-2.4458,-2.5174,-2.5858,-2.6451,-2.6911,-2.731,-2.7654,-2.7955,-2.8948,-2.9479,-2.9628,-3.0224,-3.0506,-3.0506,-3.0422,-3.0333,-3.0189,-3.0038,-2.961,-2.8881,-2.7676,-2.7342,-2.7439,-2.6911,-2.6446,-2.6174,-2.6536,-2.6331,-2.5994,-2.6273,-2.5648,-2.4774,-2.4539,-2.3428,0.0,0.0,0.0,0.0,0.0,0.0,0.0,0.0,-2.7621,-2.9266,-3.0254,-3.169,-3.3685,-3.667,-3.7911,-3.9315,-4.1873,-4.3412,-4.4365,-4.4542,-4.51,-4.539,-4.5052,-4.4896,-4.4599,-4.406,-4.4729,-4.514,-4.4947,-4.6269,-4.7241,-4.7571,-4.7846,-4.8372,-4.915,-4.8879,-4.8764,-4.8876,-4.9504,-4.956,-4.9034,-4.97,-5.0011,-4.9993,-4.9338,-4.9495,-5.0295,-4.9684,-4.9884,-5.0629,-5.0149,-4.9415,-4.8603,-4.8565,-4.8319,-4.7951,-4.7621,-4.7338,-4.7093,0.0,-0.8409,-0.8483,-0.8464,-0.8335,-0.8315,-0.8489,-0.8918,-0.9689,-1.1005,-1.2025,-1.2971,-1.3818,-1.4148,-1.4671,-1.5617,-1.6787,0.0,-1.8693,-1.9684,-2.0881,-2.2381,-2.3275,-2.4425,-2.5862,-2.6368,-2.6978,-2.7672,-2.7561,-2.8172,-2.9462,-2.9413,-2.9744,-3.0373,-3.0456,-3.0506,-3.0506,-3.0422,-3.0333,-3.0189,-3.0038,-2.9919,-2.9605,-2.8183,-2.758,-2.7421,-2.6703,-2.63,-2.6212,-2.6966,-2.6899,-2.6562,-2.6831,-2.6976,-2.6829,-2.5682,-2.4718,-2.4061,-2.4195,-2.4537,-2.5272,-2.7026,-2.7549,-2.8596,0.0,-3.2792,-3.2914,-3.4613,-3.5644,-3.6829,-3.873,-3.9716,-4.1054,-4.3605,-4.4182,-4.4566,-4.5355,-4.5473,-4.5485,-4.5438,-4.5107,-4.4657,-4.4061,-4.4724,-4.5362,-4.5754,-4.6581,-4.7736,-4.9243,-4.9369,-4.9733,-5.0538,-5.0773,-5.0638,-5.0182,-5.0514,-5.0397,-4.9873,-4.9959,-5.0011,-5.0011,-4.9907,-4.993,-5.0061,-5.0185,-5.0227,-5.0201,-5.0357,-5.0184,-4.9751,-4.9217,-4.8596,-4.7951,-4.7621,-4.7468,-4.7403,0.0,-0.8435,-0.8502,-0.8502,-0.838,-0.8335,-0.8415,-0.8915,-0.949,-1.0072,-1.1574,-1.2475,-1.2204,-1.2546,-1.3298,-1.4526,-1.583,0.0,-1.8656,-2.0279,-2.1873,-2.3365,-2.4164,-2.5111,-2.6277,-2.6521,-2.6792,-2.7095,-2.7811,-2.8457,-2.9075,-2.9729,-3.0191,-3.0506,-3.0506,-3.0506,-3.0506,-3.0464,-3.0401,-3.0295,-3.0167,-3.0038,-2.9783,-2.8276,-2.7526,-2.7135,-2.6131,-2.5813,0.0,-2.5928,-2.599,-2.6065,-2.6295,-2.6278,-2.6085,-2.5619,-2.5615,-2.6024,-2.7295,-2.7459,-2.7727,-2.965,-3.0833,-3.2042,-3.3876,-3.4798,-3.5626,-3.6834,-3.8141,-3.958,-4.1253,-4.2194,-4.3228,-4.4806,-4.5056,-4.519,-4.5556,-4.5577,-4.5559,-4.5559,-4.5381,-4.5055,-4.4561,-4.5519,-4.6187,-4.6183,-4.7187,-4.8324,-4.9537,-4.961,-5.0198,-5.1463,-5.1606,-5.1627,-5.1556,-5.1663,-5.1449,-5.0937,-5.0602,-5.0453,-5.0453,-5.012,-5.0178,-5.0492,-5.0907,-5.0976,-5.0806,-5.074,-5.0499,-5.0076,-4.9665,-4.8934,-4.8077,-4.7652,-4.7381,-4.7183,0.0,-0.8441,-0.8502,-0.8502,-0.8422,-0.8354,-0.8354,-0.8782,-0.9143,-0.9299,-1.0909,-1.1854,-1.135,-1.16,-1.2343,-1.3677,-1.4871,-1.6419,-1.8523,-2.032,-2.2002,-2.3555,-2.4447,-2.5297,-2.6133,-2.6437,-2.669,-2.6891,-2.7824,-2.8505,-2.8903,-2.9775,-3.0307,-3.0506,-3.0506,-3.0506,-3.0506,-3.0506,-3.0443,-3.0333,-3.0231,-2.9989,-2.9496,-2.8001,-2.713,-2.6541,-2.5559,-2.5144,-2.5072,-2.4974,-2.5042,-2.5261,-2.5742,-2.5695,-2.5546,-2.5962,-2.6718,-2.7769,-2.9446,-2.9882,-3.0326,-3.2276,-3.3833,-3.5033,-3.5553,-3.6664,-3.779,-3.8601,-3.9766,-4.1147,-4.2794,-4.3585,-4.4333,-4.547,-4.5671,-4.5671,-4.5671,-4.5671,-4.5646,-4.5594,-4.5559,-4.541,-4.5096,-4.6259,-4.6901,-4.656,-4.792,-4.9158,-5.0023,-5.0202,-5.0914,-5.2289,-5.2325,-5.2352,-5.2408,-5.2408,-5.2132,-5.1576,-5.1052,-5.0803,-5.0776,-5.0235,-5.0274,-5.083,-5.121,-5.1312,-5.1171,-5.103,-5.0762,-5.0413,-5.0027,-4.9374,-4.8557,-4.7945,-4.7402,-4.6998,0.0,0.0,-0.8502,-0.8502,-0.8502,-0.8495,-0.8495,-0.8396,-0.8523,-0.9034,-0.9849,-1.0807,-1.1933,-1.1903,-1.2343,-1.3677,-1.4438,-1.5821,-1.8161,-1.9296,-2.0639,-2.2394,-2.3522,-2.448,-2.5213,-2.6134,-2.6925,-2.7576,-2.7557,-2.8219,-2.9579,-2.9473,-2.981,-3.0506,-3.0506,-3.0506,-3.0506,-3.0506,-3.0401,-3.021,-3.0189,-2.9652,-2.8681,-2.7267,-2.628,-2.5572,-2.51,0.0,-2.3694,-2.4538,-2.4468,-2.427,-2.5508,-2.5888,-2.6105,-2.7209,-2.8196,-2.9081,-2.972,-3.1065,-3.2781,-3.4861,-3.6,-3.7065,-3.8765,-3.9188,-3.9465,-4.0254,-4.0466,-4.1035,-4.2777,-4.3124,-4.372,-4.5501,-4.58,-4.58,-4.58,-4.58,-4.5742,-4.5612,-4.5594,-4.5568,-4.5495,-4.6641,-4.7263,-4.6902,-4.8793,-5.034,-5.1194,-5.1684,-5.2307,-5.3151,-5.317,-5.2915,-5.2408,-5.2408,-5.2132,-5.1576,-5.1052,-5.0803,-5.0776,-5.0235,-5.0274,-5.0803,-5.0803,-5.0858,-5.0929,-5.1113,-5.114,-5.0995,-5.035,-4.9959,-4.9627,-4.857,-4.7681,-4.6998,0.0,0.0,0.0,-0.8495,-0.8502,-0.8502,-0.8502,-0.8885,-0.9178,-0.9224,-1.0139,0.0,0.0,0.0,0.0,0.0,-1.4167,-1.5479,-1.7143,-1.8851,-2.0461,-2.1945,-2.2843,-2.3883,-2.5112,-2.548,-2.6015,-2.6749,-2.7197,-2.7679,-2.8144,-2.8547,-2.8853,-2.9138,-2.9562,-2.9736,-2.9708,-2.9696,-2.9893,-3.0107,-2.9095,-2.8767,-2.8765,-2.7275,-2.594,-2.4792,0.0,0.0,-2.3009,-2.3272,-2.3277,-2.3341,-2.4076,-2.4374,-2.4888,-2.7142,-2.8026,-2.8841,-3.1446,-3.31,-3.4516,-3.6419,-3.7675,-3.8719,-3.9842,-4.0092,-4.0169,-4.0439,-4.0496,-4.0862,-4.2027,-4.2757,-4.3566,-4.4736,-4.546,-4.5853,-4.5821,-4.5807,-4.5749,-4.5612,-4.5594,-4.5586,-4.5568,-4.6235,-4.6844,-4.7264,-4.8562,-4.9905,-5.1229,-5.1801,-5.2449,-5.3238,-5.3209,-5.3146,-5.2987,-5.2959,-5.2846,-5.2672,-5.2108,-5.1493,-5.0776,-5.0602,-5.0443,-5.0274,-5.0274,-5.0464,-5.0839,-5.0721,-5.0972,-5.1387,-5.1053,-5.0624,-5.0217,-4.9865,-4.8907,-4.7734,0.0,0.0,0.0,0.0,0.0,0.0,0.0,0.0,0.0,0.0,0.0,0.0,0.0,0.0,0.0,0.0,0.0,-1.479,-1.6462,-1.7899,-1.9465,-2.1187,-2.1802,-2.2675,-2.3884,-2.4248,-2.463,-2.5096,-2.5845,-2.6344,-2.6591,-2.73,-2.7763,-2.8028,-2.8721,-2.8993,-2.8909,-2.8913,-2.9095,-2.9279,-2.8005,-2.7622,-2.7627,-2.614,-2.479,0.0,0.0,-2.2476,-2.224,-2.2445,-2.2647,-2.2932,-2.3685,-2.4608,-2.5837,-2.8006,-2.9122,-3.0346,-3.3705,-3.5133,-3.6111,-3.805,-3.908,-3.9783,-4.0365,-4.0496,-4.0419,-4.0131,-3.9823,-3.9873,-4.0758,-4.1154,-4.1951,-4.3756,-4.4579,-4.5196,-4.5731,-4.5807,-4.5749,-4.5612,-4.5874,-4.6067,-4.6067,-4.6598,-4.7144,-4.7643,-4.9272,-5.0635,-5.1505,-5.2326,-5.2949,-5.3361,-5.3316,-5.3334,-5.338,-5.3334,-5.3212,-5.3023,-5.2617,-5.2042,-5.127,-5.1052,-5.0803,-5.0564,-5.0359,-5.0481,-5.0793,-5.0602,-5.0928,-5.146,-5.1359,-5.116,-5.0887,-5.062,-4.9692,-4.8478,0.0,0.0,0.0,0.0,0.0,0.0,0.0,0.0,0.0,0.0,0.0,0.0,0.0,0.0,0.0,0.0,0.0,0.0,-1.6006,0.0,0.0,-2.0067,-2.0475,-2.1017,-2.1779,-2.2553,-2.2935,-2.2957,-2.3716,-2.4414,-2.506,-2.5755,-2.6452,-2.7149,-2.7912,-2.8152,-2.8023,-2.8023,-2.7938,-2.7708,-2.6941,-2.6197,-2.5387,-2.4031,0.0,0.0,0.0,-2.1325,-2.1418,-2.2198,-2.272,-2.3231,-2.4461,-2.6517,-2.8706,-2.977,-3.139,-3.3456,-3.6281,-3.7159,-3.7766,-3.9795,-4.0301,-4.0326,-4.0515,-4.0496,-4.0208,-3.94,-3.8507,-3.8104,-3.89,-3.853,-3.9185,-4.2473,-4.3272,-4.4037,-4.5583,-4.5833,-4.5815,-4.567,-4.6432,-4.6962,-4.6962,-4.7702,-4.8164,-4.8135,-5.0813,-5.2332,-5.2088,-5.3328,-5.3851,-5.3541,-5.3501,-5.3499,-5.3519,-5.3499,-5.324,-5.274,-5.2607,-5.2445,-5.2161,-5.1525,-5.1347,-5.1543,-5.1026,-5.0803,-5.0803,-5.0803,-5.0999,-5.1298,-5.1298,-5.1462,-5.1601,-5.0834,-5.0066,-4.9257,0.0,0.0,0.0,0.0,0.0,0.0,0.0,0.0,0.0,0.0,0.0,0.0,0.0,0.0,0.0,0.0,0.0,0.0,0.0,0.0,0.0,0.0,0.0,-2.0489,-2.1779,-2.1993,-2.264,-2.3719,-2.3934,-2.4116,-2.4282,-2.4481,-2.4663,-2.4862,-2.5571,-2.5796,-2.5655,-2.5617,-2.5817,-2.6075,0.0,-2.4518,-2.4677,0.0,0.0,0.0,0.0,-2.1778,-2.1499,-2.2832,-2.4478,-2.6019,-2.656,-2.7536,-2.8848,-3.0656,-3.2797,-3.5027,-3.711,-3.927,-4.1086,-4.1635,-4.1581,-4.1412,-4.1462,-4.0489,-3.9361,-3.8507,-3.7161,-3.6007,-3.5591,-3.7016,-3.8757,-4.0262,-4.2808,-4.4897,-4.5747,-4.6432,-4.6771,-4.6583,-4.7298,-4.7798,-4.7798,-4.8567,-4.9336,-4.9962,-5.109,-5.2222,-5.3283,-5.3822,-5.405,-5.3943,-5.3661,-5.3539,-5.3656,-5.3539,-5.344,-5.33,-5.3261,-5.2882,-5.2185,-5.2018,-5.1601,-5.0991,-5.0857,-5.0803,-5.0803,-5.0803,-5.0999,-5.1298,-5.1298,-5.1462,-5.1672,-5.1458,-5.0887,-5.0174,0.0,0.0,0.0,0.0,0.0,0.0,0.0,0.0,0.0,0.0,0.0,0.0,0.0,0.0,0.0,0.0,0.0,0.0,0.0,0.0,0.0,0.0,-1.8174,-1.9214,-2.034,-2.0671,-2.1071,-2.1584,0.0,0.0,-2.2081,-2.2394,-2.2725,-2.3056,-2.3737,-2.4148,-2.4308,-2.4254,0.0,0.0,0.0,0.0,0.0,0.0,0.0,0.0,0.0,0.0,0.0,-2.4213,-2.6128,-2.8156,-2.875,-2.9766,-3.1205,-3.3556,-3.5262,-3.6867,-3.9096,-4.0904,-4.2136,-4.1944,-4.1753,-4.1255,-3.9869,-3.9123,-3.8065,-3.5718,-3.4487,-3.3558,-3.2699,-3.4478,-3.6697,-3.8675,-4.1678,-4.4254,-4.5662,-4.659,-4.7066,-4.692,-4.7952,-4.8817,-4.9202,-5.001,-5.1029,-5.226,-5.2288,-5.2736,-5.383,-5.422,-5.4343,-5.419,-5.3833,-5.3658,-5.3735,-5.3658,-5.3638,-5.3638,-5.3599,-5.3175,-5.2454,-5.2389,-5.1939,-5.1193,-5.1193,-5.1193,-5.1193,-5.1193,-5.1315,-5.1479,-5.1479,-5.1564,-5.169,-5.169,-5.1191,-5.0513,0.0,0.0,0.0,0.0,0.0,0.0,0.0,0.0,0.0,0.0,0.0,0.0,0.0,0.0,0.0,0.0,0.0,0.0,0.0,0.0,0.0,0.0,-1.7301,-1.7806,-1.8489,-1.9121,-1.9187,-1.8654,0.0,0.0,0.0,0.0,0.0,0.0,0.0,0.0,0.0,0.0,0.0,0.0,0.0,0.0,0.0,0.0,0.0,0.0,0.0,0.0,0.0,0.0,-2.7679,-2.9891,-3.0938,-3.2492,-3.4442,-3.7053,-3.7993,-3.8798,-4.14,-4.2205,-4.2216,-4.1783,-4.1542,-4.0643,-3.7713,-3.7276,-3.6392,-3.2506,-3.1525,-3.1083,-3.0231,-3.1675,-3.4128,-3.7501,-4.0306,-4.2922,-4.5461,-4.6614,-4.7167,-4.7066,-4.8644,-5.0029,-5.0779,-5.1606,-5.276,-5.4376,-5.3799,-5.3618,-5.4204,-5.4623,-5.47,-5.4296,-5.4036,-5.3851,-5.3813,-5.3813,-5.3813,-5.3813,-5.3735,-5.3416,-5.2872,-5.2743,-5.2384,-5.1864,-5.1864,-5.1815,-5.179,-5.179,-5.174,-5.169,-5.169,-5.169,-5.169,-5.169,-5.1262,-5.0673,0.0,0.0,0.0,0.0,0.0,0.0,0.0,0.0,0.0,0.0,-1.1964,-1.1826,0.0,0.0,0.0,0.0,0.0,0.0,0.0,0.0,0.0,0.0,-1.7131,-1.7806,-1.8489,-1.8638,-1.8936,-1.9402,0.0,0.0,0.0,0.0,0.0,0.0,0.0,0.0,0.0,0.0,0.0,0.0,0.0,0.0,0.0,0.0,0.0,0.0,0.0,0.0,0.0,0.0,-2.8866,-3.153,-3.274,-3.4262,-3.6025,-3.8206,-3.9384,-4.036,-4.2166,-4.3301,-4.3845,-4.3287,-4.2248,-4.0959,-3.9238,-3.6783,-3.4257,-3.2141,-3.0544,-2.93,-2.8486,-3.038,-3.3186,-3.6713,-3.9491,-4.2302,-4.5447,-4.7239,-4.8146,-4.7911,-5.0,-5.1519,-5.1673,-5.2472,-5.3395,-5.4414,-5.4357,-5.4615,-5.536,-5.5281,-5.4938,-5.4313,-5.4246,-5.4072,-5.3794,-5.3813,-5.3813,-5.3813,-5.3793,-5.358,-5.3196,-5.3196,-5.2962,-5.2604,-5.2604,-5.2426,-5.2108,-5.2108,-5.1951,-5.169,-5.169,-5.169,-5.169,-5.169,-5.1601,-5.1476,0.0,0.0,0.0,0.0,0.0,0.0,0.0,-1.1894,-1.2993,-1.3532,-1.3578,-1.3251,-1.2422,-1.1922,-1.1914,0.0,0.0,0.0,0.0,0.0,0.0,0.0,0.0,-1.7652,-1.7971,-1.8323,-1.8505,0.0,0.0,0.0,0.0,0.0,0.0,0.0,0.0,0.0,0.0,0.0,0.0,0.0,0.0,0.0,0.0,0.0,0.0,0.0,0.0,0.0,0.0,0.0,-2.7757,-3.0658,-3.3375,-3.5316,-3.6939,-3.8604,-4.0011,-4.1318,-4.2664,-4.3685,-4.4191,-4.3297,-4.2235,-4.0453,-3.6791,-3.4699,-3.2545,-2.9077,-2.8063,-2.7544,-2.6697,-2.9052,-3.1978,-3.4598,-3.758,-4.0735,-4.4029,-4.5996,-4.7342,-4.8017,-5.0346,-5.2077,-5.2519,-5.3356,-5.4222,-5.5049,-5.5126,-5.528,-5.5684,-5.5437,-5.5064,-5.4576,-5.438,-5.4229,-5.4054,-5.3889,-5.3813,-5.3813,-5.3813,-5.362,-5.33,-5.33,-5.313,-5.2806,-5.2806,-5.2676,-5.2499,-5.2499,-5.2426,-5.2257,-5.2048,-5.1957,-5.1951,-5.1747,-5.169,-5.169,0.0,0.0,0.0,0.0,0.0,0.0,0.0,-1.2581,-1.3696,-1.4973,-1.5192,-1.4847,-1.3818,-1.2749,-1.2452,0.0,0.0,0.0,0.0,0.0,0.0,0.0,0.0,0.0,-1.7569,0.0,0.0,0.0,0.0,0.0,0.0,0.0,0.0,0.0,0.0,0.0,0.0,0.0,0.0,0.0,0.0,0.0,0.0,0.0,0.0,0.0,0.0,0.0,0.0,0.0,-2.6046,-2.8592,-3.2162,-3.4863,-3.6958,-3.8376,-3.9853,-4.1351,-4.2745,-4.3587,-4.381,-4.2784,-4.1734,-3.9576,-3.4251,-3.2633,-3.097,-2.6458,-2.5931,-2.6133,-2.5668,-2.7817,-3.0485,-3.2972,-3.5827,-3.8991,-4.2673,-4.4859,-4.6572,-4.7931,-5.05,-5.2442,-5.3126,-5.4145,-5.5011,-5.5645,-5.5703,-5.5703,-5.5703,-5.5497,-5.523,-5.4909,-5.4654,-5.4446,-5.4296,-5.4035,-5.387,-5.3813,-5.3813,-5.3659,-5.342,-5.342,-5.3258,-5.3005,-5.3005,-5.298,-5.2915,-5.2915,-5.2872,-5.2761,-5.2454,-5.2273,-5.2179,-5.2,-5.1871,-5.1797,0.0,0.0,0.0,0.0,0.0,0.0,0.0,-1.3413,-1.523,-1.6682,-1.6159,-1.5735,-1.5973,-1.462,-1.3846,0.0,0.0,0.0,0.0,0.0,0.0,0.0,0.0,0.0,0.0,0.0,0.0,-1.8771,0.0,0.0,0.0,0.0,0.0,0.0,0.0,-1.7828,0.0,0.0,0.0,0.0,0.0,0.0,0.0,0.0,0.0,0.0,0.0,0.0,0.0,0.0,-2.4681,-2.5623,-2.7776,-3.147,-3.5374,-3.7204,-3.8493,-3.9839,-4.221,-4.288,-4.2787,-4.2141,-4.076,-3.8526,-3.4462,-3.1792,-2.9429,-2.6835,-2.5738,-2.5485,-2.6331,-2.6746,-2.856,-3.3481,-3.5166,-3.7577,-4.2505,-4.5336,-4.7202,-4.8008,-5.1048,-5.3106,-5.3203,-5.4645,-5.5607,-5.5684,-5.5703,-5.5703,-5.5703,-5.5692,-5.5551,-5.5275,-5.5217,-5.4924,-5.4315,-5.4281,-5.4107,-5.3813,-5.3813,-5.3775,-5.3737,-5.3737,-5.3755,-5.3698,-5.3698,-5.3541,-5.3238,-5.3238,-5.3069,-5.2783,-5.2761,-5.2522,-5.225,-5.2586,-5.2472,-5.2155,0.0,0.0,0.0,0.0,0.0,0.0,-1.1594,-1.319,-1.481,-1.6241,-1.6285,-1.6441,-1.7066,-1.6173,-1.5386,-1.5023,0.0,0.0,0.0,0.0,0.0,0.0,0.0,0.0,0.0,0.0,0.0,-1.9133,-1.9023,0.0,0.0,0.0,0.0,0.0,0.0,-1.7856,-1.7153,0.0,0.0,0.0,0.0,0.0,0.0,0.0,0.0,0.0,0.0,0.0,-2.1608,-2.2563,-2.3393,-2.419,-2.5237,-2.7664,0.0,-3.3707,-3.6384,-3.8692,-4.0178,-4.1311,-4.1924,-4.1338,-3.9552,-3.7081,-3.3758,-3.1085,-2.8621,-2.623,-2.5458,-2.5334,-2.5745,-2.625,-2.7608,-3.0721,-3.1918,-3.4073,-3.8645,-4.1056,-4.3416,-4.6249,-4.9606,-5.2087,-5.3106,-5.4722,-5.5703,-5.5703,-5.5703,-5.5703,-5.5703,-5.5703,-5.5651,-5.5531,-5.5376,-5.5164,-5.489,-5.4511,-5.4229,-5.4107,-5.3907,-5.3813,-5.3813,-5.3813,-5.3813,-5.3813,-5.3813,-5.3717,-5.36,-5.36,-5.3521,-5.3381,-5.3193,-5.2987,-5.2857,-5.2828,-5.2717,-5.2563,0.0,0.0,0.0,0.0,0.0,-1.1063,-1.1669,-1.3183,-1.4751,-1.6139,-1.6339,-1.6773,-1.7898,-1.708,-1.6378,-1.6155,-1.6112,0.0,0.0,0.0,0.0,0.0,0.0,0.0,0.0,0.0,-1.8727,-1.9703,-1.9889,-2.0169,0.0,0.0,-2.0225,-1.9085,0.0,0.0,0.0,0.0,0.0,0.0,0.0,0.0,0.0,0.0,0.0,0.0,0.0,0.0,0.0,0.0,0.0,-2.3164,-2.3491,0.0,0.0,0.0,-3.3957,-3.6687,-3.8307,-3.977,-4.077,-4.0407,-3.8602,-3.6081,-3.2885,-3.0377,-2.8065,-2.5724,-2.5243,-2.5253,-2.5284,-2.5808,-2.6851,0.0,-3.0044,-3.225,-3.6481,-3.8796,-4.1335,-4.4806,-4.8018,-5.0606,-5.2299,-5.4434,-5.5703,-5.5703,-5.5703,-5.5703,-5.5703,-5.5703,-5.5703,-5.5703,-5.5527,-5.5376,-5.5301,-5.4836,-5.4495,-5.4298,-5.4054,-5.3907,-5.3813,-5.3813,-5.3813,-5.3813,-5.3813,-5.3813,-5.3813,-5.3813,-5.3813,-5.3793,-5.3541,-5.34,-5.3279,-5.3151,-5.3045,-5.2959,0.0,0.0,0.0,0.0,0.0,0.0,-1.1811,-1.3707,-1.5567,-1.6909,-1.6451,-1.6724,-1.8589,-1.7171,-1.6573,-1.777,-1.691,0.0,0.0,0.0,0.0,0.0,0.0,0.0,0.0,0.0,-1.9749,-2.0688,-2.1276,-2.1576,-2.1599,-2.2324,-2.19,-2.046,0.0,0.0,0.0,0.0,0.0,0.0,0.0,0.0,0.0,0.0,0.0,0.0,0.0,0.0,0.0,0.0,0.0,0.0,0.0,0.0,0.0,0.0,-3.1221,-3.3421,-3.6936,-3.8507,-3.917,-3.937,-3.8053,-3.5714,-3.1977,-2.965,-2.7696,-2.5545,-2.5096,-2.5149,-2.5288,-2.5308,-2.6135,-2.8684,-3.0564,-3.316,-3.7392,-4.0181,-4.2412,-4.4105,-4.6567,-4.8817,-5.0558,-5.3741,-5.5703,-5.5703,-5.5703,-5.5703,-5.5703,-5.5703,-5.5703,-5.5703,-5.5703,-5.5573,-5.5301,-5.5288,-5.4952,-5.4315,-5.4298,-5.4125,-5.3813,-5.3813,-5.3813,-5.3813,-5.3813,-5.3813,-5.3813,-5.3813,-5.3813,-5.3813,-5.3813,-5.36,-5.3359,-5.3659,-5.358,-5.3279,0.0,0.0,0.0,0.0,0.0,0.0,0.0,-1.2583,-1.3966,-1.4794,-1.4708,-1.5161,-1.6727,-1.6366,-1.6418,-1.7402,-1.7228,0.0,0.0,0.0,0.0,0.0,0.0,0.0,0.0,0.0,-1.9998,-2.0976,-2.1719,-2.2265,-2.2628,-2.2855,-2.2362,-2.126,-2.1128,0.0,0.0,0.0,0.0,0.0,0.0,0.0,0.0,0.0,0.0,0.0,0.0,0.0,0.0,0.0,0.0,0.0,0.0,0.0,0.0,-2.5793,-2.8506,-3.1189,-3.2541,-3.3912,-3.4816,-3.4323,-3.3357,-3.1935,-2.9701,-2.837,-2.7135,-2.5449,-2.5171,-2.5248,-2.5279,-2.5308,-2.6519,-3.0275,-3.1333,0.0,-3.7411,-3.9681,-4.1739,-4.4028,-4.8606,-5.226,-5.3953,-5.5068,-5.5703,-5.5703,-5.5703,-5.5703,-5.5703,-5.5703,-5.5703,-5.5703,-5.5703,-5.5651,-5.5573,-5.5389,-5.5191,-5.4981,-5.4528,-5.4246,-5.4124,-5.3889,-5.3813,-5.3813,-5.3813,-5.3813,-5.3813,-5.3813,-5.3813,-5.3813,-5.3813,-5.3755,-5.3659,-5.3756,-5.3717,-5.3639,0.0,0.0,0.0,0.0,0.0,0.0,0.0,-1.2116,-1.326,-1.3884,-1.3921,-1.4443,-1.5875,-1.5771,-1.608,-1.7268,-1.7451,0.0,0.0,0.0,0.0,0.0,0.0,0.0,0.0,-1.9636,-2.0469,-2.1108,-2.2214,-2.292,-2.3253,-2.3253,-2.2916,-2.2293,-2.1923,-2.1619,0.0,0.0,0.0,0.0,0.0,0.0,0.0,0.0,0.0,0.0,0.0,0.0,0.0,0.0,0.0,0.0,0.0,0.0,0.0,0.0,-2.6222,-2.8498,-2.9754,-3.1084,-3.2002,-3.1579,-3.0809,-2.9766,-2.8282,-2.7371,-2.6508,-2.5347,-2.5217,-2.5308,-2.5308,-2.5308,-2.6385,-2.9737,-3.0794,-3.2673,-3.693,-3.8969,-4.1227,-4.4412,-4.9202,-5.2799,-5.4145,-5.5145,-5.5703,-5.5703,-5.5703,-5.5703,-5.5703,-5.5703,-5.5703,-5.5703,-5.5703,-5.5703,-5.5703,-5.552,-5.5401,-5.5301,-5.488,-5.4604,-5.4479,-5.4124,-5.4,-5.3981,-5.3851,-5.3813,0.0,-5.3813,-5.3813,-5.3813,-5.3813,-5.3813,-5.3813,-5.3813,-5.3813,-5.3813,0.0,0.0,0.0,0.0,0.0,0.0,0.0,-1.2171,-1.3261,-1.3853,-1.3884,-1.436,-1.5722,-1.5303,-1.5571,-1.7218,0.0,0.0,0.0,0.0,0.0,0.0,0.0,0.0,-1.8788,-2.0313,-2.1108,-2.1108,-2.2703,-2.3505,-2.3505,-2.3505,-2.3505,-2.347,-2.2638,-2.2669,0.0,0.0,0.0,0.0,0.0,0.0,0.0,0.0,0.0,0.0,0.0,0.0,0.0,0.0,0.0,0.0,0.0,0.0,0.0,0.0,0.0,0.0,0.0,-2.9585,-3.0286,-3.0405,-2.9792,-2.88,-2.7497,-2.6631,0.0,-2.522,-2.5192,-2.5346,-2.5462,-2.5423,-2.6038,-2.8025,-2.9717,-3.2212,-3.6385,-3.8623,-4.1343,-4.5383,-4.8826,-5.1202,-5.2,-5.428,-5.5703,-5.5703,-5.5703,-5.5703,-5.5703,-5.5703,-5.5703,-5.5703,-5.5703,-5.5703,-5.5703,-5.5703,-5.5566,-5.5326,-5.5314,-5.5138,-5.4821,-5.4495,-5.4313,-5.4281,-5.3981,-5.3813,-5.3813,-5.3813,-5.3813,-5.3813,-5.3813,-5.3813,-5.3813,-5.3813,-5.3813,-5.3794,0.0,0.0,0.0,0.0,0.0,0.0,0.0,0.0,0.0,0.0,-1.2877,-1.3336,-1.368,-1.457,-1.5356,0.0,0.0,0.0,0.0,0.0,0.0,0.0,0.0,0.0,-1.8797,-2.0313,-2.1108,-2.1108,-2.2703,-2.3505,-2.3505,-2.3505,-2.3505,-2.3487,-2.3286,-2.3235,0.0,0.0,0.0,0.0,0.0,0.0,0.0,0.0,0.0,0.0,-2.2304,-2.2443,0.0,0.0,0.0,0.0,0.0,0.0,0.0,0.0,-2.4097,-2.4567,-2.5281,0.0,-2.6655,-2.6134,-2.6284,-2.6321,0.0,-2.5661,-2.588,-2.5113,-2.5132,-2.5712,-2.7044,-2.6736,-2.7698,-3.2032,-3.3603,-3.5538,-3.9104,-4.2797,-4.597,-4.824,-5.0933,-5.2953,-5.3818,-5.4991,-5.5703,-5.5703,-5.5703,-5.5703,-5.5703,-5.5703,-5.5703,-5.5703,-5.5703,-5.5703,-5.5703,-5.5703,-5.5662,-5.5607,-5.5401,-5.5262,-5.5164,-5.4836,-5.4544,-5.4298,-5.4212,-5.4035,-5.3813,-5.3813,-5.3813,-5.3813,-5.3813,-5.3813,-5.3813,-5.3813,-5.3813,-5.372,0.0,0.0,0.0,0.0,0.0,0.0,0.0,0.0,0.0,0.0,0.0,-1.3104,-1.313,-1.4117,0.0,0.0,0.0,0.0,0.0,0.0,0.0,0.0,0.0,-1.8797,-1.8797,-2.0313,-2.1108,-2.1108,-2.2703,-2.3505,-2.3505,-2.3505,-2.3505,-2.3505,-2.3505,-2.3436,0.0,0.0,0.0,0.0,0.0,0.0,0.0,0.0,0.0,0.0,-2.2055,-2.2169,0.0,-2.2935,-2.323,-2.3434,0.0,0.0,0.0,0.0,-2.4085,-2.4219,-2.4247,-2.4903,-2.5514,-2.5132,-2.5373,-2.5596,-2.5227,-2.5352,-2.5446,-2.5063,-2.5154,-2.5712,-2.7063,-2.7236,-2.8486,-3.241,-3.4083,-3.6353,-4.0508,-4.4759,-4.7798,-4.8702,-5.1048,-5.2799,-5.326,-5.4068,-5.4722,-5.5126,-5.5145,-5.5299,-5.5684,-5.5703,-5.5703,-5.5703,-5.5703,-5.5703,-5.5703,-5.5703,-5.5703,-5.5703,-5.5562,-5.5473,-5.5473,-5.5178,-5.4924,-5.4727,-5.443,-5.4194,-5.4036,-5.387,-5.3813,-5.3813,-5.3813,-5.3813,-5.3813,-5.3813,-5.3571,-5.32,0.0,0.0,0.0,0.0,0.0,0.0,0.0,0.0,0.0,0.0,0.0,0.0,0.0,0.0,0.0,0.0,0.0,0.0,0.0,0.0,0.0,0.0,0.0,-1.8868,-1.8975,-2.0366,-2.1161,-2.1286,-2.2881,-2.3612,-2.3505,-2.363,-2.3612,-2.3505,-2.3505,-2.3441,0.0,0.0,0.0,0.0,0.0,0.0,0.0,0.0,0.0,0.0,0.0,0.0,0.0,-2.2782,-2.3367,-2.3806,-2.3855,0.0,0.0,0.0,0.0,0.0,-2.4504,-2.5282,-2.5922,-2.5597,-2.5624,-2.576,-2.5868,-2.5389,-2.505,-2.5416,-2.5485,-2.5885,-2.7159,-2.7986,-2.9352,-3.2025,-3.4083,-3.6949,-4.1546,-4.5605,-4.8105,-4.8105,-5.0346,-5.1904,-5.1904,-5.2692,-5.351,-5.4241,-5.4299,-5.4607,-5.528,-5.5434,-5.5511,-5.5511,-5.5645,-5.5703,-5.5703,-5.5703,-5.5703,-5.5703,-5.5703,-5.5703,-5.5684,-5.5461,-5.5339,-5.5275,-5.4697,-5.4397,-5.4281,-5.3981,-5.3851,-5.3813,-5.3813,-5.3813,-5.3794,-5.3664,-5.32,-5.2568,0.0,0.0,0.0,0.0,0.0,0.0,0.0,0.0,0.0,0.0,0.0,0.0,0.0,0.0,0.0,0.0,0.0,0.0,0.0,0.0,0.0,-1.8514,-1.8704,-1.9118,-1.9805,-2.0662,-2.1429,-2.2118,-2.3731,-2.4165,-2.3523,-2.4212,-2.4147,-2.3505,-2.3505,-2.3549,-2.3635,0.0,0.0,0.0,0.0,0.0,0.0,0.0,0.0,0.0,0.0,0.0,0.0,-2.255,-2.319,-2.3837,-2.4074,0.0,0.0,0.0,0.0,0.0,-2.5939,-2.7082,-2.7353,-2.5152,-2.523,-2.5868,-2.5906,-2.547,-2.5486,-2.6924,-2.677,-2.7332,-3.0371,-3.1025,-3.2179,-3.5404,-3.8577,-4.1412,-4.3605,-4.6336,-4.8105,-4.8105,-5.0346,-5.1904,-5.1904,-5.2692,-5.326,-5.3395,-5.3395,-5.3453,-5.3587,-5.428,-5.4684,-5.4684,-5.5338,-5.5703,-5.5703,-5.5703,-5.5703,-5.5703,-5.5703,-5.5703,-5.5703,-5.5651,-5.5508,-5.5301,-5.5191,-5.4817,-5.4298,-5.4246,-5.4054,-5.3813,-5.3813,-5.3813,-5.372,-5.3051,-5.2717,-5.2401,0.0,0.0,0.0,0.0,0.0,0.0,0.0,0.0,0.0,0.0,0.0,0.0,0.0,0.0,0.0,0.0,0.0,0.0,0.0,0.0,0.0,-1.9182,-1.9354,-1.9627,-1.9984,-2.1144,-2.2143,-2.2946,-2.4232,-2.4644,-2.425,-2.4309,-2.4075,-2.3609,-2.3725,-2.3739,-2.3703,-2.3739,0.0,0.0,0.0,0.0,0.0,0.0,0.0,0.0,0.0,0.0,0.0,0.0,-2.2569,-2.3377,-2.351,0.0,0.0,0.0,0.0,0.0,-2.5137,-2.6059,-2.6628,-2.6003,-2.7315,-2.8655,-2.8268,-2.8017,-2.809,-2.8931,-2.887,-2.9269,-3.1314,-3.2833,-3.5,-3.8827,-4.1931,-4.3951,-4.4259,-4.649,-4.8105,-4.8105,-4.9548,-5.0741,-5.1202,-5.1606,-5.2029,-5.2462,-5.25,-5.2692,-5.3164,-5.3587,-5.3799,-5.3799,-5.4164,-5.4357,-5.4357,-5.4357,-5.4799,-5.5703,-5.5703,-5.5703,-5.5703,-5.5703,-5.5629,-5.5516,-5.5364,-5.5132,-5.4785,-5.4066,-5.3656,-5.3432,-5.2843,-5.2567,-5.2419,-5.1602,-5.1286,-5.1082,0.0,0.0,0.0,0.0,0.0,0.0,0.0,0.0,0.0,0.0,0.0,0.0,0.0,0.0,0.0,0.0,0.0,0.0,0.0,0.0,-1.9014,-1.9834,-2.0154,-2.039,-2.0547,-2.1938,-2.3041,-2.3853,-2.5021,-2.5479,-2.5217,-2.439,-2.3917,-2.3785,-2.3927,-2.3937,-2.3837,-2.3947,-2.3927,0.0,0.0,0.0,0.0,0.0,0.0,0.0,0.0,0.0,0.0,0.0,0.0,0.0,0.0,0.0,0.0,-2.419,-2.419,-2.4281,-2.4667,-2.5299,-2.6089,-2.7119,-2.8695,-3.0125,-3.0603,-3.031,-3.0254,-3.1366,-3.1423,-3.1615,-3.2679,-3.5115,-3.8096,-4.1538,-4.4239,-4.5663,-4.5009,-4.6759,-4.8105,-4.8105,-4.8875,-4.9663,-5.0327,-5.0577,-5.0952,-5.1568,-5.1625,-5.1914,-5.2587,-5.2799,-5.2895,-5.2895,-5.3087,-5.3203,-5.3203,-5.3203,-5.3837,-5.5107,-5.5107,-5.5107,-5.5107,-5.5107,-5.5107,-5.5096,-5.491,-5.4788,-5.4631,-5.3566,-5.3074,-5.2862,-5.2001,-5.1462,-5.108,-5.0413,-5.0023,-4.9745,0.0,0.0,0.0,0.0,0.0,0.0,0.0,0.0,0.0,0.0,0.0,0.0,0.0,0.0,0.0,0.0,0.0,0.0,0.0,0.0,-1.9164,-2.0035,-2.0858,-2.1566,-2.2118,-2.317,-2.4086,-2.4899,-2.6572,-2.7023,-2.6264,-2.4725,-2.3996,-2.3986,-2.3996,-2.4057,-2.4163,-2.4056,-2.4057,-2.4154,0.0,0.0,0.0,0.0,0.0,0.0,0.0,0.0,0.0,0.0,0.0,0.0,0.0,0.0,-2.419,-2.419,-2.419,-2.452,-2.6025,-2.6643,-2.7101,-2.7914,-2.7282,-2.7523,-3.1587,-3.0785,-3.0308,-3.4308,-3.4487,-3.441,-3.6038,-3.9077,-4.1712,-4.2835,-4.5143,-4.6769,-4.6712,-4.7509,-4.8105,-4.8105,-4.8875,-4.9413,-4.949,-5.0231,-5.0731,-5.0789,-5.0789,-5.0808,-5.0885,-5.1587,-5.1981,-5.1981,-5.2779,-5.3203,-5.3203,-5.3203,-5.326,-5.3376,-5.3376,-5.3376,-5.3376,-5.3376,-5.3376,-5.3376,-5.3435,-5.3264,-5.2961,-5.2736,-5.2455,-5.2152,-5.196,-5.1295,-5.0452,-5.0188,-4.9633,-4.8983,0.0,0.0,0.0,0.0,0.0,0.0,0.0,0.0,0.0,0.0,0.0,0.0,0.0,0.0,0.0,0.0,0.0,0.0,0.0,-1.8413,-1.9327,-2.0255,-2.1071,-2.1614,-2.1809,-2.3684,-2.5063,-2.5881,-2.6618,-2.6636,-2.5937,-2.4829,-2.4238,-2.4125,-2.4266,-2.4266,-2.4201,-2.4275,-2.4266,-2.421,-2.4275,0.0,0.0,0.0,0.0,0.0,0.0,0.0,0.0,0.0,-2.1133,-2.2299,-2.262,-2.3391,-2.419,-2.419,-2.419,-2.4337,-2.4942,-2.6061,-2.7293,-2.8212,-2.8556,-2.9501,-3.2771,-3.4086,-3.5391,-3.8065,-3.8361,-3.8476,-3.9662,-4.0923,-4.2258,-4.3624,-4.5566,-4.6904,-4.6904,-4.7586,-4.8105,-4.8105,-4.8394,-4.8798,-4.9356,-4.9702,-5.0106,-5.0654,-5.0712,-5.0712,-5.0712,-5.0991,-5.1144,-5.1144,-5.1471,-5.1645,-5.1645,-5.1645,-5.1645,-5.1664,-5.2702,-5.3203,-5.3203,-5.3203,-5.3203,-5.3203,-5.3263,-5.3234,-5.3068,-5.2434,-5.2043,-5.1763,-5.0751,-5.0065,-4.9629,-4.9424,-4.9169,-4.8909,0.0,0.0,0.0,0.0,0.0,0.0,0.0,0.0,0.0,0.0,0.0,0.0,0.0,0.0,0.0,0.0,0.0,0.0,-1.7381,-1.8448,-1.9482,-2.0428,-2.0993,-2.1514,-2.2035,-2.396,-2.5216,-2.5722,-2.6115,-2.6106,-2.5689,-2.4871,-2.442,-2.4303,-2.4437,-2.442,-2.4303,-2.4437,-2.442,-2.4312,-2.4437,-2.3911,0.0,0.0,0.0,0.0,0.0,0.0,0.0,0.0,-2.0446,-2.1473,-2.2006,-2.2923,-2.3878,-2.4135,-2.4422,-2.4663,-2.4663,-2.5696,-2.7056,-2.8296,-2.96,-3.1386,-3.4489,-3.6446,-3.8219,-4.045,-4.0912,-4.1181,-4.2047,-4.222,-4.2681,-4.4066,-4.5759,-4.6904,-4.6904,-4.7586,-4.8105,-4.8105,-4.8105,-4.8336,-4.8933,-4.899,-4.9356,-5.0221,-5.0289,-5.0423,-5.0693,-5.0712,-5.0712,-5.0712,-5.0712,-5.0712,-5.0712,-5.0712,-5.0712,-5.0712,-5.1856,-5.2414,-5.2414,-5.2414,-5.2414,-5.2414,-5.2473,-5.2501,-5.2452,-5.179,-5.1402,-5.1116,-4.9982,-4.9431,-4.9244,-4.9062,-4.896,-4.8909,0.0,0.0,0.0,0.0,0.0,0.0,0.0,0.0,0.0,0.0,0.0,0.0,0.0,0.0,0.0,0.0,0.0,0.0,-1.6807,-1.8307,-1.9622,-2.0539,-2.0602,-2.1414,-2.3147,-2.4045,-2.4402,-2.4201,-2.5199,-2.5708,-2.5671,-2.4871,-2.45,-2.45,-2.45,-2.45,-2.45,-2.45,-2.45,-2.45,-2.45,-2.3981,0.0,0.0,0.0,0.0,0.0,0.0,0.0,0.0,-2.0484,-2.0786,-2.2456,-2.3006,-2.3171,-2.3969,-2.4921,-2.5702,-2.5683,-2.5853,-2.645,-2.8191,-3.0038,-3.2569,-3.6832,-3.7252,-3.7712,-4.1135,-4.1827,-4.2085,-4.2951,-4.3104,-4.3374,-4.4162,-4.5759,-4.6885,-4.6904,-4.7586,-4.8086,-4.8105,-4.8105,-4.8105,-4.8105,-4.8105,-4.8471,-4.9336,-4.9394,-4.976,-5.0635,-5.0673,-5.0673,-5.0673,-5.0673,-5.0673,-5.0693,-5.0693,-5.0693,-5.0712,-5.0712,-5.0712,-5.0712,-5.0712,-5.0712,-5.0693,-5.0776,-5.0801,-5.0793,-5.072,-5.0514,-5.0188,-4.9981,-4.9698,-4.9384,-4.9244,-4.9079,-4.8909,0.0,0.0,0.0,0.0,0.0,0.0,0.0,0.0,0.0,0.0,0.0,0.0,0.0,0.0,0.0,0.0,0.0,0.0,-1.779,-1.8754,-1.9508,-1.9885,-2.0985,-2.1557,-2.1513,-2.2877,-2.4122,-2.5264,-2.5551,-2.541,-2.4853,-2.4611,-2.45,-2.45,-2.45,-2.45,-2.45,-2.45,-2.45,-2.45,-2.45,-2.4351,0.0,0.0,0.0,0.0,0.0,0.0,0.0,0.0,0.0,0.0,-2.1804,-2.2923,-2.3896,-2.4135,-2.4808,-2.5364,-2.481,-2.6202,-2.8096,-2.9169,-3.2302,-3.577,-3.8289,-3.96,-4.1085,-4.3893,-4.3989,-4.3643,-4.3893,-4.3932,-4.4028,-4.4259,-4.524,-4.6201,-4.6817,-4.7096,-4.7471,-4.8029,-4.8105,-4.8336,-4.8952,-4.8471,-4.8471,-4.9336,-4.8836,-4.8606,-4.8856,-4.8875,-4.8875,-4.8875,-4.8875,-4.9163,-4.9779,-4.9779,-5.0087,-5.0712,-5.0712,-5.0712,-5.0712,-5.0712,-5.0712,-5.0702,-5.0775,-5.0838,-5.0863,-5.0861,-5.0738,-5.0516,-5.0237,-4.991,-4.9588,-4.9289,-4.9079,-4.8909,0.0,0.0,0.0,0.0,0.0,0.0,0.0,0.0,0.0,0.0,0.0,0.0,0.0,0.0,0.0,0.0,0.0,0.0,0.0,-1.9017,-1.9667,-2.0066,-2.1012,-2.1606,-2.1755,-2.3044,-2.4036,-2.4705,-2.5048,-2.4983,-2.45,-2.45,-2.4534,-2.4574,-2.4507,-2.4534,-2.4574,-2.4525,-2.45,-2.45,-2.45,-2.45,-2.4369,0.0,0.0,0.0,0.0,0.0,0.0,0.0,0.0,0.0,-2.1015,0.0,-2.2941,-2.4008,-2.4717,-2.5371,-2.6297,-2.7894,-2.9758,-3.1611,-3.4649,-3.793,-4.0662,-4.2066,-4.3335,-4.521,-4.4921,-4.4412,-4.4739,-4.4528,-4.4412,-4.4759,-4.5267,-4.5787,-4.6317,-4.6682,-4.7077,-4.7567,-4.7625,-4.7836,-4.8355,-4.7625,-4.7605,-4.8798,-4.8394,-4.8394,-4.9106,-4.8798,-4.8625,-4.8625,-4.8279,-4.8355,-4.8875,-4.8875,-4.9144,-4.9663,-4.9663,-4.9856,-5.0212,-5.0539,-5.0693,-5.0701,-5.0793,-5.0863,-5.0905,-5.0909,-5.0825,-5.0673,-5.0393,-5.0068,-4.974,-4.9396,-4.9179,-4.9012,0.0,0.0,0.0,0.0,0.0,0.0,0.0,0.0,0.0,0.0,0.0,0.0,0.0,0.0,0.0,0.0,0.0,0.0,0.0,0.0,-1.9961,-2.0752,-2.0938,-2.1736,-2.3277,-2.4026,-2.4026,-2.3314,-2.4119,-2.4471,-2.4414,-2.4488,-2.459,-2.4704,-2.4599,-2.4596,-2.4715,-2.4574,-2.4525,-2.4525,-2.4525,-2.4517,-2.4332,-2.2752,0.0,0.0,0.0,0.0,0.0,0.0,0.0,0.0,-2.0272,-2.0548,-2.1103,-2.3631,-2.454,-2.5489,-2.8905,-3.0092,-3.1187,-3.4614,-3.6974,-3.9508,-4.3508,-4.4412,-4.4643,-4.5441,-4.4979,-4.4662,-4.546,-4.496,-4.4682,-4.5479,-4.5594,-4.5594,-4.5594,-4.6278,-4.6817,-4.6885,-4.6904,-4.6923,-4.7,-4.622,-4.6355,-4.7875,-4.7913,-4.8567,-5.0154,-4.9471,-4.9048,-4.9048,-4.8298,-4.7913,-4.799,-4.799,-4.8029,-4.8105,-4.8105,-4.8509,-4.9317,-5.0183,-5.0625,-5.071,-5.0846,-5.0905,-5.0898,-5.0898,-5.0833,-5.0701,-5.0477,-5.0206,-4.9851,-4.9529,-4.9305,-4.9146,0.0,0.0,0.0,0.0,0.0,0.0,0.0,0.0,0.0,0.0,0.0,0.0,0.0,0.0,0.0,0.0,0.0,0.0,0.0,0.0,-1.9961,-2.0752,-2.2015,-2.3174,-2.4194,-2.3739,-2.3721,-2.4212,-2.4407,-2.4232,-2.3724,-2.4353,-2.4727,-2.4854,-2.4825,-2.4825,-2.4847,-2.4704,-2.4653,-2.4653,-2.4653,-2.4599,-2.4405,-2.3528,-2.2686,0.0,0.0,0.0,0.0,0.0,0.0,0.0,-2.0456,-2.0978,-2.1766,-2.2959,-2.3874,-2.4954,-2.7093,-2.8889,-3.0983,-3.442,-3.8661,-4.2585,-4.4806,-4.5325,-4.5364,-4.5556,-4.546,-4.5383,-4.5575,-4.546,-4.5383,-4.5575,-4.5594,-4.5594,-4.5594,-4.5768,-4.6124,-4.6817,-4.6904,-4.7154,-4.7778,-4.7105,-4.6778,-4.7135,-4.6528,-4.6306,-4.6691,-4.6518,-4.6422,-4.6422,-4.6249,-4.6471,-4.7154,-4.7154,-4.749,-4.8105,-4.8105,-4.8202,-4.8413,-4.9279,-5.0086,-5.0784,-5.0855,-5.0905,-5.0898,-5.0898,-5.0882,-5.0833,-5.0518,-5.0191,-4.9873,-4.9525,-4.9225,-4.896,0.0,0.0,0.0,0.0,0.0,0.0,0.0,0.0,0.0,0.0,0.0,0.0,0.0,0.0,0.0,0.0,0.0,0.0,0.0,-1.9609,-2.0128,-2.1328,-2.2553,-2.3407,-2.3869,-2.3499,-2.3324,-2.3411,-2.3847,-2.4073,-2.4095,-2.5005,-2.548,-2.5615,-2.5549,-2.5328,-2.5,-2.4847,-2.4549,-2.4221,-2.4624,-2.4505,-2.3998,-2.3239,-2.2368,-2.1413,-2.0532,0.0,0.0,0.0,0.0,0.0,0.0,0.0,-2.1444,-2.277,-2.3186,-2.4022,-2.752,-2.9863,-3.2535,-3.7693,-4.1056,-4.3547,-4.5229,-4.5594,-4.5594,-4.5594,-4.5594,-4.5594,-4.5594,-4.5594,-4.5594,-4.5594,-4.5594,-4.5594,-4.5594,-4.5594,-4.5768,-4.622,-4.6278,-4.6432,-4.6855,-4.6528,-4.6451,-4.6865,-4.649,-4.6394,-4.6778,-4.6432,-4.622,-4.622,-4.5825,-4.5825,-4.6278,-4.6278,-4.649,-4.6913,-4.7336,-4.774,-4.8125,-4.8595,-4.9111,-4.9605,-4.9647,-4.9919,-5.0318,-5.0318,-5.055,-5.0882,-5.0635,-5.0333,-5.0005,-4.9665,-4.9334,-4.9029,0.0,0.0,0.0,0.0,0.0,0.0,0.0,0.0,0.0,0.0,0.0,0.0,0.0,0.0,0.0,0.0,0.0,0.0,0.0,-1.9739,-2.0414,-2.1775,-2.2593,-2.3047,-2.3053,-2.3019,-2.2818,-2.2446,-2.3101,-2.4047,-2.5213,-2.5906,-2.6301,-2.6432,-2.632,-2.5774,-2.4922,-2.4772,-2.4208,-2.3487,-2.4208,-2.4055,-2.3303,-2.2526,-2.1727,-2.0895,-2.0013,-1.9708,-1.9797,-2.0397,0.0,0.0,0.0,0.0,-2.0809,-2.2351,-2.2438,-2.3053,-2.7872,-3.0996,-3.4454,-4.1022,-4.2874,-4.3508,-4.5037,-4.5498,-4.5594,-4.5594,-4.5594,-4.5594,-4.5594,-4.5594,-4.5594,-4.5594,-4.5594,-4.5594,-4.5594,-4.5594,-4.5594,-4.5594,-4.5594,-4.5594,-4.5594,-4.5594,-4.5893,-4.6624,-4.6682,-4.6971,-4.7625,-4.7048,-4.6682,-4.6682,-4.597,-4.5594,-4.5594,-4.5594,-4.5594,-4.5614,-4.6336,-4.7028,-4.7663,-4.7727,-4.7953,-4.8293,-4.8306,-4.8752,-4.9475,-4.9475,-4.9881,-5.0465,-5.0466,-5.0256,-4.9926,-4.976,-4.9469,-4.9113,0.0,0.0,0.0,0.0,0.0,0.0,0.0,0.0,0.0,0.0,-1.6329,-1.6551,-1.5963,-1.652,0.0,0.0,0.0,0.0,-1.9534,0.0,0.0,-2.1124,-2.1903,-2.2391,-2.25,-2.1771,-2.208,-2.3416,-2.2962,-2.4265,-2.7204,-2.6645,-2.645,-2.6575,-2.6545,-2.5686,-2.4217,-2.4036,-2.3479,-2.2748,-2.2863,-2.277,-2.2483,-2.1806,-2.1313,-2.0895,-2.0013,-2.0055,-2.0554,-2.0599,-2.1056,0.0,0.0,0.0,-2.0548,-2.0809,-2.1417,-2.2514,-2.4877,-2.9653,-3.51,-3.97,-4.197,-4.3335,-4.4259,-4.5056,-4.5594,-4.5594,-4.5594,-4.5594,-4.5594,-4.5594,-4.5594,-4.5594,-4.5594,-4.5594,-4.5594,-4.5594,-4.5594,-4.5594,-4.5594,-4.5594,-4.5594,-4.5594,-4.5652,-4.5768,-4.5768,-4.5825,-4.5941,-4.5825,-4.5768,-4.5768,-4.5671,-4.5594,-4.5594,-4.5594,-4.5594,-4.5594,-4.5729,-4.5825,-4.5941,-4.595,-4.681,-4.8293,-4.8301,-4.84,-4.8566,-4.8566,-4.8643,-4.8783,-4.9348,-4.9303,-4.8972,-4.9506,-4.9389,-4.8943,0.0,0.0,0.0,0.0,0.0,0.0,0.0,0.0,0.0,0.0,0.0,-1.6966,-1.6613,-1.6483,0.0,0.0,0.0,0.0,-1.9688,-2.0101,0.0,0.0,-2.1387,-2.1601,-2.1676,-2.1368,-2.1817,-2.3039,-2.2335,-2.4192,-2.8437,-2.8092,-2.8211,-2.8712,-2.8217,-2.7063,-2.5428,-2.4404,-2.3477,-2.2705,-2.2705,-2.3245,-2.3834,-2.2115,-2.1932,-2.2391,-2.0573,-2.0037,-2.0328,-2.112,-2.1626,-2.182,-2.1379,0.0,0.0,0.0,-2.0807,-2.2118,-2.6476,-3.0426,-3.446,-3.9281,-4.1073,-4.2104,-4.3893,-4.4605,-4.5017,-4.5498,-4.5594,-4.5594,-4.5594,-4.5594,-4.5594,-4.5594,-4.5594,-4.5594,-4.5594,-4.5594,-4.5594,-4.5594,-4.5594,-4.5594,-4.5594,-4.5594,-4.5594,-4.5594,-4.5594,-4.5594,-4.5594,-4.5594,-4.5594,-4.5594,-4.5594,-4.5594,-4.5594,-4.5594,-4.5845,-4.6317,-4.5825,-4.5864,-4.6317,-4.5825,-4.605,-4.6846,-4.6846,-4.7164,-4.7676,-4.7676,-4.7966,-4.8423,-4.8673,-4.8452,-4.8009,-4.8301,-4.8325,-4.824,0.0,0.0,0.0,0.0,0.0,0.0,0.0,0.0,0.0,0.0,0.0,0.0,-1.743,0.0,0.0,0.0,0.0,0.0,-1.9793,0.0,0.0,0.0,0.0,-2.0861,-2.0907,-2.0985,-2.146,-2.2312,-2.1993,-2.4216,-2.88,-2.9242,-3.0006,-3.1,-3.014,-2.8582,-2.6505,-2.5029,-2.4028,-2.3447,-2.3447,-2.4178,-2.5154,-2.3908,-2.4029,-2.4588,-2.2463,-2.1437,-2.1236,-2.2107,-2.2406,-2.2337,-2.2006,-2.191,0.0,0.0,0.0,-2.1515,-2.7283,-3.0057,-3.25,-3.7567,-3.9504,-4.0731,-4.2854,-4.3835,-4.447,-4.5152,-4.546,-4.5594,-4.5594,-4.5594,-4.5594,-4.5594,-4.5594,-4.5594,-4.5594,-4.5594,-4.5594,-4.5594,-4.5594,-4.5594,-4.5594,-4.5594,-4.5594,-4.5594,-4.5594,-4.5594,-4.5594,-4.5594,-4.5594,-4.5594,-4.5594,-4.5594,-4.5594,-4.5594,-4.5932,-4.6567,-4.5913,-4.5932,-4.6547,-4.5893,-4.5637,-4.5692,-4.57,-4.6237,-4.7076,-4.6864,-4.7154,-4.7753,-4.7921,-4.7683,-4.7198,-4.7345,-4.7429,-4.7483,0.0,0.0,0.0,0.0,0.0,0.0,0.0,0.0,0.0,0.0,0.0,0.0,-1.8339,-1.831,-1.8393,-1.8481,0.0,0.0,0.0,0.0,0.0,0.0,0.0,0.0,-2.0349,-2.0353,-2.0742,-2.1554,-2.235,-2.4529,-2.8011,-2.9596,-3.1192,-3.2737,-3.1929,-2.9717,-2.6544,-2.5635,-2.5212,-2.5173,-2.5173,-2.5231,-2.5558,-2.7832,-2.8205,-2.7375,-2.6425,-2.5444,-2.4509,-2.3767,-2.3479,-2.3276,-2.2433,-2.2182,-2.1836,0.0,0.0,0.0,-2.4845,-2.6862,-2.8812,-3.3161,-3.6773,-3.9527,-4.0489,-4.2574,-4.4316,-4.4355,-4.5017,-4.5594,-4.5594,-4.5594,-4.5594,-4.5594,-4.5594,-4.5594,-4.5594,-4.5594,-4.5594,-4.5594,-4.5594,-4.5594,-4.5594,-4.5594,-4.5594,-4.5594,-4.5594,-4.5594,-4.5594,-4.5594,-4.5594,-4.5594,-4.5594,-4.5594,-4.5594,-4.5594,-4.5614,-4.5671,-4.5614,-4.5614,-4.5671,-4.5614,-4.564,-4.5709,-4.5711,-4.6237,-4.7038,-4.6213,-4.5884,-4.6013,-4.6846,-4.6947,-4.671,-4.7215,-4.7208,-4.6919,0.0,0.0,0.0,0.0,0.0,0.0,0.0,0.0,0.0,0.0,0.0,0.0,0.0,-1.8909,-1.8842,-1.9341,-1.9523,0.0,0.0,0.0,0.0,0.0,0.0,0.0,0.0,-2.0308,-2.0692,-2.1504,-2.1293,-2.3216,-2.7082,-2.7678,-2.8852,-3.0473,-3.0737,-3.0192,-2.8846,-2.5813,-2.4832,-2.5308,-2.5308,-2.6269,-2.7775,-2.8184,-2.9142,-3.0016,-2.8057,-2.64,-2.5178,-2.5285,-2.458,-2.3466,-2.2508,-2.2203,-2.1838,-2.0024,-2.02,-2.1575,-2.4281,-2.6078,-2.7983,-3.1382,-3.4026,-3.6209,-3.7713,-4.0038,-4.2008,-4.2585,-4.3797,-4.4759,-4.4759,-4.5229,-4.5594,-4.5594,-4.5594,-4.5594,-4.5594,-4.5594,-4.5594,-4.5594,-4.5594,-4.5594,-4.5594,-4.5594,-4.5594,-4.5594,-4.5594,-4.5594,-4.5594,-4.5594,-4.5594,-4.5594,-4.5594,-4.5594,-4.5594,-4.5594,-4.5594,-4.5594,-4.5594,-4.5594,-4.5594,-4.5594,-4.5928,-4.6433,-4.5929,-4.6236,-4.7086,-4.676,-4.6624,-4.6653,-4.6924,-4.6516,-4.5791,-4.5941,-4.602,-4.6044,0.0,0.0,0.0,0.0,0.0,0.0,0.0,0.0,0.0,-1.7745,0.0,0.0,0.0,0.0,-1.9406,-1.9983,-2.0122,-2.0208,-2.0285,0.0,0.0,0.0,0.0,0.0,0.0,-2.0558,-2.0827,-2.1096,-2.1139,-2.2581,-2.5332,-2.6197,-2.7351,-2.8703,-2.9006,-2.9596,-3.0192,-2.7087,-2.6255,-2.7038,-2.7327,-2.8467,-3.0069,-3.0948,-3.1987,-3.2795,-3.1352,-2.9552,-2.7827,-2.7695,-2.6479,-2.4822,-2.3594,-2.2562,-2.1495,-1.995,-2.0377,-2.169,-2.3238,-2.4884,-2.6883,-2.9912,-3.1589,-3.3233,-3.5956,-3.7897,-3.9549,-4.1058,-4.2489,-4.3547,-4.3835,-4.4586,-4.5267,-4.5556,-4.5594,-4.5594,-4.5594,-4.5594,-4.5594,-4.5594,-4.5594,-4.5594,-4.5594,-4.5594,-4.5594,-4.5594,-4.5594,-4.5594,-4.5594,-4.5594,-4.5594,-4.5594,-4.5594,-4.5594,-4.5594,-4.5594,-4.5594,-4.5594,-4.5594,-4.5594,-4.5594,-4.5594,-4.592,-4.6446,-4.5924,-4.6232,-4.7102,-4.7071,-4.709,-4.7086,-4.6992,-4.6497,-4.5793,-4.5367,-4.525,-4.5315,0.0,0.0,0.0,0.0,0.0,0.0,0.0,0.0,-1.8569,-1.8729,0.0,0.0,0.0,0.0,0.0,-2.0357,-2.0346,-2.0346,-2.0346,-2.0308,0.0,0.0,0.0,0.0,-2.0308,-2.1077,-2.1077,-2.0308,-2.1927,-2.274,-2.2816,-2.5293,-2.6928,-2.7761,-2.6928,-2.7942,-3.0231,-2.9333,-2.9506,-3.0462,-3.1288,-3.1698,-3.2256,-3.6372,-3.6949,-3.5673,-3.6462,-3.5121,-3.2718,-3.1015,-2.927,-2.749,-2.5738,-2.329,-2.0846,-1.987,-2.0044,-2.0758,0.0,0.0,0.0,-2.8465,-2.9494,-3.0837,-3.507,-3.6148,-3.7023,-3.9746,-4.1046,-4.1962,-4.2854,-4.3701,-4.4547,-4.5421,-4.5575,-4.5594,-4.5594,-4.5594,-4.5594,-4.5594,-4.5594,-4.5594,-4.5594,-4.5594,-4.5594,-4.5594,-4.5594,-4.5594,-4.5594,-4.5594,-4.5594,-4.5594,-4.5594,-4.5594,-4.5594,-4.5594,-4.5594,-4.5594,-4.5594,-4.5594,-4.5594,-4.5594,-4.5594,-4.5594,-4.5676,-4.6213,-4.7055,-4.7028,-4.7047,-4.7109,-4.699,-4.6917,-4.6775,-4.5658,-4.506,-4.4763,0.0,0.0,0.0,0.0,0.0,-1.8335,-1.8612,-1.8631,-1.8904,0.0,0.0,0.0,-2.1057,-2.1084,-2.1383,-2.2043,-2.1523,-2.1173,-2.1173,-2.0615,-2.0308,-2.0308,-2.0308,-2.0308,-2.0308,-2.0519,-2.0519,-2.0308,-2.075,-2.1293,-2.1889,-2.2581,-2.3716,-2.5164,-2.5505,-2.6404,-2.7563,-2.6106,-2.739,-3.0365,-2.9987,-3.1679,-3.4577,-3.575,-3.6654,-3.7334,-3.7565,-3.6404,-3.4698,-3.4162,-3.2025,-2.9078,-2.6126,-2.3737,-2.1947,-2.1558,-2.1924,-2.2479,-2.2629,0.0,0.0,0.0,0.0,0.0,-2.9431,-3.1271,-3.3272,-3.5308,-3.7502,-3.9504,-4.095,-4.2431,-4.3701,-4.4528,-4.519,-4.5594,-4.5594,-4.5594,-4.5594,-4.5594,-4.5594,-4.5594,-4.5594,-4.5594,-4.5594,-4.5594,-4.5594,-4.5594,-4.5594,-4.5594,-4.5594,-4.5594,-4.5594,-4.5594,-4.5594,-4.5594,-4.5594,-4.5594,-4.5594,-4.5594,-4.5594,-4.5594,-4.5594,-4.5594,-4.5622,-4.58,-4.6127,-4.6761,-4.7351,-4.7893,-4.7848,-4.7467,-4.6864,-4.655,-4.5736,-4.4788,0.0,0.0,0.0,0.0,0.0,-1.9879,-2.0273,-2.0335,-2.0546,0.0,0.0,0.0,-2.2038,-2.237,-2.2643,-2.2797,-2.2004,-2.1504,-2.1504,-2.075,-2.0308,-2.0308,-2.0615,-2.0808,-2.0808,-2.1158,-2.1158,-2.0808,-2.0808,-2.0865,-2.1,-2.135,-2.2043,-2.3047,-2.3505,-2.4409,-2.5471,-2.4125,-2.601,-2.9948,-3.0858,-3.2718,-3.5103,-3.6546,-3.7469,-3.8084,-3.8796,-3.7969,-3.6531,-3.6466,-3.3909,-3.0221,-2.7135,-2.5152,-2.3739,-2.2471,-2.2898,-2.3704,-2.3548,-2.3841,-2.4457,-2.5549,0.0,0.0,-2.8298,-2.9453,-3.0853,-3.3455,-3.5564,-3.7358,-3.8681,-4.0604,-4.2162,-4.2643,-4.3739,-4.4806,-4.5498,-4.5594,-4.5594,-4.5594,-4.5594,-4.5594,-4.5594,-4.5594,-4.5594,-4.5594,-4.5594,-4.5594,-4.5594,-4.5594,-4.5594,-4.5594,-4.5594,-4.5594,-4.5594,-4.5594,-4.5594,-4.5594,-4.5594,-4.5594,-4.5594,-4.5594,-4.5594,-4.5594,-4.5594,-4.5631,-4.5695,-4.6202,-4.6915,-4.7696,-4.8025,-4.7633,-4.6904,-4.6904,-4.6069,-4.4962,0.0,0.0,-2.0354,-2.1225,-2.1382,-2.1662,-2.2487,-2.2617,-2.2705,0.0,-2.3028,-2.3144,-2.3355,-2.3894,-2.3952,-2.3278,-2.2331,-2.1754,-2.1658,-2.0885,-2.0385,-2.0308,-2.1077,-2.1466,-2.137,-2.2312,-2.2331,-2.137,-2.1466,-2.1096,-2.0327,-2.1019,-2.137,-2.137,-2.1466,-2.2408,-2.3918,-2.3432,-2.5548,-2.9511,-3.2551,-3.4129,-3.4956,-3.7995,-3.8796,-3.8469,-3.9977,-3.9534,-3.825,-3.7982,-3.5251,-3.1481,-2.8793,-2.7407,-2.6231,-2.3416,-2.3726,-2.4905,-2.4607,-2.4587,-2.511,-2.7077,-2.6211,0.0,-2.9355,-2.9264,-2.9374,-3.2651,-3.4059,-3.5028,-3.6034,-3.8136,-3.9796,-3.9961,-4.1476,-4.3261,-4.5066,-4.5325,-4.5364,-4.546,-4.546,-4.5498,-4.5594,-4.5594,-4.5594,-4.5594,-4.5594,-4.5594,-4.5594,-4.5594,-4.5594,-4.5594,-4.5594,-4.5594,-4.5594,-4.5594,-4.5594,-4.5594,-4.5594,-4.5594,-4.5594,-4.5594,-4.5594,-4.5594,-4.5594,-4.5594,-4.5594,-4.5594,-4.6112,-4.6985,-4.7788,-4.7663,-4.7019,-4.7019,-4.6321,-4.5284,0.0,-2.1149,-2.1453,-2.234,-2.2493,-2.256,-2.2732,-2.2751,-2.3029,-2.3759,-2.4409,-2.5346,-2.676,-2.5793,-2.5269,-2.5813,-2.4471,-2.3297,-2.2586,-2.1735,-2.0981,-2.0327,-2.1077,-2.1196,-2.0558,-2.2023,-2.2062,-2.0538,-2.1173,-2.1096,-2.0308,-2.0462,-2.0538,-2.0558,-2.1212,-2.2081,-2.3182,-2.5063,-2.7525,-3.0192,-3.0865,-3.3603,-3.7334,-3.8007,-3.8988,-4.0054,-4.0381,-4.0285,-3.9788,-3.8385,-3.684,-3.4934,-3.1665,-3.0512,-2.9854,-2.7145,-2.7067,-2.7697,-2.6848,-2.6972,-2.7127,-2.6312,-2.7588,0.0,-2.6047,-2.685,-2.8156,-2.8347,-2.9158,-3.0541,-3.2759,-3.4144,-3.537,-3.6673,-3.8478,-4.0628,-4.3222,-4.3585,-4.3835,-4.447,-4.4547,-4.4816,-4.5537,-4.5594,-4.5594,-4.5594,-4.5594,-4.5594,-4.5594,-4.5594,-4.5594,-4.5594,-4.5594,-4.5594,-4.5594,-4.5594,-4.5594,-4.5594,-4.5594,-4.5594,-4.5594,-4.5594,-4.5594,-4.5594,-4.5594,-4.5594,-4.5594,-4.5594,-4.6114,-4.698,-4.7798,-4.8009,-4.7875,-4.7875,-4.7175,-4.6116,-2.1272,-2.182,-2.2427,-2.3297,-2.3451,-2.3586,-2.3985,-2.4043,-2.4524,-2.5818,-2.7063,-2.7865,-2.789,-2.7121,-2.6601,-2.6601,-2.5067,-2.3918,-2.3471,-2.2235,-2.1331,-2.0923,-2.1273,-2.1504,-2.1543,-2.1947,-2.1947,-2.1543,-2.1119,-2.0692,-2.0308,-2.0308,-2.075,-2.1543,-2.1504,-2.2447,-2.4101,-2.4986,-2.6813,-2.939,-3.1923,-3.5238,-3.8738,-3.9585,-4.0681,-4.1797,-4.1797,-4.15,-4.0765,-3.8623,-3.7573,-3.6629,-3.3647,-3.2963,-3.2676,-2.9566,-2.9262,-2.9637,-2.819,-2.7733,-2.7755,-2.8194,-2.8501,0.0,0.0,-2.7651,-2.7893,-2.8889,-2.8787,-2.9196,-3.1276,-3.2362,-3.3345,-3.4567,-3.6377,-3.8094,-3.9384,-4.1611,-4.3258,-4.3643,-4.3701,-4.3874,-4.4316,-4.4355,-4.4509,-4.4921,-4.496,-4.5152,-4.5575,-4.5594,-4.5594,-4.5594,-4.5594,-4.5594,-4.5594,-4.5594,-4.5594,-4.5594,-4.5594,-4.5594,-4.5594,-4.5594,-4.5594,-4.5594,-4.5594,-4.5594,-4.5594,-4.5594,-4.5864,-4.6336,-4.7182,-4.724,-4.6942,-4.7635,-4.7035,-4.5789,-2.1483,-2.2197,-2.3067,-2.3956,-2.4221,-2.4548,-2.5192,-2.5308,-2.5981,-2.7876,-2.9602,-3.025,-2.9242,-2.8953,-2.864,-2.8102,-2.6222,-2.4995,-2.4841,-2.3197,-2.21,-2.1754,-2.1908,-2.2177,-2.2547,-2.2197,-2.21,-2.2316,-2.1119,-2.0442,-2.0308,-2.0308,-2.11,-2.2528,-2.1985,-2.3077,-2.5269,-2.4798,-2.6337,-2.9473,-3.3583,-3.6372,-3.8322,-4.0489,-4.1758,-4.2431,-4.2912,-4.2599,-4.1615,-3.9372,-3.8586,-3.8087,-3.5517,-3.5264,-3.5261,-3.1906,-3.154,-3.1857,-3.017,-2.9328,-2.9235,-3.0611,-2.9897,-2.9115,0.0,0.0,0.0,-3.0088,-2.9271,-2.8724,-3.0178,-3.0856,-3.1469,-3.2269,-3.4026,-3.5229,-3.5009,-3.8603,-4.1445,-4.1935,-4.2206,-4.2481,-4.2755,-4.253,-4.2835,-4.397,-4.3605,-4.3932,-4.5287,-4.5344,-4.5441,-4.5594,-4.5594,-4.5594,-4.5594,-4.5594,-4.5594,-4.5594,-4.5594,-4.5594,-4.5594,-4.5594,-4.5594,-4.5594,-4.5594,-4.5594,-4.5594,-4.5594,-4.5594,-4.5691,-4.6567,-4.6471,-4.5991,-4.7143,-4.6743,-4.5652,-2.1487,-2.2197,-2.3067,-2.3956,-2.4697,-2.5192,-2.5288,-2.5308,-2.6173,-2.8646,-3.0467,-3.2045,-3.334,-3.2795,-3.2602,-3.3282,-3.0396,-2.8222,-2.753,-2.5851,-2.4212,-2.272,-2.3394,-2.3124,-2.1677,-2.3067,-2.2759,-2.0577,-2.1119,-2.1,-2.0308,-2.0308,-2.0769,-2.1677,-2.235,-2.3639,-2.5346,-2.6024,-2.9083,-3.3532,-3.4109,-3.4064,-3.4064,-3.8065,-3.965,-4.0035,-4.2297,-4.2983,-4.2699,-4.163,-4.1213,-4.0709,-3.8101,-3.7865,-3.8047,-3.5384,-3.5223,-3.5673,-3.4702,-3.4753,-3.4463,-3.1826,-3.2958,-3.3486,-2.8739,0.0,-2.987,-2.8033,0.0,-2.7364,-2.8248,0.0,0.0,-2.8323,-3.0083,-3.1342,-3.1311,-3.3252,-3.5485,-3.7699,-3.9012,-4.0249,-4.1541,-4.0513,-4.07,-4.3066,-4.1143,-4.1208,-4.4278,-4.4451,-4.4797,-4.5575,-4.5594,-4.5594,-4.5594,-4.5594,-4.5594,-4.5594,-4.5594,-4.5594,-4.5594,-4.5594,-4.5594,-4.5594,-4.5594,-4.5594,-4.5594,-4.5594,-4.5594,-4.5691,-4.6567,-4.6827,-4.6769,-4.6924,-4.7173,-4.7163,-2.14,-2.2605,-2.3663,-2.4033,-2.4774,-2.5308,-2.5308,-2.7404,-2.9212,-2.9775,-3.2212,-3.4173,-3.4891,-3.3737,-3.3449,-3.4834,-3.2718,-3.0756,-2.9448,-2.7755,-2.6274,-2.5063,-2.3932,-2.3471,-2.3692,-2.2966,-2.2316,-2.1754,-2.1119,-2.0635,-2.0308,-2.0769,-2.1716,-2.3067,-2.4409,-2.6217,-2.825,-2.8102,-2.9583,-3.2083,-3.3045,-3.3237,-3.3526,-3.9315,-4.2104,-4.3036,-4.3585,-4.3788,-4.3464,-4.164,-4.1294,-4.129,-3.9176,-3.9075,-3.9355,-3.7254,-3.691,-3.691,-3.5572,-3.5742,-3.5881,-3.3993,-3.4115,-3.3949,-3.1051,-2.9889,-2.9373,-2.9298,0.0,0.0,0.0,0.0,0.0,0.0,-2.8621,-2.92,-2.9034,-3.0387,-3.2502,-3.5495,-3.5929,-3.667,-3.8425,-3.7694,-3.8142,-4.07,-3.9431,-3.9815,-4.2701,-4.3778,-4.447,-4.4836,-4.5344,-4.5594,-4.5594,-4.5594,-4.5594,-4.5594,-4.5594,-4.5594,-4.5594,-4.5594,-4.5594,-4.5594,-4.5594,-4.5594,-4.5594,-4.5594,-4.5594,-4.5633,-4.599,-4.6144,-4.6192,-4.6503,-4.6356,-4.6022,-2.1735,-2.2874,-2.3744,-2.3744,-2.4601,-2.5385,-2.5615,-2.8506,-3.0679,-3.075,-3.3538,-3.5769,-3.6462,-3.5603,-3.568,-3.7423,-3.5565,-3.3776,-3.2558,-3.0256,-2.8659,-2.8025,-2.5563,-2.4659,-2.5635,-2.3615,-2.2639,-2.2797,-2.1581,-2.0985,-2.1004,-2.1581,-2.2663,-2.4187,-2.6101,-2.8236,-3.0404,-3.0467,-3.1391,-3.2949,-3.416,-3.5199,-3.6526,-4.1027,-4.3932,-4.5518,-4.4874,-4.4662,-4.4335,-4.225,-4.1923,-4.2122,-4.059,-4.0528,-4.0692,-3.9183,-3.8916,-3.8725,-3.7063,-3.7207,-3.7427,-3.5579,-3.4674,-3.3819,-3.2219,-3.0737,-2.9927,-3.064,-2.9667,0.0,0.0,0.0,0.0,0.0,0.0,-2.7869,-2.7224,-2.7979,-2.9672,-3.255,-3.3063,-3.3845,-3.5541,-3.4672,-3.5278,-3.8308,-3.7127,-3.7796,-4.1258,-4.2604,-4.3585,-4.4278,-4.4913,-4.5364,-4.5594,-4.5594,-4.5594,-4.5594,-4.5594,-4.5594,-4.5594,-4.5594,-4.5594,-4.5594,-4.5594,-4.5594,-4.5594,-4.5594,-4.5594,-4.5594,-4.5594,-4.5559,-4.5534,-4.5931,-4.5666,-4.5262,-2.2759,-2.2797,-2.2836,-2.2836,-2.4197,-2.5577,-2.6428,-2.739,-2.889,-3.1333,-3.3904,-3.6442,-3.8919,-3.9823,-4.0958,-4.2701,-3.9777,-3.7815,-3.7757,-3.3872,-3.1564,-3.1545,-2.9102,-2.7371,-2.6582,-2.5654,-2.4404,-2.2797,-2.2759,-2.272,0.0,0.0,-2.324,-2.4206,-2.6722,-2.8794,-3.0558,-3.3006,-3.5956,-3.9015,-3.9073,-4.1027,-4.3778,-4.2374,-4.3412,-4.5594,-4.5575,-4.5556,-4.5413,-4.4495,-4.4162,-4.3953,-4.2986,-4.2699,-4.2545,-4.1628,-4.1972,-4.2278,-4.0587,-4.0731,-4.0301,-3.5998,-3.4888,-3.396,-3.049,-3.1437,-3.2625,-3.1099,-3.2434,-3.3401,-3.1885,-3.0787,0.0,0.0,0.0,0.0,0.0,-2.5505,-2.617,-2.7928,-3.0499,-3.2561,-3.3591,-3.1615,-3.2022,-3.628,-3.369,-3.443,-4.0227,-4.0593,-4.1747,-4.422,-4.4335,-4.4739,-4.5594,-4.5594,-4.5594,-4.5594,-4.5594,-4.5594,-4.5594,-4.5594,-4.5594,-4.5594,-4.5594,-4.5594,-4.5594,-4.5594,-4.5594,-4.5594,-4.5594,-4.5438,-4.5211,-4.522,-4.5552,-4.5931,-2.2797,-2.3259,-2.3663,-2.3663,-2.4562,-2.5962,-2.7948,-2.9929,-3.2122,-3.468,-3.6757,-3.8988,-4.1546,-4.1546,-4.2047,-4.3739,-4.2354,-4.0893,-3.9727,-3.7276,-3.5603,-3.5019,-3.2064,-3.0275,-2.9987,-2.7462,-2.5596,-2.4442,-2.3331,-2.2797,0.0,0.0,0.0,-2.4264,-2.7928,-3.0487,-3.2218,-3.4776,-3.6853,-3.8546,-3.965,-4.2132,-4.5094,-4.4528,-4.4863,-4.5594,-4.5594,-4.5594,-4.5547,-4.5269,-4.4726,-4.4154,-4.3828,-4.3302,-4.2737,-4.245,-4.2565,-4.2679,-4.2106,-4.2545,-4.2258,-3.8546,-3.7174,-3.5815,-3.2266,-3.2362,-3.2713,-3.0953,-3.2364,-3.341,-3.1802,-3.0802,0.0,0.0,0.0,0.0,0.0,-2.4934,-2.5017,-2.6103,-2.8655,-3.0283,-3.0178,-3.0083,-3.1126,-3.3785,-3.3056,-3.4103,-3.7796,-3.9592,-4.117,-4.2604,-4.372,-4.472,-4.5594,-4.5594,-4.5594,-4.5594,-4.5594,-4.5594,-4.5594,-4.5594,-4.5594,-4.5594,-4.5594,-4.5594,-4.5594,-4.5594,-4.5594,-4.5594,-4.5594,-4.5429,-4.5201,-4.5201,-4.5079,-4.5001,-2.3755,-2.4139,-2.4432,-2.4149,-2.5274,-2.6871,-2.8819,-3.1531,-3.416,-3.6404,-3.8469,-4.0593,-4.2854,-4.2854,-4.3258,-4.4643,-4.3989,-4.2931,-4.1516,-3.9835,-3.8642,-3.8084,-3.5103,-3.3487,-3.3487,-3.0429,-2.8121,-2.6659,-2.5274,-2.4298,0.0,0.0,0.0,0.0,-2.8635,-3.1327,-3.3122,-3.6584,-3.8738,-3.995,-4.1651,-4.3632,-4.5594,-4.5594,-4.5594,-4.5594,-4.5594,-4.5594,-4.5594,-4.5594,-4.5158,-4.4633,-4.4633,-4.4202,-4.3634,-4.3329,-4.3443,-4.3558,-4.2966,-4.3386,-4.3251,-4.0129,-3.8928,-3.7566,-3.3999,-3.4133,-3.4517,-3.2761,-3.366,-3.4666,-3.4225,-3.2446,0.0,0.0,0.0,0.0,0.0,-2.453,-2.4392,-2.4915,-2.6763,-2.81,-2.8315,-2.8436,-2.9544,-3.2048,-3.2056,-3.3217,-3.6115,-3.8392,-4.0142,-4.1296,-4.2989,-4.4278,-4.5133,-4.546,-4.5594,-4.5594,-4.5594,-4.5594,-4.5594,-4.5594,-4.5594,-4.5594,-4.5594,-4.5594,-4.5594,-4.5594,-4.5594,-4.5586,-4.5495,-4.5283,-4.5063,-4.5063,-4.4903,-4.4778,-2.5538,-2.5423,-2.525,-2.4471,-2.6279,-2.8165,-2.9146,-3.2089,-3.4853,-3.6661,-3.9065,-4.1285,-4.3028,-4.3912,-4.4701,-4.5537,-4.4836,-4.4047,-4.3278,-4.1631,-4.0689,-4.0689,-3.8296,-3.6904,-3.6827,-3.4295,-3.1737,-2.9223,-2.8299,-2.6986,0.0,0.0,0.0,0.0,-2.8827,-3.1288,-3.3237,-3.8245,-4.1458,-4.3297,-4.494,-4.5594,-4.5594,-4.5594,-4.5594,-4.5594,-4.5594,-4.5594,-4.5594,-4.5594,-4.5513,-4.541,-4.541,-4.5351,-4.5135,-4.4322,-4.4647,-4.4953,-4.3367,-4.3482,-4.3441,-4.0847,-4.014,-3.9157,-3.5665,-3.6705,-3.7948,-3.6242,-3.6391,-3.7241,-3.8645,-3.5507,-3.2417,0.0,0.0,0.0,0.0,-2.4337,-2.4318,-2.4318,-2.5046,-2.6197,-2.783,-2.6745,-2.7415,-3.0985,-3.0602,-3.1743,-3.5243,-3.6988,-3.8661,-4.04,-4.2162,-4.3489,-4.4297,-4.5171,-4.5594,-4.5594,-4.5594,-4.5594,-4.5594,-4.5594,-4.5594,-4.5594,-4.5594,-4.5594,-4.5594,-4.5594,-4.5594,-4.5577,-4.5312,-4.503,-4.4776,-4.4763,-4.4956,-4.5249,-2.6308,-2.7274,-2.8068,-2.7857,-2.7332,-2.8063,-3.141,-3.3224,-3.5475,-3.9073,-4.1219,-4.3085,-4.4767,-4.5152,-4.5364,-4.5575,-4.5402,-4.519,-4.4979,-4.3932,-4.3316,-4.3316,-4.1508,-3.9912,-3.8661,-3.5488,-3.2929,-3.1025,-2.8275,-2.6697,-2.625,0.0,0.0,0.0,0.0,-3.0717,-3.3141,-3.7007,-4.07,-4.4085,-4.5171,-4.5594,-4.5594,-4.5594,-4.5594,-4.5594,-4.5594,-4.5594,-4.5594,-4.5594,-4.5531,-4.5476,-4.5419,-4.54,-4.532,-4.5039,-4.5125,-4.5211,-4.4781,-4.48,-4.4656,-4.3316,-4.2047,-4.0672,-3.8997,-3.9338,-3.952,-3.7735,-3.8748,-3.9145,-3.6541,-3.5133,-3.3537,0.0,0.0,0.0,0.0,-2.6355,-2.5988,-2.5988,-2.6182,-2.6031,-2.53,-2.679,-2.8226,-2.9236,-2.9965,-3.1571,-3.4372,-3.5565,-3.7219,-3.9534,-4.1873,-4.3489,-4.4297,-4.5171,-4.5594,-4.5594,-4.5594,-4.5594,-4.5594,-4.5594,-4.5594,-4.5594,-4.5594,-4.5594,-4.5594,-4.5594,-4.5594,-4.5577,-4.5312,-4.4908,-4.4479,-4.4279,-4.4255,-4.4506,-2.7178,-2.8813,-3.0467,-3.1204,-3.055,-3.0852,-3.3622,-3.5084,-3.6976,-4.0092,-4.2316,-4.397,-4.494,-4.6028,-4.6682,-4.6682,-4.6682,-4.6528,-4.6182,-4.5701,-4.5278,-4.4874,-4.3605,-4.245,-4.1508,-3.8515,-3.5776,-3.3365,-3.0314,-2.8063,-2.6582,0.0,0.0,0.0,0.0,-3.0319,-3.2699,-3.7584,-4.147,-4.4374,-4.5248,-4.5594,0.0,-4.5594,-4.5594,-4.5594,-4.5594,-4.5594,-4.5594,-4.5594,-4.5559,-4.5495,-4.5467,-4.5429,-4.5398,-4.5348,-4.5317,-4.5307,-4.5307,-4.5307,-4.5182,-4.4685,-4.3864,-4.2792,-4.1326,-4.1191,-4.1023,-3.9879,-3.9935,-3.981,-3.86,-3.6237,-3.3298,-2.9732,0.0,-2.7273,-2.7273,-2.6888,-2.6465,-2.6117,-2.6392,-2.598,-2.4357,-2.6077,-2.7478,-2.799,-2.8979,-3.0392,-3.2307,-3.4613,-3.6581,-3.8123,-4.1373,-4.3316,-4.3778,-4.4998,-4.5594,-4.5594,-4.5594,-4.5594,-4.5594,-4.5594,-4.5594,-4.5594,-4.5594,-4.5594,-4.5594,-4.5594,-4.5594,-4.5568,-4.518,-4.4701,-4.4206,-4.4048,-4.4005,-4.4191,-2.839,-3.0525,-3.2776,-3.4122,-3.4725,-3.5353,-3.6346,-3.7642,-3.9104,-4.0785,-4.322,-4.4797,-4.4797,-4.6778,-4.8105,-4.8105,-4.8105,-4.7798,-4.7096,-4.7058,-4.6663,-4.5806,-4.5047,-4.4528,-4.4297,-4.1805,-3.8854,-3.55,-3.2827,-2.9833,0.0,0.0,0.0,0.0,0.0,-3.014,-3.2622,-3.9058,-4.272,-4.422,-4.521,-4.5594,-4.5594,-4.5594,-4.5594,-4.5594,-4.5594,-4.5594,-4.5594,-4.5594,-4.5568,-4.5513,-4.5504,-4.5458,-4.5399,-4.5408,-4.5348,-4.5307,-4.5307,-4.5307,-4.5307,-4.5307,-4.5307,-4.4834,-4.3092,-4.2628,-4.2509,-4.2275,-4.0808,-4.0137,-4.1991,-3.7751,-3.2706,-2.8888,-2.7677,-2.7273,-2.7372,-2.7189,-2.6778,-2.5962,-2.6576,0.0,-2.452,-2.5273,-2.6204,-2.7035,-2.7757,-2.8794,-3.019,-3.375,-3.6085,-3.6846,-4.0816,-4.2972,-4.3052,-4.4731,-4.5577,-4.5559,-4.5577,-4.5594,-4.5594,-4.5594,-4.5594,-4.5594,-4.5594,-4.5594,-4.5594,-4.5594,-4.5559,-4.5438,-4.4985,-4.4471,-4.4005,-4.4005,-4.3989,-4.4119,-3.1025,-3.3622,-3.5712,-3.5346,-3.7565,-3.9938,-4.1527,-4.1412,-4.1739,-4.3412,-4.5855,-4.7432,-4.7432,-4.7836,-4.8105,-4.8105,-4.8105,-4.8048,-4.7894,-4.7894,-4.7528,-4.6721,-4.6528,-4.5778,-4.4335,-4.1805,-3.8854,-3.55,-3.2231,-2.925,0.0,0.0,0.0,0.0,0.0,0.0,-3.5135,-3.9827,-4.2374,-4.3431,-4.4979,-4.5594,-4.5594,-4.5594,-4.5594,-4.5594,-4.5594,-4.5594,-4.5594,-4.5594,-4.5586,-4.5577,-4.5513,-4.5438,-4.54,-4.5399,-4.5348,-4.5307,-4.5307,-4.5307,-4.5307,-4.5307,-4.5307,-4.522,-4.4853,-4.439,-4.4006,-4.3965,-4.3314,-4.2241,-4.0675,-3.7305,-3.3903,-3.1213,-3.0662,-3.0797,-3.1463,-3.0399,-2.9274,-2.8473,-2.909,-2.8411,-2.5466,-2.6098,-2.6496,-2.6024,-2.6255,-2.7828,-3.0992,-3.1878,-3.3949,-3.7654,-4.0546,-4.227,-4.2776,-4.4641,-4.5495,-4.5263,-4.5495,-4.5594,-4.5594,-4.5594,-4.5594,-4.5594,-4.5594,-4.5594,-4.5594,-4.5594,-4.5342,-4.4938,-4.4837,-4.4471,-4.4005,-4.4005,-4.3958,-4.4059,-3.5468,-3.693,-3.8334,-3.9277,-4.0777,-4.2412,-4.4143,-4.5163,-4.5566,-4.5028,-4.6432,-4.749,-4.749,-4.8663,-4.9452,-4.9452,-4.9452,-4.9452,-4.9452,-4.9029,-4.8606,-4.8221,-4.7759,-4.6932,-4.5682,-4.3989,-4.1066,-3.6796,-3.3814,-3.0621,-2.7255,0.0,0.0,-2.6115,0.0,-3.2833,-3.7026,-4.0385,-4.2547,-4.3835,-4.5094,-4.5594,-4.5594,-4.5594,-4.5594,-4.5594,-4.5594,-4.5594,-4.5594,-4.5594,-4.5594,-4.5586,-4.5568,-4.5485,-4.54,-4.539,-4.535,-4.5307,-4.5307,-4.5307,-4.5307,-4.5307,-4.5307,-4.5256,-4.5087,-4.4819,-4.4519,-4.425,-4.3952,-4.2977,-4.0388,-3.7588,-3.5147,-3.3532,-3.2577,-3.2173,-3.2546,-3.1922,-3.084,-2.9189,-2.9702,-2.8943,-2.5705,-2.6212,-2.6235,-2.5014,-2.5452,-2.6923,-2.9559,-3.0937,-3.3268,-3.6803,-3.9964,-4.1934,-4.2639,-4.4603,-4.555,-4.541,-4.555,-4.5594,-4.5594,-4.5594,-4.5594,-4.5594,-4.5594,-4.5594,-4.5586,-4.5448,-4.5169,-4.4776,-4.465,-4.4346,-4.4005,-4.3958,-4.3929,-4.3952,-3.9565,-4.0123,-4.0989,-4.3008,-4.3797,-4.4605,-4.5932,-4.8144,-4.8894,-4.6691,-4.7163,-4.7721,-4.7721,-4.949,-5.0712,-5.0712,-5.0712,-5.0712,-5.0712,-5.0048,-4.9586,-4.9413,-4.874,-4.7913,-4.6923,-4.6047,-4.319,-3.8277,-3.5892,-3.2564,-2.839,0.0,0.0,-2.7852,-3.1737,-3.5257,-3.843,-4.1008,-4.2951,-4.4374,-4.5248,-4.5594,-4.5594,-4.5594,-4.5594,-4.5594,-4.5594,-4.5594,-4.5594,-4.5594,-4.5594,-4.5594,-4.5594,-4.5504,-4.54,-4.54,-4.5351,-4.5307,-4.5307,-4.5307,-4.5307,-4.5307,-4.5307,-4.5205,-4.4868,-4.4751,-4.4572,-4.4109,-4.3942,-4.309,-4.0386,-3.8487,-3.6817,-3.5261,-3.4087,-3.3261,-3.2913,-3.2858,-3.2014,-2.9776,-2.9922,-2.9072,-2.6182,-2.6172,-2.5823,-2.4538,-2.4977,-2.621,-2.8258,-3.0117,-3.2504,-3.5551,-3.9041,-4.1217,-4.1996,-4.4393,-4.5568,-4.5513,-4.5577,-4.5594,-4.5594,-4.5594,-4.5568,-4.5513,-4.5513,-4.5485,-4.5419,-4.5201,-4.4973,-4.4688,-4.4465,-4.4206,-4.3958,-4.3897,-4.3849,-4.3851,-4.1519,-4.2797,-4.3912,-4.4143,-4.6105,-4.7682,-4.7836,-4.9413,-5.0212,-4.9183,-4.9798,-5.0346,-5.0346,-5.0558,-5.0712,-5.0712,-5.0712,-5.0712,-5.0712,-5.0616,-5.0231,-4.9433,-4.9317,-4.8529,-4.6923,-4.6047,-4.3498,-3.9188,-3.7353,-3.4308,-3.0154,-2.9198,-2.9621,-3.1333,-3.4058,-3.6719,-3.9361,-4.1893,-4.3489,-4.4374,-4.5248,-4.5594,-4.5594,-4.5594,-4.5594,-4.5594,-4.5594,-4.5594,-4.5594,-4.5594,-4.5594,-4.5594,-4.5594,-4.5504,-4.54,-4.54,-4.5351,-4.5307,-4.5307,-4.5307,-4.5307,-4.5307,-4.5307,-4.5205,-4.4868,-4.4612,-4.436,-4.4064,-4.3765,-4.2796,-4.0357,-4.0304,-3.9407,-3.5628,-3.5536,-3.5422,-3.3899,-3.3697,-3.3054,-3.1378,-3.0595,-2.9512,-2.7761,-2.6329,-2.5448,-2.5301,-2.4686,-2.5781,-2.9099,-2.8801,-3.0461,-3.4678,-3.7633,-3.9443,-4.0054,-4.3742,-4.5485,-4.5232,-4.5485,-4.5594,-4.5594,-4.5594,-4.5476,-4.5232,-4.5232,-4.5096,-4.4861,-4.4837,-4.4676,-4.4425,-4.4346,-4.4151,-4.3897,-4.3818,-4.3736,-4.3726,-4.4759,-4.497,-4.5547,-4.7086,-4.7375,-4.7894,-4.9433,-5.025,-5.0577,-5.0231,-5.0481,-5.0712,-5.0712,-5.0712,-5.0712,-5.0712,-5.0712,-5.0712,-5.0712,-5.0712,-5.0539,-5.0212,-5.0183,-4.9625,-4.8432,-4.7548,-4.5297,-4.1585,-3.9354,-3.6603,-3.3423,-3.2025,-3.2564,-3.4808,-3.7353,-3.9642,-4.1681,-4.3181,-4.4316,-4.5114,-4.546,-4.5594,-4.5594,-4.5594,-4.5594,-4.5594,-4.5594,-4.5594,-4.5594,-4.5594,-4.5594,-4.5594,-4.5594,-4.5504,-4.54,-4.54,-4.5351,-4.5307,-4.5307,-4.5307,-4.5307,-4.5307,-4.5307,-4.5256,-4.5121,-4.4856,-4.4559,-4.4308,-4.3841,-4.3221,-4.2248,-4.113,-4.001,-3.8839,-3.7734,-3.6629,-3.5459,-3.5293,-3.4504,-3.2375,-3.1403,-3.0283,-2.8686,-2.7053,-2.6117,-2.6117,-2.4924,-2.5222,-2.7584,-2.8342,-2.9913,-3.2634,-3.7014,-3.9445,-3.9687,-4.3579,-4.5495,-4.5371,-4.5522,-4.5594,-4.5586,-4.5429,-4.5211,-4.4962,-4.4927,-4.4861,-4.4776,-4.4572,-4.4443,-4.4318,-4.4094,-4.3945,-4.3818,-4.3736,-4.3945,-4.4427,-4.7471,-4.7144,-4.7364,-4.9413,-4.8798,-4.8625,-5.0442,-5.0712,-5.0712,-5.0712,-5.0712,-5.0712,-5.0712,-5.0712,-5.0712,-5.0712,-5.0712,-5.0712,-5.0712,-5.0712,-5.0712,-5.0712,-5.0712,-5.0289,-4.9413,-4.8798,-4.7086,-4.422,-4.1893,-3.9604,-3.7308,-3.5584,-3.5872,-3.793,-4.0219,-4.2085,-4.3528,-4.4605,-4.5413,-4.599,-4.624,-4.6336,-4.6336,-4.6336,-4.6336,-4.6297,-4.6067,-4.597,-4.5932,-4.5691,-4.5594,-4.5594,-4.5594,-4.5504,-4.54,-4.54,-4.5351,-4.5307,-4.5307,-4.5307,-4.5307,-4.5307,-4.5307,-4.5246,-4.5076,-4.4862,-4.4585,-4.4198,-4.3809,-4.3515,-4.3515,-4.1717,-4.0286,-4.038,-3.8964,-3.7327,-3.5771,-3.5991,-3.5385,-3.2894,-3.1678,-3.0503,-2.9133,-2.7537,-2.6704,-2.6943,-2.6117,-2.6209,-2.7592,-2.829,-2.9714,-3.2027,-3.6677,-3.9236,-3.9481,-4.3306,-4.5273,-4.5352,-4.5419,-4.5448,-4.5438,-4.5096,-4.4837,-4.4637,-4.4525,-4.4511,-4.4533,-4.4294,-4.4177,-4.4166,-4.3865,-4.3736,-4.3719,-4.3617,-4.408,-4.4889,-4.9202,-4.9356,-4.9644,-5.0539,-5.0673,-5.0654,-5.0712,-5.0712,-5.0712,-5.0712,-5.0712,-5.0712,-5.0712,-5.0712,-5.0712,-5.0712,-5.0712,-5.0712,-5.0712,-5.0712,-5.0712,-5.0712,-5.0712,-5.0289,-4.9413,-4.9394,-4.8548,-4.6846,-4.5105,-4.3374,-4.1692,-4.0008,-3.9669,-4.0535,-4.2297,-4.3528,-4.4393,-4.6124,-4.6865,-4.6942,-4.7759,-4.8067,-4.8067,-4.8067,-4.8067,-4.7971,-4.7173,-4.6885,-4.6759,-4.5893,-4.5594,-4.5594,-4.5594,-4.5504,-4.54,-4.54,-4.5351,-4.5307,-4.5307,-4.5307,-4.5307,-4.5307,-4.5307,-4.514,-4.4552,-4.4416,-4.4227,-4.3631,-4.3515,-4.3515,-4.3515,-4.2176,-4.0563,-3.9001,-3.8707,-3.7551,-3.4284,-3.5257,-3.5385,-3.2894,-3.1201,-2.9886,-2.9078,-2.7537,-2.6924,-2.7732,-2.8491,-2.9299,-3.0118,-2.8668,-2.9641,-3.3642,-3.6525,-3.8394,-3.9197,-4.2804,-4.4732,-4.5007,-4.5074,-4.5096,-4.5085,-4.4546,-4.4303,-4.4289,-4.4036,-4.3961,-4.3986,-4.3929,-4.3897,-4.3881,-4.3682,-4.3599,-4.3582,-4.3532,-4.4011,-4.4819,-5.0106,-5.0289,-5.0366,-5.0654,-5.0712,-5.0712,-5.0712,-5.0712,-5.0894,-5.1452,-5.1529,-5.1741,-5.2337,-5.1375,-5.0712,-5.0712,-5.0712,-5.0712,-5.0712,-5.0712,-5.0712,-5.0712,-5.0712,-5.0577,-5.0289,-4.9702,-4.9144,-4.8606,-4.6894,-4.5509,-4.4393,-4.4451,-4.4624,-4.4913,-4.6028,-4.6644,-4.6932,-4.749,-4.7721,-4.774,-4.8009,-4.8105,-4.8105,-4.8105,-4.8105,-4.8067,-4.7817,-4.7721,-4.7682,-4.7394,-4.7298,-4.7298,-4.7298,-4.6426,-4.54,-4.54,-4.5339,-4.5307,-4.5307,-4.5307,-4.5307,-4.5307,-4.5121,-4.491,-4.4733,-4.4388,-4.3999,-4.3582,-4.3515,-4.3515,-4.3515,-4.2176,-4.093,-4.0416,-3.9423,-3.7955,-3.5807,-3.5954,-3.5569,-3.3642,-3.2485,-3.1739,-3.1482,-2.9996,-2.8932,-2.8638,-2.8356,-2.8539,-2.9335,-3.098,-3.2228,-3.2949,-3.7275,-3.9704,-3.9946,-4.3013,-4.4567,-4.4644,-4.4908,-4.4938,-4.4758,-4.4388,-4.4166,-4.4017,-4.3945,-4.3913,-4.3929,-4.3867,-4.3786,-4.3682,-4.3565,-4.3531,-4.3587,-4.4121,-4.4837,-4.5553,-5.0596,-5.0712,-5.0712,-5.0712,-5.0952,-5.1144,-5.1144,-5.1433,-5.1818,-5.2308,-5.2385,-5.2596,-5.3145,-5.226,-5.1645,-5.1645,-5.1645,-5.1645,-5.1645,-5.1337,-5.1144,-5.1144,-5.0856,-5.0712,-5.0712,-5.0173,-4.9894,-4.9894,-4.8509,-4.7394,-4.6547,-4.7105,-4.7355,-4.7375,-4.7875,-4.8105,-4.8125,-4.8452,-4.8586,-4.8625,-4.8933,-4.9086,-4.9086,-4.9086,-4.9086,-4.9029,-4.8702,-4.8586,-4.8548,-4.8221,-4.8105,-4.8096,-4.8097,-4.7309,-4.632,-4.5974,-4.5607,-4.5307,-4.5307,-4.5307,-4.5307,-4.5307,-4.5045,-4.4739,-4.4552,-4.4147,-4.3749,-4.3531,-4.3515,-4.3515,-4.3515,-4.2176,-4.1095,-4.1095,-3.9753,-3.8138,-3.6523,-3.6303,-3.5569,-3.3587,-3.3183,-3.2693,-3.1788,-3.1623,-3.1219,-3.0418,-3.076,-3.1219,-3.1702,-3.2485,-3.3513,-3.4839,-3.8309,-4.0444,-4.1055,-4.3092,-4.4202,-4.4318,-4.4546,-4.4572,-4.4369,-4.4102,-4.3908,-4.3783,-4.3783,-4.3816,-4.3851,-4.3769,-4.3667,-4.3582,-4.3532,-4.3515,-4.3606,-4.4415,-4.5021,-4.5498,-5.077,-5.0789,-5.0808,-5.0866,-5.1491,-5.1981,-5.1981,-5.2673,-5.3222,-5.328,-5.3299,-5.3318,-5.3376,-5.3376,-5.3376,-5.3376,-5.328,-5.3203,-5.3203,-5.2442,-5.1981,-5.1981,-5.126,-5.0846,-5.0789,-5.0789,-5.077,-5.0712,-4.9894,-4.9086,-4.8279,-4.8279,-4.8279,-4.8279,-4.8279,-4.8279,-4.8336,-4.9144,-4.949,-4.9548,-5.0366,-5.0712,-5.0712,-5.0712,-5.0712,-5.0596,-4.9779,-4.949,-4.9375,-4.8548,-4.8279,-4.8288,-4.8279,-4.8192,-4.7912,-4.7039,-4.6125,-4.5373,-4.5373,-4.5345,-4.5307,-4.5307,-4.5034,-4.4624,-4.4075,-4.3732,-4.3515,-4.3515,-4.3515,-4.3515,-4.3515,-4.2176,-4.1095,-4.1095,-3.9753,-3.8138,-3.6523,-3.634,-3.5477,-3.3041,-3.3476,-3.3091,-3.0834,-3.2669,-3.3605,-3.2748,-3.4871,-3.6211,-3.6211,-3.3435,-3.3954,-3.8634,-3.9625,-4.0799,-4.2378,-4.313,-4.3666,-4.4005,-4.4048,-4.4042,-4.3986,-4.3728,-4.3599,-4.3599,-4.3599,-4.3667,-4.3788,-4.3651,-4.3599,-4.3582,-4.3513,-4.3515,-4.3606,-4.447,-4.4746,-4.4837,-5.151,-5.1625,-5.1837,-5.2491,-5.2779,-5.2895,-5.2895,-5.3068,-5.3433,-5.4107,-5.4184,-5.4434,-5.503,-5.5107,-5.5107,-5.5107,-5.3933,-5.3203,-5.3203,-5.301,-5.2895,-5.2895,-5.2702,-5.2299,-5.1625,-5.1625,-5.1318,-5.0712,-5.05,-5.0289,-5.0067,-5.0067,-5.0067,-5.0067,-5.0067,-5.0067,-5.0087,-5.0308,-5.0385,-5.0423,-5.0616,-5.0712,-5.0712,-5.0712,-5.0712,-5.0673,-5.0481,-5.0385,-5.0366,-5.0144,-5.0067,-5.0077,-5.0028,-4.9516,-4.8736,-4.7871,-4.6936,-4.6214,-4.6214,-4.5774,-4.5307,-4.5307,-4.4887,-4.4341,-4.3763,-4.3548,-4.3515,-4.3515,-4.3515,-4.3515,-4.3515,-4.2176,-4.1095,-4.1095,-3.9753,-3.8138,-3.6523,-3.6831,-3.6523,-3.4656,-3.5202,-3.5477,-3.4908,-3.5367,-3.5092,-3.3623,-3.4619,-3.5316,-3.5316,-3.5771,-3.7162,-3.9533,-4.0983,-4.2213,-4.3221,-4.3387,-4.3666,-4.4005,-4.3765,-4.3763,-4.3983,-4.3714,-4.3599,-4.3599,-4.3719,-4.3719,-4.3651,-4.3599,-4.3565,-4.3513,-4.3515,-4.3515,-4.3663,-4.5094,-4.5241,-4.4837,-5.1808,-5.2212,-5.2635,-5.3126,-5.353,-5.3799,-5.3799,-5.4107,-5.4511,-5.4991,-5.5049,-5.5203,-5.5645,-5.5703,-5.5703,-5.5703,-5.4876,-5.4337,-5.4337,-5.3991,-5.3799,-5.3799,-5.3414,-5.2991,-5.25,-5.2481,-5.2087,-5.1241,-5.1241,-5.1048,-5.0712,-5.0712,-5.0712,-5.0712,-5.0712,-5.0712,-5.0712,-5.0712,-5.0712,-5.0712,-5.0712,-5.0712,-5.0712,-5.0712,-5.0712,-5.0712,-5.0712,-5.0712,-5.0712,-5.0712,-5.0712,-5.0702,-5.0623,-5.0216,-4.9695,-4.919,-4.8111,-4.7081,-4.7081,-4.6481,-4.5693,-4.5048,-4.4643,-4.4227,-4.3631,-4.3515,-4.3515,-4.3515,-4.3515,-4.3515,-4.3515,-4.2176,-4.1095,-4.1095,-3.9753,-3.8267,-3.7033,-3.7217,-3.7033,-3.5752,-3.667,-3.7239,-3.6886,-3.7845,-3.7808,-3.6156,-3.6798,-3.7242,-3.7242,-3.845,-3.9551,-4.0414,-4.1662,-4.269,-4.3496,-4.3515,-4.3582,-4.3781,-4.3582,-4.3599,-4.3765,-4.3615,-4.3548,-4.3548,-4.3617,-4.3617,-4.3548,-4.3548,-4.3531,-4.3515,-4.3515,-4.3718,-4.4195,-4.5443,-4.5388,-4.4856,-5.2269,-5.2895,-5.3433,-5.3568,-5.4184,-5.4684,-5.4684,-5.5261,-5.5703,-5.5703,-5.5703,-5.5703,-5.5703,-5.5703,-5.5703,-5.5703,-5.5703,-5.5703,-5.5703,-5.5049,-5.4684,-5.4684,-5.3972,-5.353,-5.3395,-5.328,-5.2837,-5.2096,-5.2096,-5.176,-5.1077,-5.0933,-5.0875,-5.0875,-5.075,-5.0712,-5.0712,-5.0712,-5.0712,-5.0712,-5.0712,-5.0712,-5.0712,-5.0712,-5.0712,-5.0712,-5.0712,-5.0712,-5.0712,-5.0712,-5.0712,-5.0702,-5.0613,-5.0562,-5.0489,-5.0412,-4.9342,-4.8151,-4.8017,-4.7264,-4.621,-4.4976,-4.4519,-4.426,-4.3697,-4.3549,-4.3515,-4.3515,-4.3515,-4.3515,-4.3515,-4.2176,-4.1058,-4.093,-3.968,-3.8377,-3.7456,-3.7529,-3.7437,-3.6743,-3.7973,-3.8652,-3.8098,-3.99,-4.0526,-3.9166,-3.9698,-4.0084,-4.0084,-4.0836,-4.1279,-4.1279,-4.2066,-4.28,-4.3496,-4.3515,-4.3515,-4.3515,-4.3515,-4.3515,-4.3515,-4.3515,-4.3515,-4.3515,-4.3515,-4.3515,-4.3515,-4.3515,-4.3515,-4.3515,-4.3515,-4.3993,-4.4764,-4.548,-4.5369,-4.5094,-5.3953,-5.4203,-5.4511,-5.5184,-5.5415,-5.5511,-5.5511,-5.5607,-5.5703,-5.5703,-5.5703,-5.5703,-5.5703,-5.5703,-5.5703,-5.5703,-5.5703,-5.5703,-5.5703,-5.5568,-5.5511,-5.5511,-5.5376,-5.4991,-5.4318,-5.3587,-5.3126,-5.301,-5.301,-5.2933,-5.2799,-5.2068,-5.1712,-5.1673,-5.0991,-5.0712,-5.0712,-5.0712,-5.0712,-5.0712,-5.0712,-5.0712,-5.0712,-5.0712,-5.0712,-5.0712,-5.0712,-5.0712,-5.0712,-5.0712,-5.0712,-5.0673,-5.0553,-5.0511,-5.0478,-5.0348,-5.0111,-4.9767,-4.9079,-4.7723,-4.6396,-4.5956,-4.5114,-4.4318,-4.4002,-4.3699,-4.3515,-4.3515,-4.3515,-4.3515,-4.3515,-4.2176,-4.0875,-4.0194,-3.9313,-3.8175,-3.6688,-3.7661,-3.8469,-3.834,-3.9148,-3.9937,-4.0506,-4.0875,-4.1003,-4.0747,-4.0838,-4.0912,-4.0912,-4.168,-4.2121,-4.2121,-4.2892,-4.3369,-4.3515,-4.3515,-4.3515,-4.3515,-4.3515,-4.3515,-4.3515,-4.3515,-4.3515,-4.3515,-4.3515,-4.3515,-4.3515,-4.3515,-4.3515,-4.3515,-4.3515,-4.3993,-4.4709,-4.4838,-4.5241,-4.5755,-5.4414,-5.4857,-5.5261,-5.5645,-5.5703,-5.5703,-5.5703,-5.5703,-5.5703,-5.5703,-5.5703,-5.5703,-5.5703,-5.5703,-5.5703,-5.5703,-5.5703,-5.5703,-5.5703,-5.5703,-5.5703,-5.5703,-5.5703,-5.553,-5.5145,-5.4741,-5.4337,-5.3895,-5.3895,-5.3664,-5.3203,-5.2799,-5.2596,-5.2577,-5.2202,-5.2049,-5.2049,-5.2049,-5.2049,-5.2049,-5.2049,-5.2049,-5.2049,-5.2049,-5.176,-5.1356,-5.1356,-5.1068,-5.0712,-5.0712,-5.0712,-5.0673,-5.0542,-5.05,-5.0459,-5.0337,-5.0302,-5.013,-4.932,-4.8506,-4.761,-4.6403,-4.5593,-4.4908,-4.4175,-4.3749,-4.3515,-4.3515,-4.3515,-4.3515,-4.3515,-4.2543,-4.1625,-4.124,-4.0157,-3.9093,-3.834,-3.8872,-3.935,-3.935,-4.0432,-4.135,-4.1717,-4.2139,-4.2213,-4.1791,-4.1754,-4.1754,-4.1754,-4.2103,-4.2506,-4.2928,-4.3296,-4.3515,-4.3515,-4.3515,-4.3515,-4.3515,-4.3515,-4.3515,-4.3515,-4.3515,-4.3515,-4.3515,-4.3515,-4.3515,-4.3515,-4.3515,-4.3515,-4.3515,-4.3515,-4.3993,-4.4691,-4.4691,-4.5223,-4.5957,-5.478,-5.528,-5.5703,-5.5703,-5.5703,-5.5703,-5.5703,-5.5703,-5.5703,-5.5703,-5.5703,-5.5703,-5.5703,-5.5703,-5.5703,-5.5703,-5.5703,-5.5703,-5.5703,-5.5703,-5.5703,-5.5703,-5.5703,-5.5703,-5.5703,-5.5703,-5.5395,-5.478,-5.478,-5.4434,-5.378,-5.3587,-5.351,-5.3491,-5.3299,-5.3203,-5.3203,-5.3203,-5.3203,-5.3203,-5.3203,-5.3203,-5.3203,-5.3203,-5.2779,-5.2192,-5.2192,-5.1818,-5.1241,-5.1048,-5.0971,-5.0913,-5.06,-5.05,-5.0459,-5.0337,-5.0302,-5.0168,-4.9538,-4.9232,-4.8709,-4.7093,-4.6178,-4.5452,-4.4492,-4.3878,-4.3515,-4.3515,-4.3515,-4.3515,-4.3515,-4.2837,-4.2249,-4.2047,-4.0983,-4.0102,-3.9918,-4.0065,-4.0249,-4.0432,-4.1552,-4.2378,-4.2561,-4.313,-4.3239,-4.2635,-4.258,-4.258,-4.258,-4.258,-4.2855,-4.3478,-4.3515,-4.3515,-4.3515,-4.3515,-4.3515,-4.3515,-4.3515,-4.3515,-4.3515,-4.3515,-4.3515,-4.3515,-4.3515,-4.3515,-4.3515,-4.3515,-4.3515,-4.3533,-4.3699,-4.4158,-4.4691,-4.4691,-4.5333,-4.625,-5.5607,-5.5665,-5.5703,-5.5703,-5.5703,-5.5703,-5.5703,-5.5703,-5.5703,-5.5703,-5.5703,-5.5703,-5.5703,-5.5703,-5.5703,-5.5703,-5.5703,-5.5703,-5.5703,-5.5703,-5.5703,-5.5703,-5.5703,-5.5703,-5.5703,-5.5703,-5.5665,-5.5607,-5.5607,-5.5568,-5.5491,-5.4741,-5.4395,-5.4376,-5.3568,-5.3203,-5.3203,-5.3203,-5.3203,-5.3203,-5.3203,-5.3203,-5.3203,-5.3203,-5.3164,-5.3106,-5.3106,-5.3068,-5.2895,-5.2077,-5.1808,-5.1663,-5.0792,-5.05,-5.0459,-5.0337,-5.0302,-5.0283,-5.0225,-4.9671,-4.8983,-4.8529,-4.7046,-4.5602,-4.5199,-4.4284,-4.3515,-4.3515,-4.3515,-4.3515,-4.3515,-4.2837,-4.2066,-4.1297,-4.1077,-4.0763,-3.9992,-4.0543,-4.1279,-4.2029,-4.2231,-4.2598,-4.3332,-4.3478,-4.3478,-4.3423,-4.3423,-4.3423,-4.3423,-4.3423,-4.3441,-4.3515,-4.3515,-4.3515,-4.3515,-4.3515,-4.3515,-4.3515,-4.3515,-4.3515,-4.3515,-4.3515,-4.3515,-4.3515,-4.3515,-4.3515,-4.3515,-4.3515,-4.3515,-4.357,-4.4323,-4.4636,-4.4691,-4.4691,-4.5682,-4.6911,-5.5703,-5.5703,-5.5703,-5.5703,-5.5703,-5.5703,-5.5703,-5.5703,-5.5703,-5.5703,-5.5703,-5.5703,-5.5703,-5.5703,-5.5703,-5.5703,-5.5703,-5.5703,-5.5703,-5.5703,-5.5703,-5.5703,-5.5703,-5.5703,-5.5703,-5.5703,-5.5703,-5.5703,-5.5703,-5.5703,-5.5684,-5.5395,-5.5241,-5.5222,-5.4895,-5.4741,-5.4741,-5.4741,-5.4741,-5.4741,-5.4741,-5.4741,-5.4741,-5.4741,-5.4434,-5.401,-5.401,-5.3664,-5.3145,-5.2818,-5.2672,-5.2572,-5.2171,-5.1686,-5.1124,-5.0497,-5.0302,-5.0302,-5.0302,-5.0073,-4.9651,-4.8814,-4.7881,-4.684,-4.5496,-4.4692,-4.4103,-4.3606,-4.3515,-4.3515,-4.3515,-4.324,-4.2928,-4.2635,-4.2176,-4.1735,-4.1423,-4.1662,-4.1974,-4.2268,-4.2745,-4.3149,-4.3478,-4.3515,-4.3515,-4.3515,-4.3515,-4.3515,-4.3515,-4.3515,-4.3515,-4.3515,-4.3515,-4.3515,-4.3515,-4.3515,-4.3515,-4.3515,-4.3515,-4.3515,-4.3515,-4.3515,-4.3515,-4.3515,-4.3515,-4.3515,-4.3515,-4.3515,-4.3515,-4.3588,-4.4397,-4.4397,-4.4085,-4.5076,-4.5828,-4.6379,-5.5703,-5.5703,-5.5703,-5.5703,-5.5703,-5.5703,-5.5703,-5.5703,-5.5703,-5.5703,-5.5703,-5.5703,-5.5703,-5.5703,-5.5703,-5.5703,-5.5703,-5.5703,-5.5703,-5.5703,-5.5703,-5.5703,-5.5703,-5.5703,-5.5703,-5.5703,-5.5703,-5.5703,-5.5703,-5.5703,-5.5703,-5.5703,-5.5703,-5.5703,-5.5703,-5.5703,-5.5703,-5.5703,-5.5703,-5.5703,-5.5703,-5.5703,-5.5703,-5.5703,-5.5357,-5.4876,-5.4876,-5.4491,-5.3953,-5.3683,-5.3565,-5.3443,-5.3111,-5.238,-5.1545,-5.0906,-5.0512,-5.0302,-5.0302,-5.0302,-5.0066,-4.9067,-4.8451,-4.7691,-4.6149,-4.5418,-4.4856,-4.403,-4.3883,-4.3791,-4.3551,-4.3515,-4.3515,-4.3515,-4.3039,-4.2671,-4.2671,-4.2671,-4.2671,-4.2671,-4.3149,-4.3515,-4.3515,-4.3515,-4.3515,-4.3515,-4.3515,-4.3515,-4.3515,-4.3515,-4.3515,-4.3515,-4.3515,-4.3515,-4.3515,-4.3515,-4.3515,-4.3515,-4.3515,-4.3515,-4.3515,-4.3515,-4.3515,-4.3515,-4.3515,-4.3515,-4.3515,-4.3515,-4.3662,-4.392,-4.4488,-4.4525,-4.4378,-4.548,-4.6067,-4.6361,-5.5703,-5.5703,-5.5703,-5.5703,-5.5703,-5.5703,-5.5703,-5.5703,-5.5703,-5.5703,-5.5703,-5.5703,-5.5703,-5.5703,-5.5703,-5.5703,-5.5703,-5.5703,-5.5703,-5.5703,-5.5703,-5.5703,-5.5703,-5.5703,-5.5703,-5.5703,-5.5703,-5.5703,-5.5703,-5.5703,-5.5703,-5.5703,-5.5703,-5.5703,-5.5703,-5.5703,-5.5703,-5.5703,-5.5703,-5.5703,-5.5703,-5.5703,-5.5703,-5.5703,-5.5703,-5.5703,-5.5703,-5.5703,-5.5568,-5.478,-5.4449,-5.4241,-5.3302,-5.2365,-5.162,-5.1608,-5.099,-5.0302,-5.0302,-5.0302,-5.0144,-4.9468,-4.8698,-4.7928,-4.7242,-4.6489,-4.5681,-4.4892,-4.4727,-4.447,-4.3644,-4.3515,-4.3515,-4.3515,-4.3515,-4.3515,-4.3515,-4.3515,-4.3515,-4.3515,-4.3515,-4.3515,-4.3515,-4.3515,-4.3515,-4.3515,-4.3515,-4.3515,-4.3515,-4.3515,-4.3515,-4.3515,-4.3515,-4.3515,-4.3515,-4.3515,-4.3515,-4.3515,-4.3515,-4.3515,-4.3515,-4.3515,-4.3515,-4.3515,-4.3515,-4.3515,-4.3515,-4.3515,-4.3975,-4.4691,-4.4691,-4.5186,-4.5883,-4.5902,-4.6416,-4.7094,-5.5703,-5.5703,-5.5703,-5.5703,-5.5703,-5.5703,-5.5703,-5.5703,-5.5703,-5.5703,-5.5703,-5.5703,-5.5703,-5.5703,-5.5703,-5.5703,-5.5703,-5.5703,-5.5703,-5.5703,-5.5703,-5.5703,-5.5703,-5.5703,-5.5703,-5.5703,-5.5703,-5.5703,-5.5703,-5.5703,-5.5703,-5.5703,-5.5703,-5.5703,-5.5703,-5.5703,-5.5703,-5.5703,-5.5703,-5.5703,-5.5703,-5.5703,-5.5703,-5.5703,-5.5703,-5.5703,-5.5703,-5.5703,-5.5665,-5.5415,-5.5273,-5.5017,-5.4068,-5.3574,-5.3225,-5.2614,-5.1868,-5.1219,-5.1219,-5.0779,-5.0144,-4.9468,-4.913,-4.8605,-4.7371,-4.6911,-4.6507,-4.5718,-4.5535,-4.5296,-4.4488,-4.4342,-4.4158,-4.3589,-4.3515,-4.3515,-4.3515,-4.3515,-4.3515,-4.3515,-4.3515,-4.3515,-4.3515,-4.3515,-4.3515,-4.3515,-4.3515,-4.3515,-4.3515,-4.3515,-4.3515,-4.3515,-4.3515,-4.3515,-4.3515,-4.3515,-4.3515,-4.3515,-4.3515,-4.3515,-4.3515,-4.3515,-4.3515,-4.3515,-4.3515,-4.3515,-4.3515,-4.3515,-4.3626,-4.3901,-4.4488,-4.4856,-4.5204,-4.6342,-4.6892,-4.7186,-5.5692,-5.5703,-5.5703,-5.5703,-5.5703,-5.5703,-5.5703,-5.5703,-5.5703,-5.5703,-5.5703,-5.5703,-5.5703,-5.5703,-5.5703,-5.5703,-5.5703,-5.5703,-5.5703,-5.5703,-5.5703,-5.5703,-5.5703,-5.5703,-5.5703,-5.5703,-5.5703,-5.5703,-5.5703,-5.5703,-5.5703,-5.5703,-5.5703,-5.5703,-5.5703,-5.5703,-5.5703,-5.5703,-5.5703,-5.5703,-5.5703,-5.5703,-5.5703,-5.5703,-5.5703,-5.5703,-5.5703,-5.5703,-5.5703,-5.5662,-5.5573,-5.5368,-5.4778,-5.4371,-5.4008,-5.3473,-5.2728,-5.1978,-5.1516,-5.1021,-5.036,-4.9365,-4.919,-4.8998,-4.7832,-4.7571,-4.7351,-4.6544,-4.6379,-4.614,-4.5333,-4.4911,-4.4544,-4.4048,-4.3699,-4.3515,-4.3515,-4.3515,-4.3515,-4.3515,-4.3515,-4.3515,-4.3515,-4.3515,-4.3515,-4.3515,-4.3515,-4.3515,-4.3515,-4.3515,-4.3515,-4.3515,-4.3515,-4.3515,-4.3515,-4.3515,-4.3515,-4.3515,-4.3515,-4.3515,-4.3515,-4.3515,-4.3515,-4.3515,-4.3515,-4.3515,-4.3515,-4.3515,-4.3681,-4.3993,-4.4158,-4.4819,-4.5718,-4.6379,-4.7021,-4.7626,-5.5566,-5.564,-5.5651,-5.5629,-5.564,-5.5651,-5.5629,-5.5629,-5.5629,-5.5629,-5.564,-5.5662,-5.5662,-5.5692,-5.5703,-5.5703,-5.5703,-5.5703,-5.5703,-5.5703,-5.5703,-5.5703,-5.5703,-5.5703,-5.5703,-5.5703,-5.5703,-5.5703,-5.5703,-5.5703,-5.5703,-5.5703,-5.5703,-5.5703,-5.5703,-5.5703,-5.5703,-5.5703,-5.5703,-5.5703,-5.5703,-5.5703,-5.5703,-5.5703,-5.5703,-5.5703,-5.5703,-5.5703,-5.5692,-5.5607,-5.5504,-5.5395,-5.5396,-5.4868,-5.4218,-5.4218,-5.3588,-5.2679,-5.1611,-5.122,-5.0742,-4.9266,-4.9087,-4.9097,-4.8439,-4.8306,-4.8104,-4.7351,-4.7204,-4.6947,-4.6159,-4.5424,-4.4874,-4.4837,-4.4121,-4.3625,-4.3625,-4.3551,-4.3515,-4.3515,-4.3515,-4.3515,-4.3515,-4.3515,-4.3515,-4.3515,-4.3515,-4.3515,-4.3515,-4.3515,-4.3515,-4.3515,-4.3515,-4.3515,-4.3515,-4.3515,-4.3515,-4.3515,-4.3515,-4.3515,-4.3515,-4.3515,-4.3515,-4.3515,-4.3515,-4.3515,-4.3515,-4.3515,-4.392,-4.4525,-4.3791,-4.4929,-4.6892,-4.6177,-4.6929,-4.8306,-5.4995,-5.5217,-5.5295,-5.505,-5.5217,-5.5295,-5.5037,-5.5009,-5.5009,-5.5009,-5.523,-5.5389,-5.5389,-5.5573,-5.5703,-5.5703,-5.5703,-5.5703,-5.5703,-5.5703,-5.5703,-5.5703,-5.5703,-5.5703,-5.5703,-5.5703,-5.5703,-5.5703,-5.5703,-5.5703,-5.5703,-5.5703,-5.5703,-5.5703,-5.5703,-5.5703,-5.5703,-5.5703,-5.5703,-5.5703,-5.5703,-5.5703,-5.5703,-5.5703,-5.5703,-5.5703,-5.5703,-5.5682,-5.5596,-5.548,-5.5432,-5.5395,-5.5396,-5.5269,-5.5116,-5.5116,-5.4505,-5.3697,-5.3205,-5.2096,-5.0874,-4.9974,-4.9332,-4.8816,-4.8402,-4.8306,-4.8251,-4.8067,-4.8049,-4.7791,-4.6984,-4.6691,-4.636,-4.5736,-4.4966,-4.4452,-4.4452,-4.3901,-4.3515,-4.3515,-4.3515,-4.3515,-4.3515,-4.3515,-4.3515,-4.3515,-4.3515,-4.3515,-4.3515,-4.3515,-4.3515,-4.3515,-4.3515,-4.3515,-4.3515,-4.3515,-4.3515,-4.3515,-4.3515,-4.3515,-4.3515,-4.3515,-4.3515,-4.3515,-4.3515,-4.3515,-4.3515,-4.3515,-4.3606,-4.3736,-4.357,-4.458,-4.614,-4.5957,-4.6929,-4.8306,-5.4678,-5.489,-5.5014,-5.4821,-5.4938,-5.4995,-5.4821,-5.4791,-5.4791,-5.4791,-5.4952,-5.5069,-5.5069,-5.5185,-5.5263,-5.5263,-5.5425,-5.5516,-5.5516,-5.5629,-5.5703,-5.5703,-5.5703,-5.5703,-5.5703,-5.5703,-5.5703,-5.5703,-5.5703,-5.5703,-5.5703,-5.5703,-5.5703,-5.5703,-5.5703,-5.5703,-5.5703,-5.5703,-5.5703,-5.5703,-5.5703,-5.5703,-5.5703,-5.5703,-5.5703,-5.5703,-5.5651,-5.5585,-5.5492,-5.5432,-5.5402,-5.5403,-5.5396,-5.5403,-5.5403,-5.5403,-5.4936,-5.4277,-5.3554,-5.258,-5.1551,-5.0602,-4.9769,-4.903,-4.8418,-4.8306,-4.8306,-4.8306,-4.8306,-4.8177,-4.7736,-4.7351,-4.6947,-4.6526,-4.581,-4.5149,-4.4746,-4.4342,-4.392,-4.3551,-4.3515,-4.3515,-4.3515,-4.3515,-4.3515,-4.3515,-4.3515,-4.3515,-4.3515,-4.3515,-4.3515,-4.3515,-4.3515,-4.3515,-4.3515,-4.3515,-4.3515,-4.3515,-4.3515,-4.3515,-4.3515,-4.3515,-4.3515,-4.3515,-4.3515,-4.3515,-4.3515,-4.3515,-4.3515,-4.3515,-4.3515,-4.425,-4.5369,-4.5755,-4.6929,-4.8306,-5.4371,-5.4554,-5.4654,-5.4591,-5.4635,-5.4651,-5.4623,-5.4623,-5.4639,-5.4639,-5.4685,-5.4716,-5.4716,-5.4761,-5.4791,-5.4791,-5.5037,-5.5204,-5.5204,-5.5473,-5.5629,-5.5629,-5.5682,-5.5703,-5.5703,-5.5703,-5.5703,-5.5703,-5.5703,-5.5703,-5.5703,-5.5703,-5.5703,-5.5703,-5.5703,-5.5703,-5.5703,-5.5703,-5.5703,-5.5703,-5.5703,-5.5703,-5.5703,-5.5703,-5.5684,-5.5682,-5.5618,-5.5516,-5.5395,-5.5402,-5.5403,-5.539,-5.5319,-5.5305,-5.5292,-5.5233,-5.4981,-5.4503,-5.3485,-5.2859,-5.227,-5.1252,-5.0398,-4.9592,-4.8728,-4.8416,-4.8306,-4.8306,-4.8306,-4.8306,-4.8306,-4.7736,-4.7314,-4.7314,-4.6636,-4.5883,-4.5186,-4.5002,-4.4672,-4.3975,-4.379,-4.3662,-4.3497,-4.3515,-4.3515,-4.3515,-4.3515,-4.3515,-4.3515,-4.3515,-4.3515,-4.3515,-4.3515,-4.3515,-4.3515,-4.3515,-4.3515,-4.3515,-4.3626,-4.3626,-4.3515,-4.3626,-4.3643,-4.3515,-4.3662,-4.3643,-4.3515,-4.3515,-4.3515,-4.3515,-4.3515,-4.4066,-4.5021,-4.5957,-4.715,-4.8306,-5.3641,-5.3888,-5.4034,-5.3719,-5.3961,-5.4122,-5.387,-5.3889,-5.3926,-5.3926,-5.4177,-5.4364,-5.4364,-5.4623,-5.4791,-5.4791,-5.4836,-5.4866,-5.4866,-5.5178,-5.5351,-5.5351,-5.5585,-5.5703,-5.5703,-5.5703,-5.5703,-5.5703,-5.5703,-5.5703,-5.5703,-5.5703,-5.5703,-5.5703,-5.5703,-5.5703,-5.5703,-5.5703,-5.5703,-5.5703,-5.5703,-5.5703,-5.5703,-5.5703,-5.5651,-5.5607,-5.5596,-5.5516,-5.5395,-5.539,-5.5403,-5.5332,-5.499,-5.4884,-5.4825,-5.4528,-5.4416,-5.426,-5.3758,-5.307,-5.24,-5.1952,-5.1224,-5.0417,-4.961,-4.8838,-4.8306,-4.8306,-4.8306,-4.8306,-4.8306,-4.8214,-4.8141,-4.8141,-4.7461,-4.6892,-4.6782,-4.6195,-4.57,-4.559,-4.4966,-4.4268,-4.357,-4.3515,-4.3515,-4.3515,-4.3515,-4.3515,-4.3515,-4.3515,-4.3515,-4.3515,-4.3515,-4.3515,-4.3515,-4.3515,-4.3515,-4.3515,-4.4213,-4.4176,-4.3533,-4.4213,-4.4158,-4.3551,-4.425,-4.414,-4.3515,-4.3515,-4.3515,-4.3515,-4.3515,-4.4415,-4.592,-4.7425,-4.8122,-4.8306,-5.338,-5.3582,-5.3661,-5.3521,-5.3641,-5.3757,-5.3715,-5.3734,-5.3754,-5.3793,-5.3926,-5.4017,-5.4017,-5.4142,-5.4246,-5.4246,-5.4413,-5.4528,-5.4528,-5.4836,-5.5009,-5.5009,-5.5307,-5.5473,-5.5473,-5.5618,-5.5703,-5.5703,-5.5703,-5.5703,-5.5703,-5.5703,-5.5703,-5.5703,-5.5703,-5.5703,-5.5703,-5.5703,-5.5703,-5.5703,-5.5651,-5.564,-5.5629,-5.5596,-5.5573,-5.5539,-5.5504,-5.5451,-5.5403,-5.5403,-5.526,-5.5038,-5.4855,-5.467,-5.4495,-5.433,-5.4141,-5.3925,-5.3758,-5.3305,-5.2865,-5.2697,-5.2068,-5.1371,-5.1004,-4.9939,-4.8893,-4.8398,-4.8306,-4.8306,-4.8306,-4.8306,-4.8306,-4.8306,-4.8012,-4.7608,-4.7168,-4.6782,-4.6416,-4.5957,-4.559,-4.5057,-4.425,-4.458,-4.4654,-4.4195,-4.458,-4.4837,-4.4837,-4.4837,-4.4837,-4.4837,-4.4837,-4.4837,-4.4837,-4.4837,-4.4617,-4.4176,-4.4544,-4.4525,-4.4176,-4.4544,-4.4525,-4.4176,-4.4066,-4.3828,-4.3515,-4.3515,-4.3515,-4.3515,-4.3515,-4.447,-4.5993,-4.6709,-4.7535,-4.8306]},{"header":{"parameterUnit":"m.s-1","parameterCategory":1,"la1":30.6,"la2":28.766,"lo1":-90.7593,"lo2":-88.6598,"dy":0.0162,"dx":0.0183,"nx":116,"ny":114,"refTime":"2024-05-29T06:00:00:Z","depth":0,"parameterNumber":3,"parameterNumberName":"V-component_of_WINDS"},"data":[0.0,0.0,0.0,0.0,0.0,0.0,0.0,0.0,0.0,0.0,0.0,0.0,0.0,0.0,0.0,0.0,0.0,0.0,0.0,0.0,0.0,0.0,0.0,0.0,0.0,0.0,0.0,0.0,0.0,0.0,0.0,0.0,0.0,0.0,0.0,0.0,0.0,0.0,0.0,0.0,0.0,0.0,0.0,0.0,0.0,0.0,0.0,0.0,0.0,0.0,0.0,0.0,0.0,0.0,0.0,0.0,0.0,0.0,0.0,0.0,0.0,0.0,0.0,0.0,0.0,0.0,0.0,0.0,0.0,0.0,0.0,0.0,0.0,0.0,0.0,0.0,0.0,0.0,0.0,0.0,0.0,0.0,0.0,0.0,0.0,0.0,0.0,0.0,0.0,0.0,0.0,0.0,0.0,0.0,0.0,0.0,0.0,0.0,0.0,0.0,0.0,0.0,0.0,0.0,0.0,0.0,0.0,0.0,0.0,0.0,0.0,0.0,0.0,0.0,0.0,0.0,0.0,0.0,0.0,0.0,0.0,0.0,0.0,0.0,0.0,0.0,0.0,0.0,0.0,0.0,0.0,0.0,0.0,0.0,0.0,0.0,0.0,0.0,0.0,0.0,0.0,0.0,0.0,0.0,0.0,0.0,0.0,0.0,0.0,0.0,0.0,0.0,0.0,0.0,0.0,0.0,0.0,0.0,0.0,0.0,0.0,0.0,0.0,0.0,0.0,0.0,0.0,0.0,0.0,0.0,0.0,0.0,0.0,0.0,0.0,0.0,0.0,0.0,0.0,0.0,0.0,0.0,0.0,0.0,0.0,0.0,0.0,0.0,0.0,0.0,0.0,0.0,0.0,0.0,0.0,0.0,0.0,0.0,0.0,0.0,0.0,0.0,0.0,0.0,0.0,0.0,0.0,0.0,0.0,0.0,0.0,0.0,0.0,0.0,0.0,0.0,0.0,0.0,0.0,0.0,0.0,0.0,0.0,0.0,0.0,0.0,0.0,0.0,0.0,0.0,0.0,0.0,0.0,0.0,0.0,0.0,0.0,0.0,0.0,0.0,0.0,0.0,0.0,0.0,0.0,0.0,0.0,0.0,0.0,0.0,0.0,0.0,0.0,0.0,0.0,0.0,0.0,0.0,0.0,0.0,0.0,0.0,0.0,0.0,0.0,0.0,0.0,0.0,0.0,0.0,0.0,0.0,0.0,0.0,0.0,0.0,0.0,0.0,0.0,0.0,0.0,0.0,0.0,0.0,0.0,0.0,0.0,0.0,0.0,0.0,0.0,0.0,0.0,0.0,0.0,0.0,0.0,0.0,0.0,0.0,0.0,0.0,0.0,0.0,0.0,0.0,0.0,0.0,0.0,0.0,0.0,0.0,0.0,0.0,0.0,0.0,0.0,0.0,0.0,0.0,0.0,0.0,0.0,0.0,0.0,0.0,0.0,0.0,0.0,0.0,0.0,0.0,0.0,0.0,0.0,0.0,0.0,0.0,0.0,0.0,0.0,0.0,0.0,0.0,0.0,0.0,0.0,0.0,0.0,0.0,0.0,0.0,0.0,0.0,0.0,0.0,0.0,0.0,0.0,0.0,0.0,0.0,0.0,0.0,0.0,0.0,0.0,0.0,0.0,0.0,0.0,0.0,0.0,0.0,0.0,0.0,0.0,0.0,0.0,0.0,0.0,0.0,0.0,0.0,0.0,0.0,0.0,0.0,0.0,0.0,0.0,0.0,0.0,0.0,0.0,0.0,0.0,0.0,0.0,0.0,0.0,0.0,0.0,0.0,0.0,0.0,0.0,0.0,0.0,0.0,0.0,0.0,0.0,0.0,0.0,0.0,0.0,0.0,0.0,0.0,0.0,0.0,0.0,0.0,0.0,0.0,0.0,0.0,0.0,0.0,0.0,0.0,0.0,0.0,0.0,0.0,0.0,0.0,0.0,0.0,0.0,0.0,0.0,0.0,0.0,0.0,0.0,0.0,0.0,0.0,0.0,0.0,0.0,0.0,0.0,0.0,0.0,0.0,0.0,0.0,0.0,0.0,0.0,0.0,0.0,0.0,0.0,0.0,0.0,0.0,0.0,0.0,0.0,0.0,0.0,0.0,0.0,0.0,0.0,0.0,0.0,0.0,0.0,0.0,0.0,0.0,0.0,0.0,0.0,0.0,0.0,0.0,0.0,0.0,0.0,0.0,0.0,0.0,0.0,0.0,0.0,0.0,0.0,0.0,0.0,0.0,0.0,0.0,0.0,0.0,0.0,0.0,0.0,0.0,0.0,0.0,0.0,0.0,0.0,0.0,0.0,0.0,0.0,0.0,0.0,0.0,0.0,0.0,0.0,0.0,0.0,0.0,0.0,0.0,0.0,0.0,0.0,0.0,0.0,0.0,0.0,0.0,0.0,0.0,0.0,0.0,0.0,0.0,0.0,0.0,0.0,0.0,0.0,0.0,0.0,0.0,0.0,0.0,0.0,0.0,0.0,0.0,0.0,0.0,0.0,0.0,0.0,0.0,0.0,0.0,0.0,0.0,0.0,0.0,0.0,0.0,0.0,0.0,0.0,0.0,0.0,0.0,0.0,0.0,0.0,0.0,0.0,0.0,0.0,0.0,0.0,0.0,0.0,0.0,0.0,0.0,0.0,0.0,0.0,0.0,0.0,0.0,0.0,0.0,0.0,0.0,0.0,0.0,0.0,0.0,0.0,0.0,0.0,0.0,0.0,0.0,0.0,0.0,0.0,0.0,0.0,0.0,0.0,0.0,0.0,0.0,0.0,0.0,0.0,0.0,0.0,0.0,0.0,0.0,0.0,0.0,0.0,0.0,0.0,0.0,0.0,0.0,0.0,0.0,0.0,0.0,0.0,0.0,0.0,0.0,0.0,0.0,0.0,0.0,0.0,0.0,0.0,0.0,0.0,0.0,0.0,0.0,0.0,0.0,0.0,0.0,0.0,0.0,0.0,0.0,0.0,0.0,0.0,0.0,0.0,0.0,0.0,0.0,0.0,0.0,0.0,0.0,0.0,0.0,0.0,0.0,0.0,0.0,0.0,0.0,0.0,0.0,0.0,0.0,0.0,0.0,0.0,0.0,0.0,0.0,0.0,0.0,0.0,0.0,0.0,0.0,0.0,0.0,0.0,0.0,0.0,0.0,0.0,0.0,0.0,0.0,0.0,0.0,0.0,0.0,0.0,0.0,0.0,0.0,0.0,0.0,0.0,0.0,0.0,0.0,0.0,0.0,0.0,0.0,0.0,0.0,0.0,0.0,0.0,0.0,0.0,0.0,0.0,0.0,0.0,0.0,0.0,0.0,0.0,0.0,0.0,0.0,0.0,0.0,0.0,0.0,0.0,0.0,0.0,0.0,0.0,0.0,0.0,0.0,0.0,0.0,0.0,0.0,0.0,0.0,0.0,0.0,0.0,0.0,0.0,0.0,0.0,0.0,0.0,0.0,0.0,0.0,0.0,0.0,0.0,0.0,0.0,0.0,0.0,0.0,0.0,0.0,0.0,0.0,0.0,0.0,0.0,0.0,0.0,0.0,0.0,0.0,0.0,0.0,0.0,0.0,0.0,0.0,0.0,0.0,0.0,0.0,0.0,0.0,0.0,0.0,0.0,0.0,0.0,0.0,0.0,0.0,0.0,0.0,0.0,0.0,0.0,0.0,0.0,0.0,0.0,0.0,0.0,0.0,0.0,0.0,0.0,0.0,0.0,0.0,0.0,0.0,0.0,0.0,0.0,0.0,0.0,0.0,0.0,0.0,0.0,0.0,0.0,0.0,0.0,0.0,0.0,0.0,0.0,0.0,0.0,0.0,0.0,0.0,0.0,0.0,0.0,0.0,0.0,0.0,0.0,0.0,0.0,0.0,0.0,0.0,0.0,0.0,0.0,0.0,0.0,0.0,0.0,0.0,0.0,0.0,0.0,0.0,0.0,0.0,0.0,0.0,0.0,0.0,0.0,0.0,0.0,0.0,0.0,0.0,0.0,0.0,0.0,0.0,0.0,0.0,0.0,0.0,0.0,0.0,0.0,0.0,0.0,0.0,0.0,0.0,0.0,0.0,0.0,0.0,0.0,0.0,0.0,0.0,0.0,0.0,0.0,0.0,0.0,0.0,0.0,0.0,0.0,0.0,0.0,0.0,0.0,0.0,0.0,0.0,0.0,0.0,0.0,0.0,0.0,0.0,0.0,0.0,0.0,0.0,0.0,0.0,0.0,0.0,0.0,0.0,0.0,0.0,0.0,0.0,0.0,0.0,0.0,0.0,0.0,0.0,0.0,0.0,0.0,0.0,0.0,0.0,0.0,0.0,0.0,0.0,0.0,0.0,0.0,0.0,0.0,0.0,0.0,0.0,0.0,0.0,0.0,0.0,0.0,0.0,0.0,0.0,0.0,0.0,0.0,0.0,0.0,0.0,0.0,0.0,0.0,0.0,0.0,0.0,0.0,0.0,0.0,0.0,0.0,0.0,0.0,0.0,0.0,0.0,0.0,0.0,0.0,0.0,0.0,0.0,0.0,0.0,0.0,0.0,0.0,0.0,0.0,0.0,0.0,0.0,0.0,0.0,0.0,0.0,0.0,0.0,0.0,0.0,0.0,0.0,0.0,0.0,0.0,0.0,0.0,0.0,0.0,0.0,0.0,0.0,0.0,0.0,0.0,0.0,0.0,0.0,0.0,0.0,0.0,0.0,0.0,0.0,0.0,0.0,0.0,0.0,0.0,0.0,0.0,0.0,0.0,0.0,0.0,0.0,0.0,0.0,0.0,0.0,0.0,0.0,0.0,0.0,0.0,0.0,0.0,0.0,0.0,0.0,0.0,0.0,0.0,0.0,0.0,0.0,0.0,0.0,0.0,0.0,0.0,0.0,0.0,0.0,0.0,0.0,0.0,0.0,0.0,0.0,0.0,0.0,0.0,0.0,0.0,0.0,0.0,0.0,0.0,0.0,0.0,0.0,0.0,0.0,0.0,0.0,0.0,0.0,0.0,0.0,0.0,0.0,0.0,0.0,0.0,0.0,0.0,0.0,0.0,0.0,0.0,0.0,0.0,0.0,0.0,0.0,0.0,0.0,0.0,0.0,0.0,0.0,0.0,0.0,0.0,0.0,0.0,0.0,0.0,0.0,0.0,0.0,0.0,0.0,0.0,0.0,0.0,0.0,0.0,0.0,0.0,0.0,0.0,0.0,0.0,0.0,0.0,0.0,0.0,0.0,0.0,0.0,0.0,0.0,0.0,0.0,0.0,0.0,0.0,0.0,0.0,0.0,0.0,0.0,0.0,0.0,0.0,0.0,0.0,0.0,0.0,0.0,0.0,0.0,0.0,0.0,0.0,0.0,0.0,0.0,0.0,0.0,0.0,0.0,0.0,0.0,0.0,0.0,0.0,0.0,0.0,0.0,0.0,0.0,0.0,0.0,0.0,0.0,0.0,0.0,0.0,0.0,0.0,0.0,0.0,0.0,0.0,0.0,0.0,0.0,0.0,0.0,0.0,0.0,0.0,0.0,0.0,0.0,0.0,0.0,0.0,0.0,0.0,0.0,0.0,0.0,0.0,0.0,0.0,0.0,0.0,0.0,0.0,0.0,0.0,0.0,0.0,0.0,0.0,0.0,0.0,0.0,0.0,0.0,0.0,0.0,0.0,0.0,0.0,0.0,0.0,0.0,0.0,0.0,0.0,0.0,0.0,0.0,0.0,0.0,0.0,0.0,0.0,0.0,0.0,0.0,0.0,0.0,0.0,0.0,0.0,0.0,0.0,0.0,0.0,0.0,0.0,0.0,0.0,0.0,0.0,0.0,0.0,0.0,0.0,0.0,0.0,0.0,0.0,0.0,0.0,0.0,0.0,0.0,0.0,0.0,0.0,0.0,0.0,0.0,0.0,0.0,0.0,0.0,0.0,0.0,0.0,0.0,0.0,0.0,0.0,0.0,0.0,0.0,0.0,0.0,0.0,0.0,0.0,0.0,0.0,0.0,0.0,0.0,0.0,0.0,0.0,0.0,0.0,0.0,0.0,0.0,0.0,0.0,0.0,0.0,0.0,0.0,0.0,0.0,0.0,0.0,0.0,0.0,0.0,0.0,0.0,0.0,0.0,0.0,0.0,0.0,1.3732,1.3216,0.0,0.0,0.0,0.0,0.0,0.0,0.0,0.0,0.0,0.0,0.0,0.0,0.0,0.0,0.0,0.0,0.0,0.0,0.0,0.0,0.0,0.0,0.0,0.8589,0.8773,0.8745,0.8745,0.871,0.8638,0.0,0.0,0.0,0.0,0.0,0.8529,0.8402,0.8928,1.0111,0.9571,1.001,1.1283,1.0744,1.0083,0.9372,0.0,0.0,0.0,0.0,0.0,0.0,0.0,0.0,0.0,0.0,0.0,0.0,0.0,0.0,0.0,0.0,0.0,0.0,0.0,0.0,0.0,0.0,0.0,0.0,0.0,0.0,0.0,0.0,0.0,0.0,0.0,0.0,0.0,0.0,0.0,0.0,0.0,0.0,0.0,0.0,0.0,0.0,0.0,0.0,0.0,0.0,0.0,0.0,0.0,0.0,0.0,0.0,0.0,0.0,0.0,0.0,0.0,0.0,0.0,0.0,0.0,0.0,0.0,0.0,0.0,0.0,0.0,0.0,0.0,0.0,1.5117,1.4463,0.0,0.0,0.0,0.0,0.0,0.0,0.0,0.0,0.0,0.0,0.0,0.0,0.0,0.0,0.0,0.0,0.0,0.0,0.0,0.0,0.0,0.831,0.8321,0.881,0.9188,0.931,0.9219,0.9212,0.9333,0.9236,0.0,0.0,0.0,0.9159,0.9103,0.8975,0.9715,1.1376,1.1073,1.1518,1.2658,1.2785,1.1986,1.0479,1.0499,0.0,0.0,0.0,0.0,0.0,0.0,0.0,0.0,0.0,0.0,0.0,0.0,0.0,0.0,0.0,0.0,0.0,0.0,0.0,0.0,0.0,0.0,0.0,0.0,0.0,0.0,0.0,0.0,0.0,0.0,0.0,0.0,0.0,0.0,0.0,0.0,0.0,0.0,0.0,0.0,0.0,0.0,0.0,0.0,0.0,0.0,0.0,0.0,0.0,0.0,0.0,0.0,0.0,0.0,0.0,0.0,0.0,0.0,0.0,0.0,0.0,0.0,0.0,1.8542,1.8636,1.8893,1.8893,1.8809,1.8586,1.6894,1.6274,1.6283,1.4809,0.0,0.0,0.0,0.0,0.0,0.0,0.0,0.0,0.0,0.0,0.0,0.0,0.0,0.0,0.0,0.0,0.0,0.0,0.0,0.8181,0.8742,0.8885,0.9381,1.0468,1.0076,1.0028,1.061,1.0158,0.0,0.0,0.9821,0.9754,0.9525,0.9942,1.0648,1.1645,1.3352,1.3874,1.3301,1.4175,1.3914,1.2724,1.1774,1.1379,1.1339,0.0,0.0,0.0,0.0,0.0,0.0,0.0,0.0,0.0,0.0,0.0,0.0,0.0,0.0,0.0,0.0,0.0,0.0,0.0,0.0,0.0,0.0,0.0,0.0,0.0,0.0,0.0,0.0,0.0,0.0,0.0,0.0,0.0,0.0,0.0,0.0,0.0,0.0,0.0,0.0,0.0,1.1735,1.1996,0.0,0.0,0.0,0.0,0.0,0.0,0.0,0.0,0.0,0.0,0.0,0.0,0.0,1.8443,1.8281,1.9113,1.9354,1.9033,1.9476,1.9511,1.9243,1.9243,1.9397,1.9666,1.9399,0.0,1.6732,1.5827,0.0,0.0,0.0,0.0,0.0,0.0,0.0,0.0,0.0,0.0,0.0,0.0,0.0,0.0,0.0,0.0,0.0,0.0,0.0,0.0,0.0,0.9604,1.0307,1.1118,1.1263,1.1218,1.1027,1.1045,1.0695,0.9874,1.0058,1.0247,1.0442,1.0711,1.1603,1.3158,1.5045,1.5451,1.4473,1.4974,1.4947,1.4508,1.3481,1.2757,1.2238,1.1292,0.0,0.0,0.0,0.0,0.0,0.0,0.0,0.0,0.0,0.0,0.0,0.0,0.0,0.0,0.0,0.0,0.0,0.0,0.0,0.0,0.0,0.0,0.0,0.0,0.0,0.0,0.0,0.0,0.0,0.0,0.0,0.0,0.0,0.0,0.0,0.0,0.0,0.0,0.0,1.1538,1.3094,1.2626,1.3524,1.4006,0.0,0.0,0.0,0.0,0.0,0.0,0.0,0.0,0.0,1.8633,1.9245,1.9698,2.0025,2.033,2.0555,2.0623,2.0754,2.0749,2.0625,2.0625,2.0726,2.09,2.09,2.0259,1.9143,1.7887,1.7016,1.6324,0.0,0.0,0.0,0.0,1.3071,1.2828,0.0,0.0,0.0,0.0,0.0,0.0,0.0,0.0,0.0,0.0,0.0,0.0,0.9487,1.042,1.1311,1.2143,1.248,1.2511,1.2163,1.1968,1.1424,1.0455,1.0569,1.08,1.114,1.1693,1.2817,1.4563,1.6098,1.6328,1.5341,1.5496,1.5576,1.5528,1.4849,1.4135,1.3386,1.2781,1.1902,1.0864,0.0,0.0,0.0,0.0,0.0,0.0,0.0,0.0,0.0,0.0,0.0,0.0,0.0,0.0,0.0,0.0,0.0,0.0,0.0,0.0,0.0,0.0,0.0,0.0,0.0,0.0,0.0,0.0,0.0,0.0,0.0,0.0,0.0,0.0,0.0,0.0,0.0,1.2377,1.3871,1.303,1.4233,1.4826,0.0,0.0,0.0,0.0,0.0,0.0,1.8606,1.9295,1.9841,2.0283,2.0534,2.0867,2.1349,2.1322,2.1446,2.177,2.1621,2.1604,2.1696,2.1696,2.1696,2.1696,2.1696,2.1513,2.111,1.9163,1.8191,1.764,1.546,1.4659,1.4719,1.4236,1.4096,1.4026,0.0,0.0,0.0,0.0,0.0,0.0,0.0,0.0,0.0,0.0,0.0,0.8753,1.0438,1.1125,1.2183,1.4008,1.3653,1.3818,1.4913,1.2922,1.1909,1.2348,1.1882,1.1531,1.1296,1.309,1.4438,1.5245,1.6242,1.6267,1.5405,1.5861,1.5825,1.5418,1.5489,1.5479,1.5259,1.378,1.3376,1.3513,1.1465,0.0,0.0,0.0,0.0,0.0,0.0,0.0,0.0,0.0,0.0,0.0,0.0,0.0,0.0,0.0,0.0,0.0,0.0,0.0,0.0,0.0,0.0,0.0,0.0,0.0,0.0,0.0,0.0,0.0,0.0,0.0,0.0,0.0,0.0,0.0,0.0,0.0,0.0,1.2835,1.4686,0.0,0.0,0.0,0.0,1.7434,1.8699,1.9417,1.9339,2.063,2.1302,2.1153,2.1924,2.2171,2.1769,2.2148,2.2101,2.1704,2.1704,2.1668,2.1696,2.1696,2.1696,2.1696,2.1696,2.1678,2.1453,1.8698,1.7542,1.7243,1.455,1.3871,1.4316,1.3486,1.3545,1.4007,0.0,0.0,0.0,0.0,0.0,0.7258,0.7211,0.7574,0.7908,0.8076,0.8927,1.0024,1.1333,1.2171,1.3207,1.4567,1.482,1.4824,1.4699,1.3572,1.3099,1.3456,1.2454,1.2295,1.3148,1.419,1.5004,1.5624,1.5951,1.5931,1.5592,1.5767,1.5786,1.5716,1.5447,1.5592,1.5935,1.4692,1.4059,1.3803,1.2688,1.179,0.0,0.0,0.0,0.0,0.0,0.0,0.0,0.0,0.0,0.0,0.0,0.0,0.0,0.0,0.0,0.0,0.0,0.0,0.0,0.0,0.0,0.0,0.0,0.0,0.0,0.0,0.0,0.0,0.0,0.0,0.0,0.0,0.0,0.0,0.0,0.0,0.0,1.2969,1.4902,0.0,1.4625,1.6357,1.7619,1.772,1.9294,2.0477,2.0995,2.1739,2.2219,2.2409,2.2711,2.2823,2.266,2.2897,2.2874,2.2524,2.2667,2.2658,2.2474,2.2474,2.2474,2.2427,2.1751,2.1415,2.1249,1.8706,1.8064,1.8457,1.6972,1.5824,1.503,1.4669,1.4669,1.4751,0.0,0.0,0.0,0.0,0.7061,0.7075,0.7009,0.753,0.8061,0.8428,0.9643,1.0947,1.2206,1.3238,1.4204,1.5085,1.548,1.5535,1.5133,1.4269,1.3848,1.4023,1.2849,1.2886,1.4399,1.4785,1.522,1.5693,1.5899,1.5869,1.56,1.5823,1.5987,1.6053,1.5788,1.5954,1.6357,1.556,1.5023,1.463,1.3912,1.3253,1.2565,0.0,0.0,0.0,0.0,0.0,0.0,0.0,0.0,0.0,0.0,0.0,0.0,0.0,0.0,0.0,0.0,0.0,0.0,0.0,0.0,0.0,0.0,0.0,0.0,0.0,0.0,0.0,0.0,0.0,0.0,0.0,0.0,0.0,0.0,1.2685,1.3922,1.3576,1.525,1.5995,1.484,1.6937,1.8184,1.7854,1.9876,2.1271,2.1591,2.232,2.2877,2.3207,2.3227,2.3206,2.3172,2.3314,2.3229,2.2953,2.3103,2.3045,2.2904,2.2904,2.2904,2.2857,2.2176,2.1635,2.1196,1.9529,1.8725,1.8495,1.7447,1.6218,1.5057,1.5289,1.5439,1.5547,0.0,0.0,0.0,0.6997,0.6946,0.6883,0.6807,0.7263,0.7998,0.9069,1.016,1.1471,1.3052,1.4237,1.5135,1.5668,1.5718,1.5957,1.6463,1.4984,1.4103,1.4103,1.3161,1.3341,1.4892,1.4926,1.5106,1.5481,1.6084,1.604,1.5433,1.61,1.6413,1.6423,1.6545,1.663,1.662,1.6426,1.6302,1.616,1.5155,1.4857,1.4846,0.0,0.0,0.0,0.0,0.0,0.0,0.0,0.0,0.0,0.0,0.0,0.0,0.0,0.0,0.0,0.0,0.0,0.0,0.0,0.0,0.0,0.0,0.0,0.0,0.0,0.0,0.0,0.0,0.0,0.0,0.0,0.0,0.0,1.1281,1.3127,1.4337,1.4553,1.5723,1.6259,1.566,1.7647,1.8704,1.8004,2.0583,2.1888,2.117,2.2389,2.3217,2.3409,2.3429,2.3366,2.3327,2.3298,2.3214,2.2922,2.294,2.295,2.295,2.295,2.295,2.295,2.2893,2.2259,2.1278,2.0965,1.9439,1.7194,1.574,1.4844,1.4418,1.5131,1.5737,1.6346,0.0,0.0,0.6753,0.6904,0.6916,0.6883,0.6807,0.7579,0.8425,0.9109,1.0814,1.2432,1.3702,1.4833,1.5693,1.6224,1.6274,1.6337,1.6488,1.4984,1.4103,1.4103,1.4935,1.5379,1.5343,1.5342,1.5309,1.5267,1.5543,1.5742,1.5902,1.6255,1.656,1.6831,1.6879,1.7115,1.7527,1.7461,1.7379,1.72,1.6177,1.5592,1.5145,0.0,0.0,0.0,0.0,0.0,0.0,0.0,0.0,0.0,0.0,0.0,0.0,0.0,0.0,0.0,0.0,0.0,0.0,0.0,0.0,0.0,0.0,0.0,0.0,0.0,0.0,0.0,0.0,0.0,0.0,0.0,0.8032,0.9314,1.0751,1.2052,1.3194,1.4114,1.5622,1.6339,1.5783,1.762,1.8902,1.9051,2.0634,2.1794,2.2305,2.3158,2.3617,2.3699,2.3799,2.3836,2.3812,2.3758,2.3726,2.3631,2.3782,2.3822,2.3822,2.3822,2.3822,2.3822,2.2969,2.2011,2.0952,1.9832,1.8258,1.6573,1.653,1.5831,1.4883,1.5133,1.5731,1.6574,0.0,0.6672,0.6642,0.6748,0.6849,0.6874,0.6774,0.7701,0.8658,0.9389,1.1188,1.2918,1.4286,1.4984,1.5567,1.612,1.617,1.607,1.5844,1.4947,1.455,1.4797,1.5659,1.5945,1.5518,1.5664,1.5637,1.5409,1.5586,1.5802,1.6019,1.6444,1.6769,1.7017,1.7213,1.7481,1.7843,1.7976,1.797,1.786,1.7439,1.6837,1.6067,1.4774,1.4031,1.3511,1.2094,1.1298,1.0761,0.9871,0.0,0.0,0.0,0.0,0.0,0.0,0.0,0.0,0.0,0.0,0.0,0.0,0.0,0.0,0.0,0.0,0.0,0.0,0.0,0.0,0.0,0.0,0.0,0.0,0.78,0.8804,1.0076,1.1135,1.2347,1.3805,1.4845,1.5529,1.5784,1.7255,1.8155,1.8141,1.9645,2.0728,2.0974,2.2282,2.3102,2.3178,2.3664,2.4023,2.4098,2.4191,2.4267,2.4267,2.4573,2.4716,2.4707,2.4542,2.4199,2.3669,2.2847,2.1599,2.0107,1.9183,1.7887,1.6463,0.0,0.0,0.0,0.0,1.7132,1.7831,0.0,0.6474,0.6547,0.6564,0.6732,0.6816,0.6664,0.7643,0.8762,0.9742,1.1303,1.2956,1.4632,1.482,1.5071,1.5643,1.5693,1.5512,1.5009,1.5047,1.5298,1.584,1.5727,1.5671,1.5616,1.5908,1.5925,1.5672,1.5951,1.6029,1.5994,1.6673,1.7068,1.7182,1.7595,1.7802,1.7885,1.8195,1.8318,1.8306,1.8622,1.8206,1.7228,1.5812,1.5359,1.5284,1.3962,1.3017,1.2203,1.0907,0.0,0.0,0.0,0.0,0.0,0.0,0.0,0.0,0.0,0.0,0.0,0.0,0.0,0.0,0.0,0.0,0.0,0.0,0.0,0.0,0.0,0.0,0.0,0.0,0.7458,0.7951,0.9301,1.0294,1.1572,1.3553,1.3847,1.439,1.5656,1.6629,1.6925,1.6408,1.829,1.9217,1.8693,2.0685,0.0,0.0,0.0,2.3947,2.4108,2.4638,2.4849,2.4849,2.5207,2.5424,2.5414,2.5005,2.4311,2.3332,2.28,2.1401,1.9435,1.899,1.7937,1.6605,1.611,1.6067,1.6542,1.8059,1.8893,1.9287,0.0,0.6251,0.6171,0.6334,0.6526,0.6569,0.6334,0.7493,0.8705,0.9551,1.0979,1.2506,1.4092,1.4353,1.4754,1.5622,1.5693,1.5663,0.0,0.0,1.6189,1.6185,1.6188,1.6224,1.6365,1.5977,1.5682,1.5449,1.5778,1.6114,1.6457,1.6816,1.7399,1.8123,1.8216,1.8464,1.8849,1.9013,1.8955,1.8796,1.9006,1.8609,1.7774,1.6771,1.5953,1.5214,1.4236,1.355,1.3003,1.2289,1.1425,1.0468,0.9612,0.8565,0.0,0.0,0.0,0.0,0.0,0.0,0.0,0.0,0.0,0.0,0.0,0.0,0.0,0.0,0.0,0.0,0.0,0.0,0.0,0.7213,0.7423,0.7823,0.8663,0.915,1.0491,1.3426,1.4027,1.4613,1.5683,1.5967,1.6497,1.7419,1.8044,1.8755,1.9645,2.0663,2.1228,2.1254,2.2769,2.3609,2.3637,2.4733,2.5262,2.5262,2.5387,0.0,2.5424,2.5341,2.5149,2.4905,2.3556,2.2233,2.0961,1.9442,1.7832,1.6371,1.5997,1.5942,1.6178,1.7545,1.8123,1.834,0.6081,0.6045,0.6072,0.626,0.6465,0.6547,0.6374,0.7407,0.845,0.9157,1.04,1.1727,1.3098,1.3123,1.332,1.3987,1.4281,0.0,0.0,1.5813,1.6031,1.5913,1.6321,1.6412,1.617,1.6049,1.5812,1.541,1.5969,1.6366,1.6618,1.7369,1.7947,1.8424,1.8652,1.8891,1.9108,1.9241,1.928,1.9254,1.9458,1.9196,1.8572,1.7424,1.6568,1.5823,1.4932,1.4175,1.3533,1.2982,1.2108,1.1138,1.0456,0.9384,0.8287,0.0,0.0,0.0,0.0,0.0,0.0,0.0,0.0,0.0,0.0,0.0,0.0,0.0,0.0,0.4522,0.5451,0.0,0.6676,0.7264,0.7514,0.784,0.832,0.8564,0.9571,1.2013,1.256,1.336,1.4914,1.5185,1.5761,1.6933,1.7415,1.7946,1.8539,1.9555,2.0163,2.0333,2.1669,2.2788,2.3566,2.4377,2.5119,2.5718,2.5876,2.5977,2.5977,2.581,2.5066,2.3905,2.2931,2.1549,1.9884,1.8552,1.7603,1.6902,1.6677,1.6783,1.7298,1.8396,1.9067,1.9454,0.5856,0.5911,0.6009,0.6171,0.636,0.6457,0.6354,0.7192,0.8063,0.8753,0.9702,1.079,1.2098,1.1891,1.1883,1.2493,1.3152,0.0,0.0,1.55,1.5761,1.5802,1.6268,1.6304,1.5883,1.6041,1.5933,1.5537,1.6247,1.6698,1.688,1.7914,1.8465,1.8559,1.8932,1.9108,1.9108,1.9241,1.9417,1.9605,1.9835,1.9738,1.9389,1.8059,1.7168,1.6487,1.5655,1.4735,1.3844,1.3484,1.2665,1.1676,1.1085,1.0135,0.914,0.8871,0.8325,0.0,0.0,0.0,0.0,0.0,0.0,0.0,0.0,0.3728,0.395,0.4218,0.4383,0.4922,0.6301,0.6685,0.6932,0.7383,0.7655,0.7873,0.8105,0.8308,0.8874,1.0194,1.0779,1.195,1.3998,1.4533,1.5158,1.6304,1.6898,1.7253,1.7373,1.8366,1.9115,1.9485,2.056,2.1903,2.3378,2.4011,2.4912,2.614,2.6426,2.6591,2.6582,2.6233,2.5083,2.3253,2.2381,2.079,1.8678,1.7882,1.7499,1.745,1.7497,1.7886,1.8527,1.9361,2.0094,2.066,0.0,0.5902,0.583,0.5858,0.5973,0.6,0.5821,0.6599,0.7553,0.8502,0.9,0.9886,1.1517,1.1329,1.1644,1.2989,1.4086,0.0,1.5582,1.5727,1.6132,1.6903,1.5997,1.5786,1.6476,1.5843,1.5655,1.6016,1.6397,1.7011,1.7747,1.8202,1.8631,1.9025,1.9077,1.9108,1.9108,1.9241,1.9417,1.9605,1.9835,1.9944,1.9922,1.892,1.774,1.6517,1.6005,1.4993,1.3937,1.4225,1.3632,1.2634,1.1911,1.1174,1.0332,0.9157,0.8541,0.8109,0.7571,0.6603,0.5574,0.4978,0.4827,0.4849,0.0,0.4682,0.4516,0.4173,0.4732,0.5422,0.5918,0.6557,0.7193,0.7689,0.779,0.7858,0.7997,0.8223,0.8482,0.8627,0.9948,1.1653,1.3734,1.4424,1.5233,1.654,1.7012,1.7434,1.7862,1.803,1.8286,1.8644,2.0,2.1364,2.2606,2.4027,2.5333,2.6518,2.6564,2.6591,2.6591,2.6536,2.6409,2.5991,2.3535,2.1385,1.9585,1.9016,1.8018,1.6949,1.8218,1.8593,1.8527,1.9361,1.9783,1.9939,0.0,0.5865,0.5802,0.5802,0.5909,0.5973,0.5893,0.6403,0.6974,0.7436,0.8293,0.9147,0.9882,1.0205,1.0889,1.2162,1.3283,0.0,1.4348,1.5247,1.5783,1.576,1.5505,1.5615,1.6181,1.5778,1.5664,1.5881,1.6628,1.7183,1.7557,1.8397,1.8911,1.9108,1.9108,1.9108,1.9108,1.9175,1.9274,1.944,1.9638,1.9835,1.9901,1.9028,1.8004,1.6873,1.5896,1.5016,0.0,1.3931,1.3136,1.2224,1.1673,1.0818,0.9818,0.9041,0.8757,0.8519,0.7698,0.6687,0.5767,0.5395,0.5437,0.5434,0.5101,0.5007,0.5007,0.4972,0.536,0.5915,0.6719,0.725,0.7574,0.785,0.7894,0.7917,0.7982,0.8088,0.8187,0.8187,0.8924,1.0092,1.194,1.316,1.4397,1.5733,1.6826,1.7589,1.7969,1.7995,1.8209,1.8731,1.9359,2.0336,2.1752,2.2397,2.3311,2.4501,2.5229,2.5569,2.5569,2.63,2.619,2.545,2.3603,2.1769,2.0077,2.0243,1.9575,1.8598,1.9563,2.002,2.0099,1.9799,1.999,2.0454,0.0,0.5856,0.5802,0.5802,0.5883,0.5945,0.5945,0.6221,0.6522,0.6772,0.7745,0.8573,0.8948,0.9541,1.0357,1.1502,1.245,1.3148,1.3582,1.473,1.5228,1.4862,1.5092,1.5388,1.5741,1.5728,1.5761,1.5919,1.6719,1.7255,1.7539,1.847,1.8984,1.9108,1.9108,1.9108,1.9108,1.9108,1.9208,1.9417,1.9539,1.9661,1.9662,1.8842,1.8,1.7154,1.5894,1.4922,1.4149,1.356,1.276,1.1914,1.1427,1.0643,0.9806,0.9417,0.933,0.909,0.7752,0.6967,0.6411,0.5909,0.5966,0.602,0.5631,0.5602,0.5732,0.5984,0.6121,0.6517,0.7449,0.7685,0.7717,0.7558,0.754,0.754,0.754,0.754,0.769,0.7988,0.8187,0.8775,0.9998,1.1695,1.3227,1.4513,1.6267,1.7347,1.7653,1.8024,1.8468,1.9032,1.9045,1.9704,2.1174,2.1174,2.1794,2.303,2.4214,2.4778,2.4834,2.6081,2.5962,2.4723,2.388,2.2711,2.1458,2.1792,2.1221,2.0113,2.1106,2.1341,2.1113,2.0413,2.0488,2.0925,0.0,0.0,0.5802,0.5802,0.5802,0.5811,0.5811,0.592,0.6278,0.6995,0.7473,0.8181,0.9344,0.9725,1.0357,1.1502,1.2115,1.2926,1.4094,1.4278,1.4553,1.4963,1.4877,1.5001,1.5413,1.5587,1.5939,1.6487,1.6558,1.7124,1.8082,1.8328,1.8673,1.9108,1.9108,1.9108,1.9108,1.9108,1.9274,1.9572,1.9605,1.9533,1.93,1.8392,1.7726,1.7168,1.6145,0.0,1.3372,1.3462,1.2975,1.2167,1.1424,1.1189,1.1081,1.0649,1.0472,0.9907,0.7859,0.7566,0.7606,0.654,0.6388,0.6536,0.6792,0.6866,0.687,0.7007,0.7044,0.7189,0.7543,0.7604,0.7365,0.6597,0.6437,0.6437,0.6437,0.6437,0.6836,0.7889,0.7988,0.8137,0.8432,1.034,1.1948,1.3007,1.5092,1.6478,1.6819,1.8112,1.9038,1.9345,1.9352,1.9982,2.1174,2.1174,2.1794,2.303,2.4214,2.4778,2.4834,2.6081,2.5962,2.4778,2.4778,2.4531,2.4156,2.3902,2.2569,2.0863,2.2615,2.2243,2.0747,2.1182,2.1167,2.0925,0.0,0.0,0.0,0.5811,0.5802,0.5802,0.5802,0.6107,0.6472,0.6841,0.7833,0.0,0.0,0.0,0.0,0.0,1.1861,1.2479,1.2656,1.3696,1.4228,1.4082,1.4343,1.4816,1.5577,1.5538,1.5748,1.6232,1.6585,1.692,1.7246,1.7709,1.803,1.8163,1.8517,1.8717,1.8835,1.8782,1.909,1.9552,1.903,1.8995,1.9175,1.8311,1.7497,1.6683,0.0,0.0,1.3962,1.2966,1.2344,1.1797,1.0846,1.0409,1.0245,1.0114,1.0028,0.9825,0.9091,0.8599,0.8167,0.7617,0.711,0.6827,0.698,0.7024,0.7038,0.7085,0.7095,0.7159,0.7411,0.6963,0.6462,0.6287,0.5733,0.5579,0.6287,0.6387,0.6786,0.7889,0.7988,0.8038,0.8137,0.9722,1.103,1.162,1.4097,1.5855,1.646,1.7773,1.8702,1.9049,1.9301,1.9475,1.9679,1.9866,2.022,2.0615,2.1851,2.3263,2.4834,2.5229,2.5633,2.5962,2.5962,2.5505,2.4659,2.4944,2.3972,2.2344,2.3334,2.3004,2.19,2.2071,2.1775,2.119,0.0,0.0,0.0,0.0,0.0,0.0,0.0,0.0,0.0,0.0,0.0,0.0,0.0,0.0,0.0,0.0,0.0,1.1871,1.2098,1.2945,1.3472,1.3563,1.3723,1.4169,1.4925,1.4932,1.5093,1.5454,1.5877,1.6183,1.6415,1.6977,1.7306,1.7471,1.7947,1.8249,1.8417,1.8375,1.867,1.9105,1.8448,1.8283,1.8416,1.7549,1.6721,0.0,0.0,1.4947,1.4237,1.2763,1.2073,1.1653,1.0763,1.0509,1.0504,1.0367,1.0384,1.0375,1.0064,0.9619,0.9045,0.8392,0.7862,0.7418,0.7163,0.7095,0.7082,0.7031,0.6977,0.7031,0.7187,0.6472,0.5896,0.6101,0.5375,0.5149,0.6224,0.6387,0.6786,0.7889,0.8089,0.8123,0.8123,0.9111,0.986,1.0236,1.2685,1.4519,1.544,1.6939,1.8038,1.87,1.8946,1.8952,1.8706,1.8952,1.9236,1.9693,2.0594,2.1957,2.3704,2.4214,2.4778,2.5348,2.5798,2.5514,2.4842,2.5229,2.4565,2.3384,2.3745,2.3382,2.2656,2.2537,2.2124,2.1584,0.0,0.0,0.0,0.0,0.0,0.0,0.0,0.0,0.0,0.0,0.0,0.0,0.0,0.0,0.0,0.0,0.0,0.0,1.2282,0.0,0.0,1.3314,1.3044,1.3101,1.3576,1.3922,1.4158,1.4345,1.464,1.5108,1.5659,1.6133,1.6529,1.6924,1.7399,1.7677,1.7809,1.7809,1.8014,1.8296,1.779,1.7463,1.7164,1.6171,0.0,0.0,0.0,1.4418,1.421,1.288,1.2144,1.171,1.118,1.1358,1.1744,1.139,1.1464,1.1479,1.079,1.0568,1.0208,0.8913,0.852,0.8204,0.7326,0.7095,0.7045,0.6903,0.679,0.6719,0.6815,0.606,0.5507,0.5828,0.5122,0.4969,0.6153,0.6339,0.6745,0.7899,0.8187,0.8333,0.8333,0.8411,0.8601,0.8867,1.0917,1.2685,1.3957,1.5544,1.7044,1.824,1.8357,1.8421,1.8363,1.8421,1.8984,2.0113,2.0458,2.0923,2.1672,2.3143,2.3536,2.3151,2.427,2.4778,2.4778,2.4778,2.4462,2.3921,2.3921,2.352,2.2974,2.2633,2.2291,2.1995,0.0,0.0,0.0,0.0,0.0,0.0,0.0,0.0,0.0,0.0,0.0,0.0,0.0,0.0,0.0,0.0,0.0,0.0,0.0,0.0,0.0,0.0,0.0,1.2803,1.3576,1.3676,1.4078,1.4821,1.4919,1.5033,1.5173,1.5297,1.5411,1.5535,1.6095,1.6434,1.6581,1.6676,1.7047,1.7505,0.0,1.646,1.6645,0.0,0.0,0.0,0.0,1.469,1.423,1.3149,1.2405,1.1858,1.1308,1.1406,1.1655,1.1196,1.1533,1.2018,1.1879,1.1214,1.0482,1.014,0.8886,0.7629,0.7357,0.7139,0.6896,0.679,0.6552,0.6349,0.6236,0.5079,0.4202,0.4276,0.3228,0.3041,0.496,0.5342,0.6106,0.8004,0.834,0.8428,0.8428,0.8564,0.8699,0.8866,1.0452,1.1697,1.2485,1.48,1.6267,1.6621,1.776,1.8305,1.8083,1.8305,1.8532,1.8874,1.8926,1.9903,2.1616,2.2013,2.2974,2.439,2.4667,2.4778,2.4778,2.4778,2.4462,2.3921,2.3921,2.352,2.3006,2.2911,2.2656,2.2339,0.0,0.0,0.0,0.0,0.0,0.0,0.0,0.0,0.0,0.0,0.0,0.0,0.0,0.0,0.0,0.0,0.0,0.0,0.0,0.0,0.0,0.0,1.1495,1.2006,1.271,1.2917,1.3198,1.352,0.0,0.0,1.3831,1.3993,1.42,1.4407,1.5013,1.5458,1.5786,1.594,0.0,0.0,0.0,0.0,0.0,0.0,0.0,0.0,0.0,0.0,0.0,1.3525,1.2991,1.2389,1.1945,1.1989,1.2174,1.1965,1.2056,1.2246,1.214,1.1681,1.0946,1.0022,0.8922,0.7833,0.7165,0.6898,0.6712,0.6298,0.6081,0.5955,0.5766,0.4463,0.3614,0.4236,0.3143,0.2998,0.5202,0.5669,0.6405,0.8115,0.8455,0.8608,0.8676,0.8818,0.8998,0.9215,0.9927,1.0789,1.1749,1.3833,1.5262,1.5795,1.7232,1.7954,1.7784,1.7954,1.8012,1.8012,1.8129,1.9223,2.106,2.1167,2.2248,2.4008,2.4008,2.4008,2.4008,2.4008,2.3792,2.3528,2.3528,2.3296,2.3014,2.3014,2.2791,2.249,0.0,0.0,0.0,0.0,0.0,0.0,0.0,0.0,0.0,0.0,0.0,0.0,0.0,0.0,0.0,0.0,0.0,0.0,0.0,0.0,0.0,0.0,1.1048,1.1126,1.1581,1.2006,1.2048,1.1685,0.0,0.0,0.0,0.0,0.0,0.0,0.0,0.0,0.0,0.0,0.0,0.0,0.0,0.0,0.0,0.0,0.0,0.0,0.0,0.0,0.0,0.0,1.3688,1.3152,1.2736,1.2799,1.3006,1.303,1.2758,1.2373,1.2214,1.2102,1.1559,0.9598,0.8972,0.8408,0.6905,0.6573,0.6417,0.5732,0.5559,0.5481,0.5365,0.4205,0.3587,0.4688,0.3837,0.3755,0.5884,0.6396,0.6944,0.8193,0.8577,0.8821,0.8954,0.91,0.9303,0.9588,0.9486,0.9938,1.1213,1.2674,1.4083,1.5569,1.6649,1.7303,1.7485,1.7485,1.7485,1.7485,1.7784,1.8719,2.0097,2.0378,2.1231,2.2619,2.2619,2.2732,2.2788,2.2788,2.2901,2.3014,2.3014,2.3014,2.3014,2.3014,2.2823,2.2561,0.0,0.0,0.0,0.0,0.0,0.0,0.0,0.0,0.0,0.0,0.9431,0.988,0.0,0.0,0.0,0.0,0.0,0.0,0.0,0.0,0.0,0.0,1.0731,1.1126,1.1581,1.1674,1.1861,1.2183,0.0,0.0,0.0,0.0,0.0,0.0,0.0,0.0,0.0,0.0,0.0,0.0,0.0,0.0,0.0,0.0,0.0,0.0,0.0,0.0,0.0,0.0,1.4196,1.3791,1.3021,1.3152,1.3514,1.2923,1.2844,1.3065,1.3447,1.3084,1.2262,1.0943,0.9754,0.852,0.714,0.6445,0.604,0.5667,0.5386,0.5133,0.5023,0.4439,0.3928,0.3656,0.3065,0.319,0.4827,0.533,0.6285,0.8233,0.8873,0.9142,0.9169,0.9252,0.9415,0.9595,0.9585,0.9692,1.0073,1.131,1.3126,1.551,1.5811,1.6467,1.7479,1.7485,1.7485,1.7485,1.7543,1.8123,1.9165,1.9165,1.9802,2.0788,2.0788,2.1181,2.1851,2.1851,2.232,2.3014,2.3014,2.3014,2.3014,2.3014,2.2974,2.2919,0.0,0.0,0.0,0.0,0.0,0.0,0.0,0.8004,0.8888,0.9719,1.0442,1.073,1.0354,1.016,1.0019,0.0,0.0,0.0,0.0,0.0,0.0,0.0,0.0,1.1003,1.123,1.1477,1.1591,0.0,0.0,0.0,0.0,0.0,0.0,0.0,0.0,0.0,0.0,0.0,0.0,0.0,0.0,0.0,0.0,0.0,0.0,0.0,0.0,0.0,0.0,0.0,1.4143,1.3972,1.3273,1.3512,1.3857,1.2964,1.3,1.3276,1.3095,1.2888,1.2255,1.0495,0.946,0.846,0.6736,0.6118,0.5739,0.516,0.4948,0.4857,0.4707,0.4342,0.3997,0.3789,0.3412,0.3653,0.5211,0.5699,0.6548,0.8305,0.8934,0.9241,0.932,0.9408,0.9561,0.9707,0.972,0.9747,0.9819,1.1027,1.2586,1.456,1.5273,1.5871,1.6526,1.7185,1.7485,1.7485,1.7485,1.8006,1.8874,1.8874,1.9403,2.027,2.027,2.0551,2.0945,2.0945,2.1181,2.1645,2.2093,2.2256,2.232,2.2837,2.3014,2.3014,0.0,0.0,0.0,0.0,0.0,0.0,0.0,0.8486,0.9347,1.0557,1.1319,1.1547,1.0991,1.0603,1.0379,0.0,0.0,0.0,0.0,0.0,0.0,0.0,0.0,0.0,1.0766,0.0,0.0,0.0,0.0,0.0,0.0,0.0,0.0,0.0,0.0,0.0,0.0,0.0,0.0,0.0,0.0,0.0,0.0,0.0,0.0,0.0,0.0,0.0,0.0,0.0,1.3959,1.3868,1.3404,1.3601,1.3864,1.3027,1.3045,1.3237,1.2763,1.2808,1.2459,1.037,0.9635,0.891,0.6813,0.6232,0.588,0.4934,0.4777,0.4755,0.4584,0.4281,0.4115,0.4231,0.4042,0.4399,0.5808,0.6255,0.696,0.8344,0.8961,0.9306,0.9367,0.9547,0.97,0.9812,0.9822,0.9822,0.9822,1.0725,1.1929,1.3246,1.4262,1.5035,1.5569,1.6585,1.7244,1.7485,1.7485,1.7889,1.859,1.859,1.8991,1.9686,1.9686,1.9809,1.9982,1.9982,2.0097,2.0385,2.106,2.1452,2.168,2.2207,2.2554,2.2724,0.0,0.0,0.0,0.0,0.0,0.0,0.0,0.9069,1.0322,1.1278,1.1315,1.1537,1.2229,1.1708,1.1113,0.0,0.0,0.0,0.0,0.0,0.0,0.0,0.0,0.0,0.0,0.0,0.0,1.1002,0.0,0.0,0.0,0.0,0.0,0.0,0.0,1.1884,0.0,0.0,0.0,0.0,0.0,0.0,0.0,0.0,0.0,0.0,0.0,0.0,0.0,0.0,1.3928,1.3338,1.3174,1.3237,1.3358,1.3129,1.2926,1.2897,1.3562,1.3778,1.3491,1.2183,1.1544,1.0684,0.8553,0.7633,0.693,0.5735,0.5354,0.5127,0.4761,0.4656,0.4587,0.4408,0.4474,0.4864,0.5879,0.6372,0.7107,0.8357,0.9001,0.9364,0.9381,0.9635,0.9805,0.9819,0.9822,0.9822,0.9822,0.9883,1.0547,1.1812,1.1989,1.3186,1.5575,1.5693,1.6349,1.7485,1.7485,1.7537,1.7655,1.7655,1.7661,1.7772,1.7772,1.824,1.9049,1.9049,1.9513,2.0328,2.0385,2.0888,2.1509,2.078,2.1067,2.1737,0.0,0.0,0.0,0.0,0.0,0.0,0.782,0.8876,0.9966,1.0954,1.1509,1.2028,1.2628,1.216,1.1647,1.1219,0.0,0.0,0.0,0.0,0.0,0.0,0.0,0.0,0.0,0.0,0.0,1.0524,1.0681,0.0,0.0,0.0,0.0,0.0,0.0,1.1735,1.1488,0.0,0.0,0.0,0.0,0.0,0.0,0.0,0.0,0.0,0.0,0.0,1.4099,1.3793,1.3506,1.3203,1.2721,1.2534,0.0,1.2352,1.2395,1.2572,1.3055,1.3423,1.3369,1.2147,1.1435,1.0414,0.8144,0.7141,0.6345,0.5188,0.4862,0.4781,0.4597,0.4658,0.4713,0.4797,0.4984,0.5359,0.6207,0.6594,0.7168,0.8103,0.8747,0.9184,0.9364,0.9649,0.9822,0.9822,0.9822,0.9822,0.9822,0.9822,1.0001,1.0543,1.1329,1.223,1.3241,1.4798,1.5871,1.6349,1.7126,1.7485,1.7485,1.7485,1.7485,1.7485,1.7485,1.7713,1.8064,1.8064,1.8298,1.8642,1.9229,1.9679,2.0026,2.0213,2.05,2.0838,0.0,0.0,0.0,0.0,0.0,0.7099,0.7742,0.8746,0.981,1.086,1.1467,1.2103,1.2914,1.2211,1.1682,1.1791,1.1074,0.0,0.0,0.0,0.0,0.0,0.0,0.0,0.0,0.0,1.0248,1.0202,1.0436,1.0866,0.0,0.0,1.153,1.1354,0.0,0.0,0.0,0.0,0.0,0.0,0.0,0.0,0.0,0.0,0.0,0.0,0.0,0.0,0.0,0.0,0.0,1.3039,1.2523,0.0,0.0,0.0,1.1942,1.2231,1.2493,1.2922,1.3002,1.1921,1.1343,1.0431,0.7933,0.7083,0.6415,0.5029,0.4736,0.468,0.4515,0.458,0.4735,0.0,0.5298,0.5723,0.6474,0.6841,0.7288,0.785,0.8413,0.8923,0.9222,0.9598,0.9822,0.9822,0.9822,0.9822,0.9822,0.9822,0.9822,0.9822,1.0668,1.1329,1.1692,1.3545,1.4857,1.5634,1.6526,1.7126,1.7485,1.7485,1.7485,1.7485,1.7485,1.7485,1.7485,1.7485,1.7485,1.7543,1.824,1.8648,1.8933,1.9345,1.9635,1.9866,0.0,0.0,0.0,0.0,0.0,0.0,0.7597,0.8837,1.0133,1.1325,1.1096,1.1494,1.329,1.1774,1.1126,1.2385,1.1219,0.0,0.0,0.0,0.0,0.0,0.0,0.0,0.0,0.0,1.0198,1.0202,1.0987,1.1382,1.1424,1.1807,1.1522,1.0736,0.0,0.0,0.0,0.0,0.0,0.0,0.0,0.0,0.0,0.0,0.0,0.0,0.0,0.0,0.0,0.0,0.0,0.0,0.0,0.0,0.0,0.0,1.1751,1.1876,1.2224,1.2512,1.2491,1.1709,1.1679,1.1175,0.8419,0.8049,0.7713,0.5692,0.5277,0.5117,0.4601,0.4491,0.4638,0.5026,0.5389,0.5847,0.6593,0.7085,0.7478,0.7777,0.8211,0.8608,0.8858,0.9476,0.9822,0.9822,0.9822,0.9822,0.9822,0.9822,0.9822,0.9822,0.9822,1.0425,1.1692,1.1752,1.3066,1.5575,1.5634,1.629,1.7485,1.7485,1.7485,1.7485,1.7485,1.7485,1.7485,1.7485,1.7485,1.7485,1.7485,1.8064,1.8765,1.7889,1.8123,1.8933,0.0,0.0,0.0,0.0,0.0,0.0,0.0,0.8093,0.9048,0.9885,0.9874,1.025,1.1523,1.1117,1.097,1.1573,1.1161,0.0,0.0,0.0,0.0,0.0,0.0,0.0,0.0,0.0,0.97,0.9642,1.0128,1.071,1.1344,1.1458,1.1394,1.1186,1.1352,0.0,0.0,0.0,0.0,0.0,0.0,0.0,0.0,0.0,0.0,0.0,0.0,0.0,0.0,0.0,0.0,0.0,0.0,0.0,0.0,1.1015,1.1085,1.1159,1.077,1.0978,1.1229,1.0781,1.0597,1.0107,0.8517,0.7768,0.7017,0.5584,0.5007,0.4708,0.4543,0.4491,0.4706,0.5338,0.5525,0.0,0.6597,0.6997,0.736,0.7763,0.857,0.9215,0.9513,0.971,0.9822,0.9822,0.9822,0.9822,0.9822,0.9822,0.9822,0.9822,0.9822,1.0001,1.0425,1.1269,1.2109,1.2946,1.4738,1.5811,1.6225,1.712,1.7485,1.7485,1.7485,1.7485,1.7485,1.7485,1.7485,1.7485,1.7485,1.7661,1.7889,1.7596,1.7713,1.7948,0.0,0.0,0.0,0.0,0.0,0.0,0.0,0.7589,0.8448,0.9103,0.9258,0.9673,1.0658,1.0638,1.0668,1.1027,1.0957,0.0,0.0,0.0,0.0,0.0,0.0,0.0,0.0,0.9235,0.9436,0.9398,0.989,1.0415,1.0998,1.0998,1.1023,1.1054,1.105,1.1045,0.0,0.0,0.0,0.0,0.0,0.0,0.0,0.0,0.0,0.0,0.0,0.0,0.0,0.0,0.0,0.0,0.0,0.0,0.0,0.0,1.0329,1.0443,0.9992,1.0137,1.0282,0.9806,0.9714,0.9385,0.801,0.727,0.6548,0.5503,0.4873,0.4491,0.4491,0.4491,0.4682,0.5243,0.543,0.5798,0.6512,0.6871,0.7223,0.7831,0.8676,0.931,0.9547,0.9724,0.9822,0.9822,0.9822,0.9822,0.9822,0.9822,0.9822,0.9822,0.9822,0.9822,0.9822,1.0604,1.1209,1.1692,1.3366,1.4376,1.4917,1.6225,1.6767,1.6826,1.7303,1.7485,0.0,1.7485,1.7485,1.7485,1.7485,1.7485,1.7485,1.7485,1.7485,1.7485,0.0,0.0,0.0,0.0,0.0,0.0,0.0,0.7313,0.8226,0.8826,0.9103,0.955,1.0431,1.0249,1.0233,1.0629,0.0,0.0,0.0,0.0,0.0,0.0,0.0,0.0,0.8414,0.907,0.9398,0.9398,1.0138,1.0496,1.0496,1.0496,1.0496,1.048,1.0376,1.0541,0.0,0.0,0.0,0.0,0.0,0.0,0.0,0.0,0.0,0.0,0.0,0.0,0.0,0.0,0.0,0.0,0.0,0.0,0.0,0.0,0.0,0.0,0.0,0.9756,0.9622,0.8826,0.9037,0.8943,0.7175,0.6702,0.0,0.5534,0.4897,0.4498,0.4518,0.4511,0.4621,0.4942,0.524,0.5716,0.6457,0.681,0.7243,0.7951,0.8555,0.9028,0.9228,0.9571,0.9822,0.9822,0.9822,0.9822,0.9822,0.9822,0.9822,0.9822,0.9822,0.9822,0.9822,0.9822,1.0361,1.1571,1.1631,1.235,1.3605,1.4857,1.551,1.5693,1.6826,1.742,1.7485,1.7485,1.7485,1.7485,1.7485,1.7485,1.7485,1.7485,1.7485,1.7479,0.0,0.0,0.0,0.0,0.0,0.0,0.0,0.0,0.0,0.0,0.8322,0.8619,0.8842,0.9372,0.9665,0.0,0.0,0.0,0.0,0.0,0.0,0.0,0.0,0.0,0.8394,0.907,0.9398,0.9398,1.0138,1.0496,1.0496,1.0496,1.0496,1.0488,1.0459,1.0619,0.0,0.0,0.0,0.0,0.0,0.0,0.0,0.0,0.0,0.0,1.2813,1.2569,0.0,0.0,0.0,0.0,0.0,0.0,0.0,0.0,0.922,0.8851,0.8767,0.0,0.8789,0.824,0.835,0.8425,0.0,0.7086,0.6483,0.6087,0.5199,0.4563,0.4769,0.4714,0.4884,0.5612,0.5925,0.6306,0.6895,0.7546,0.8106,0.8506,0.8981,0.9337,0.949,0.9696,0.9822,0.9822,0.9822,0.9822,0.9822,0.9822,0.9822,0.9822,0.9822,0.9822,0.9822,0.9822,0.994,1.0243,1.1209,1.1872,1.223,1.3545,1.4679,1.5634,1.593,1.6585,1.7485,1.7485,1.7485,1.7485,1.7485,1.7485,1.7485,1.7485,1.7485,1.7455,0.0,0.0,0.0,0.0,0.0,0.0,0.0,0.0,0.0,0.0,0.0,0.8109,0.8066,0.8736,0.0,0.0,0.0,0.0,0.0,0.0,0.0,0.0,0.0,0.8394,0.8394,0.907,0.9398,0.9398,1.0138,1.0496,1.0496,1.0496,1.0496,1.0496,1.0496,1.065,0.0,0.0,0.0,0.0,0.0,0.0,0.0,0.0,0.0,0.0,1.21,1.1849,0.0,1.1341,1.0956,1.0464,0.0,0.0,0.0,0.0,0.8975,0.8666,0.8527,0.8544,0.8506,0.8166,0.8183,0.8193,0.7803,0.7031,0.6285,0.5873,0.5089,0.4563,0.4772,0.4802,0.5023,0.5715,0.601,0.641,0.7143,0.7892,0.8428,0.8587,0.9001,0.931,0.9391,0.9534,0.9649,0.972,0.9724,0.9751,0.9819,0.9822,0.9822,0.9822,0.9822,0.9822,0.9822,0.9822,0.9822,0.9822,1.0486,1.0846,1.0846,1.2169,1.3186,1.3899,1.5095,1.5989,1.6649,1.7244,1.7485,1.7485,1.7485,1.7485,1.7485,1.7485,1.7406,1.7286,0.0,0.0,0.0,0.0,0.0,0.0,0.0,0.0,0.0,0.0,0.0,0.0,0.0,0.0,0.0,0.0,0.0,0.0,0.0,0.0,0.0,0.0,0.0,0.8425,0.8473,0.9094,0.9422,0.9477,1.0217,1.0544,1.0496,1.0552,1.0544,1.0496,1.0496,1.059,0.0,0.0,0.0,0.0,0.0,0.0,0.0,0.0,0.0,0.0,0.0,0.0,0.0,1.0897,1.0373,0.9588,0.9517,0.0,0.0,0.0,0.0,0.0,0.8738,0.8644,0.8516,0.8317,0.8233,0.8061,0.757,0.6744,0.5927,0.546,0.4925,0.4593,0.4789,0.4935,0.5176,0.5647,0.601,0.6515,0.7326,0.8041,0.8482,0.8482,0.8934,0.921,0.921,0.935,0.9435,0.9564,0.9574,0.9629,0.9747,0.9774,0.9788,0.9788,0.9812,0.9822,0.9822,0.9822,0.9822,0.9822,0.9822,0.9822,0.9819,1.0906,1.1511,1.1812,1.4018,1.5213,1.5693,1.6762,1.7303,1.7485,1.7485,1.7485,1.7479,1.7436,1.7286,1.708,0.0,0.0,0.0,0.0,0.0,0.0,0.0,0.0,0.0,0.0,0.0,0.0,0.0,0.0,0.0,0.0,0.0,0.0,0.0,0.0,0.0,0.8955,0.8598,0.8537,0.8818,0.9199,0.9541,0.9819,1.0566,1.0791,1.0504,1.078,1.0783,1.0496,1.0496,1.03,1.0002,0.0,0.0,0.0,0.0,0.0,0.0,0.0,0.0,0.0,0.0,0.0,0.0,0.9659,0.9546,0.951,0.9061,0.0,0.0,0.0,0.0,0.0,0.9249,0.8865,0.833,0.8233,0.7925,0.757,0.7367,0.635,0.5505,0.5692,0.5173,0.4819,0.5355,0.5471,0.5674,0.6282,0.6846,0.7302,0.7689,0.817,0.8482,0.8482,0.8934,0.921,0.921,0.935,0.9391,0.9415,0.9415,0.9425,0.9449,0.9571,0.9642,0.9642,0.9758,0.9822,0.9822,0.9822,0.9822,0.9822,0.9822,0.9822,0.9822,1.0001,1.0664,1.1692,1.2109,1.354,1.5634,1.5811,1.6526,1.7485,1.7485,1.7485,1.7455,1.7237,1.7129,1.7026,0.0,0.0,0.0,0.0,0.0,0.0,0.0,0.0,0.0,0.0,0.0,0.0,0.0,0.0,0.0,0.0,0.0,0.0,0.0,0.0,0.0,0.9098,0.882,0.8738,0.8897,0.9414,0.9859,1.0216,1.0442,1.0524,1.045,1.0162,1.0064,1.0113,0.9888,0.9803,0.9788,0.9803,0.0,0.0,0.0,0.0,0.0,0.0,0.0,0.0,0.0,0.0,0.0,0.0,0.8947,0.8915,0.8673,0.0,0.0,0.0,0.0,0.0,0.9056,0.8846,0.8492,0.8136,0.7768,0.7377,0.6917,0.6275,0.5747,0.5624,0.5318,0.5194,0.5521,0.5789,0.6211,0.689,0.7394,0.775,0.7804,0.8197,0.8482,0.8482,0.8737,0.8947,0.9028,0.91,0.9174,0.9309,0.9316,0.935,0.9374,0.9449,0.9486,0.9486,0.9551,0.9585,0.9585,0.9585,0.9663,0.9822,0.9822,0.9822,0.9822,0.9822,1.0122,1.0728,1.139,1.2286,1.3343,1.4424,1.5322,1.6018,1.6408,1.6764,1.7032,1.6767,1.6664,1.6598,0.0,0.0,0.0,0.0,0.0,0.0,0.0,0.0,0.0,0.0,0.0,0.0,0.0,0.0,0.0,0.0,0.0,0.0,0.0,0.0,0.8766,0.9039,0.8947,0.8945,0.9121,0.9596,1.0048,1.0434,1.0332,1.0294,1.0317,0.9546,0.9361,0.964,0.9335,0.9309,0.951,0.9283,0.9335,0.0,0.0,0.0,0.0,0.0,0.0,0.0,0.0,0.0,0.0,0.0,0.0,0.0,0.0,0.0,0.0,0.8804,0.8804,0.8838,0.8978,0.8835,0.8571,0.8162,0.7689,0.7128,0.661,0.6201,0.5881,0.5672,0.5576,0.561,0.5762,0.6231,0.676,0.7371,0.7801,0.8052,0.7936,0.8245,0.8482,0.8482,0.8618,0.8757,0.8817,0.8861,0.8984,0.9093,0.9103,0.9154,0.9273,0.931,0.9327,0.9327,0.9361,0.9381,0.9381,0.9381,0.9493,0.9717,0.9717,0.9717,0.9717,0.9717,0.9717,0.9777,1.0673,1.1085,1.1363,1.2984,1.3973,1.4536,1.528,1.5918,1.6412,1.6319,1.6254,1.6163,0.0,0.0,0.0,0.0,0.0,0.0,0.0,0.0,0.0,0.0,0.0,0.0,0.0,0.0,0.0,0.0,0.0,0.0,0.0,0.0,0.8482,0.8634,0.8746,0.9127,0.9819,0.9746,0.9884,1.0218,1.04,1.0373,1.0115,0.9491,0.9211,0.9237,0.9211,0.8995,0.8705,0.9054,0.8995,0.8732,0.0,0.0,0.0,0.0,0.0,0.0,0.0,0.0,0.0,0.0,0.0,0.0,0.0,0.0,0.8804,0.8804,0.8804,0.8925,0.9472,0.8947,0.8286,0.8501,0.7598,0.6671,0.6678,0.5914,0.5378,0.6088,0.6081,0.6067,0.6395,0.6934,0.7402,0.7553,0.796,0.8299,0.8289,0.8377,0.8482,0.8482,0.8618,0.8713,0.8726,0.8801,0.8888,0.8898,0.8898,0.8902,0.8915,0.9096,0.9224,0.9224,0.9306,0.9381,0.9381,0.9381,0.9391,0.9412,0.9412,0.9412,0.9412,0.9412,0.9412,0.9412,0.9182,0.9812,1.0956,1.1631,1.2593,1.3791,1.4715,1.5255,1.5545,1.6126,1.6127,1.5916,0.0,0.0,0.0,0.0,0.0,0.0,0.0,0.0,0.0,0.0,0.0,0.0,0.0,0.0,0.0,0.0,0.0,0.0,0.0,0.8054,0.8104,0.8158,0.838,0.8651,0.895,0.9419,0.9809,1.013,0.9952,0.9563,0.8962,0.858,0.8553,0.8811,0.8533,0.8474,0.86,0.8448,0.8474,0.8573,0.8448,0.0,0.0,0.0,0.0,0.0,0.0,0.0,0.0,0.0,0.7666,0.8116,0.8205,0.8485,0.8804,0.8804,0.8804,0.8858,0.9078,0.8594,0.7987,0.7824,0.7054,0.6439,0.6742,0.6433,0.624,0.6712,0.6721,0.6741,0.6993,0.7262,0.7451,0.7692,0.8035,0.8323,0.8323,0.8391,0.8482,0.8482,0.8533,0.8604,0.8703,0.8764,0.8835,0.8875,0.8885,0.8885,0.8885,0.8991,0.9018,0.9018,0.9076,0.9106,0.9106,0.9106,0.9106,0.911,0.9293,0.9381,0.9381,0.9381,0.9381,0.9381,0.9033,0.9087,0.9357,0.9896,1.047,1.1239,1.3362,1.4593,1.5232,1.5821,1.5976,1.5891,0.0,0.0,0.0,0.0,0.0,0.0,0.0,0.0,0.0,0.0,0.0,0.0,0.0,0.0,0.0,0.0,0.0,0.0,0.7289,0.7571,0.7723,0.7714,0.7875,0.8044,0.8156,0.875,0.924,0.9617,0.928,0.883,0.8285,0.8021,0.8082,0.8368,0.8029,0.8082,0.8368,0.8029,0.8082,0.8342,0.8029,0.7942,0.0,0.0,0.0,0.0,0.0,0.0,0.0,0.0,0.7442,0.7816,0.8009,0.8343,0.8691,0.8784,0.8678,0.8522,0.8522,0.8071,0.7535,0.7285,0.68,0.6493,0.7017,0.6878,0.6739,0.7132,0.7214,0.7261,0.7414,0.7444,0.7526,0.777,0.8069,0.8323,0.8323,0.8391,0.8482,0.8482,0.8482,0.8523,0.8628,0.8638,0.8703,0.8855,0.8811,0.8834,0.8881,0.8885,0.8885,0.8885,0.8885,0.8885,0.8885,0.8885,0.8885,0.8885,0.9144,0.9242,0.9242,0.9242,0.9242,0.9242,0.8781,0.8492,0.8308,0.8725,0.9353,1.0226,1.2346,1.3825,1.4821,1.541,1.5731,1.5891,0.0,0.0,0.0,0.0,0.0,0.0,0.0,0.0,0.0,0.0,0.0,0.0,0.0,0.0,0.0,0.0,0.0,0.0,0.641,0.7027,0.7361,0.7298,0.7295,0.7399,0.7577,0.7784,0.8135,0.86,0.8401,0.8291,0.8279,0.8021,0.7901,0.7901,0.7901,0.7901,0.7901,0.7901,0.7901,0.7901,0.7901,0.7792,0.0,0.0,0.0,0.0,0.0,0.0,0.0,0.0,0.7506,0.7591,0.8201,0.8402,0.8462,0.8724,0.8369,0.7919,0.7914,0.7413,0.6933,0.7062,0.69,0.6849,0.7452,0.7031,0.6692,0.7299,0.7422,0.7421,0.7573,0.76,0.7648,0.7787,0.8069,0.832,0.8323,0.8391,0.8479,0.8482,0.8482,0.8482,0.8482,0.8482,0.8547,0.8699,0.871,0.8774,0.8871,0.8878,0.8878,0.8878,0.8878,0.8878,0.8881,0.8881,0.8881,0.8885,0.8885,0.8885,0.8885,0.8885,0.8885,0.8881,0.8269,0.7989,0.8045,0.8374,0.9533,1.1126,1.1769,1.2911,1.4277,1.4821,1.5357,1.5891,0.0,0.0,0.0,0.0,0.0,0.0,0.0,0.0,0.0,0.0,0.0,0.0,0.0,0.0,0.0,0.0,0.0,0.0,0.6343,0.6779,0.6932,0.6678,0.7022,0.716,0.7042,0.7461,0.7925,0.8392,0.8333,0.8195,0.8015,0.7937,0.7901,0.7901,0.7901,0.7901,0.7901,0.7901,0.7901,0.7901,0.7901,0.7853,0.0,0.0,0.0,0.0,0.0,0.0,0.0,0.0,0.0,0.0,0.7936,0.8343,0.8697,0.8784,0.8816,0.8765,0.8573,0.7886,0.7201,0.734,0.6977,0.667,0.701,0.7116,0.7244,0.774,0.7756,0.7695,0.774,0.7746,0.7763,0.7804,0.7977,0.8147,0.8255,0.8357,0.837,0.8469,0.8482,0.8523,0.8632,0.8547,0.8547,0.8699,0.8611,0.857,0.8615,0.8618,0.8618,0.8618,0.8618,0.8669,0.8777,0.8777,0.8832,0.8885,0.8885,0.8885,0.8885,0.8885,0.8771,0.8598,0.8156,0.7881,0.7715,0.7601,0.8263,0.942,1.0621,1.1982,1.3403,1.46,1.5357,1.5891,0.0,0.0,0.0,0.0,0.0,0.0,0.0,0.0,0.0,0.0,0.0,0.0,0.0,0.0,0.0,0.0,0.0,0.0,0.0,0.6502,0.6652,0.6568,0.6878,0.7072,0.7121,0.7515,0.781,0.8027,0.8109,0.8057,0.7901,0.7901,0.7794,0.7601,0.7815,0.7794,0.7601,0.7821,0.7901,0.7901,0.7901,0.7901,0.7859,0.0,0.0,0.0,0.0,0.0,0.0,0.0,0.0,0.0,0.7649,0.0,0.8293,0.8384,0.824,0.806,0.7977,0.7279,0.6631,0.6936,0.6814,0.6688,0.717,0.7417,0.7641,0.7921,0.787,0.7831,0.7889,0.7851,0.7831,0.7892,0.7931,0.8022,0.8167,0.8231,0.8354,0.8387,0.8397,0.8435,0.8526,0.8397,0.8394,0.8604,0.8533,0.8533,0.8659,0.8604,0.8574,0.8574,0.8513,0.8526,0.8618,0.8618,0.8665,0.8757,0.8757,0.8791,0.8797,0.8854,0.8768,0.8484,0.8045,0.7715,0.7438,0.7268,0.7709,0.865,0.9853,1.1214,1.2748,1.4164,1.5035,1.5571,0.0,0.0,0.0,0.0,0.0,0.0,0.0,0.0,0.0,0.0,0.0,0.0,0.0,0.0,0.0,0.0,0.0,0.0,0.0,0.0,0.651,0.6793,0.6854,0.7115,0.7619,0.7778,0.7778,0.7631,0.7808,0.7863,0.7786,0.7809,0.7547,0.7025,0.7521,0.7461,0.7058,0.7601,0.7821,0.7821,0.7821,0.7848,0.7847,0.7338,0.0,0.0,0.0,0.0,0.0,0.0,0.0,0.0,0.7404,0.7504,0.7577,0.7792,0.724,0.6592,0.6773,0.6191,0.5675,0.6259,0.6603,0.6966,0.7672,0.7831,0.7872,0.7961,0.788,0.7875,0.7965,0.7877,0.7879,0.7968,0.7988,0.7988,0.7988,0.816,0.8255,0.832,0.8323,0.8327,0.834,0.815,0.8174,0.8442,0.8448,0.8564,0.8787,0.8723,0.8648,0.8648,0.8516,0.8448,0.8462,0.8462,0.8469,0.8482,0.8482,0.8554,0.8696,0.8849,0.8699,0.8429,0.7826,0.7438,0.721,0.721,0.7654,0.8484,0.9412,1.0672,1.2141,1.3619,1.4546,1.5143,0.0,0.0,0.0,0.0,0.0,0.0,0.0,0.0,0.0,0.0,0.0,0.0,0.0,0.0,0.0,0.0,0.0,0.0,0.0,0.0,0.651,0.6793,0.7206,0.7558,0.7832,0.7713,0.7707,0.7838,0.7871,0.7582,0.6971,0.7185,0.6945,0.6399,0.6507,0.6507,0.6426,0.7025,0.7273,0.7273,0.7273,0.7521,0.7812,0.7081,0.6963,0.0,0.0,0.0,0.0,0.0,0.0,0.0,0.7471,0.7635,0.7868,0.8187,0.793,0.7629,0.7833,0.7169,0.6515,0.6964,0.7253,0.7509,0.785,0.7941,0.7948,0.7982,0.7965,0.7951,0.7985,0.7965,0.7951,0.7985,0.7988,0.7988,0.7988,0.8019,0.8133,0.8255,0.8323,0.8368,0.8425,0.8306,0.8248,0.8364,0.8204,0.8113,0.818,0.815,0.8133,0.8133,0.8103,0.8194,0.8368,0.8368,0.8374,0.8482,0.8482,0.8499,0.8537,0.8689,0.8494,0.81,0.7771,0.7438,0.721,0.721,0.7321,0.7654,0.9192,1.0554,1.1801,1.356,1.4815,1.5731,0.0,0.0,0.0,0.0,0.0,0.0,0.0,0.0,0.0,0.0,0.0,0.0,0.0,0.0,0.0,0.0,0.0,0.0,0.0,0.6395,0.6564,0.6981,0.7382,0.7662,0.7756,0.7438,0.7214,0.713,0.7036,0.696,0.6881,0.6817,0.6471,0.5914,0.6193,0.611,0.58,0.6426,0.6635,0.6575,0.6656,0.6796,0.6938,0.639,0.6387,0.6649,0.6523,0.0,0.0,0.0,0.0,0.0,0.0,0.0,0.7726,0.784,0.7646,0.7402,0.747,0.7135,0.6915,0.7327,0.7517,0.7678,0.7924,0.7988,0.7988,0.7988,0.7988,0.7988,0.7988,0.7988,0.7988,0.7988,0.7988,0.7988,0.7988,0.7988,0.8019,0.815,0.816,0.8187,0.8262,0.8204,0.8191,0.8316,0.8197,0.818,0.8248,0.8187,0.815,0.815,0.8029,0.8029,0.816,0.816,0.8197,0.8272,0.8347,0.8418,0.8486,0.8405,0.8163,0.7801,0.7531,0.7294,0.7128,0.7128,0.7161,0.7321,0.8644,0.9955,1.1315,1.296,1.4379,1.5517,0.0,0.0,0.0,0.0,0.0,0.0,0.0,0.0,0.0,0.0,0.0,0.0,0.0,0.0,0.0,0.0,0.0,0.0,0.0,0.6437,0.6633,0.6996,0.7259,0.7377,0.7296,0.6873,0.6516,0.6251,0.5921,0.6163,0.6874,0.6459,0.5981,0.5468,0.5895,0.5743,0.5155,0.5747,0.5924,0.5829,0.5924,0.597,0.5918,0.5564,0.5695,0.6066,0.5881,0.6214,0.6817,0.7173,0.0,0.0,0.0,0.0,0.7471,0.737,0.7102,0.6829,0.6724,0.673,0.6892,0.7372,0.756,0.7672,0.7891,0.7971,0.7988,0.7988,0.7988,0.7988,0.7988,0.7988,0.7988,0.7988,0.7988,0.7988,0.7988,0.7988,0.7988,0.7988,0.7988,0.7988,0.7988,0.7988,0.8092,0.8221,0.8231,0.8282,0.8397,0.8296,0.8231,0.8231,0.8106,0.7988,0.7988,0.7988,0.7988,0.7992,0.817,0.8292,0.8404,0.8147,0.7863,0.7595,0.7381,0.7177,0.6953,0.6953,0.701,0.7205,0.8106,0.9428,1.0954,1.2349,1.3835,1.525,0.0,0.0,0.0,0.0,0.0,0.0,0.0,0.0,0.0,0.0,0.5365,0.5438,0.5225,0.5408,0.0,0.0,0.0,0.0,0.6371,0.0,0.0,0.6257,0.6514,0.6447,0.6055,0.5757,0.5736,0.6029,0.5249,0.5241,0.5969,0.5785,0.5381,0.4836,0.489,0.4703,0.4379,0.5,0.5178,0.5043,0.5069,0.5388,0.5736,0.4959,0.5264,0.6066,0.5881,0.6347,0.7077,0.7244,0.7534,0.0,0.0,0.0,0.7504,0.7471,0.727,0.6991,0.6695,0.6472,0.6426,0.7,0.74,0.7641,0.7804,0.7894,0.7988,0.7988,0.7988,0.7988,0.7988,0.7988,0.7988,0.7988,0.7988,0.7988,0.7988,0.7988,0.7988,0.7988,0.7988,0.7988,0.7988,0.7988,0.7998,0.8019,0.8019,0.8029,0.8049,0.8029,0.8019,0.8019,0.8002,0.7988,0.7988,0.7988,0.7988,0.7988,0.8012,0.8029,0.8049,0.7999,0.7833,0.7595,0.7542,0.7287,0.6825,0.6825,0.6836,0.6965,0.7926,0.9528,1.1362,1.2401,1.4046,1.5785,0.0,0.0,0.0,0.0,0.0,0.0,0.0,0.0,0.0,0.0,0.0,0.5553,0.5438,0.5395,0.0,0.0,0.0,0.0,0.5599,0.5717,0.0,0.0,0.5831,0.5788,0.5581,0.5204,0.5087,0.5266,0.4544,0.462,0.5399,0.5333,0.5229,0.5095,0.4975,0.4772,0.4484,0.455,0.451,0.4388,0.4388,0.4676,0.5012,0.4349,0.4662,0.5376,0.5082,0.5439,0.6191,0.6862,0.7262,0.754,0.7676,0.0,0.0,0.0,0.7419,0.7267,0.7063,0.678,0.6659,0.7015,0.7196,0.7424,0.774,0.7865,0.7887,0.7971,0.7988,0.7988,0.7988,0.7988,0.7988,0.7988,0.7988,0.7988,0.7988,0.7988,0.7988,0.7988,0.7988,0.7988,0.7988,0.7988,0.7988,0.7988,0.7988,0.7988,0.7988,0.7988,0.7988,0.7988,0.7988,0.7988,0.7988,0.7988,0.8032,0.8167,0.8029,0.8035,0.8167,0.8029,0.7758,0.7367,0.7367,0.7101,0.67,0.67,0.6741,0.6859,0.7437,0.9089,1.1194,1.1819,1.3572,1.5674,0.0,0.0,0.0,0.0,0.0,0.0,0.0,0.0,0.0,0.0,0.0,0.0,0.5705,0.0,0.0,0.0,0.0,0.0,0.4981,0.0,0.0,0.0,0.0,0.5056,0.4947,0.4604,0.4439,0.4463,0.4051,0.427,0.5046,0.5123,0.5291,0.5501,0.5315,0.504,0.4674,0.4385,0.421,0.4134,0.4134,0.4263,0.4464,0.4216,0.4535,0.503,0.4698,0.4998,0.5641,0.6444,0.6877,0.7097,0.7417,0.7518,0.0,0.0,0.0,0.7225,0.7374,0.7077,0.6797,0.7047,0.7099,0.7228,0.7556,0.7729,0.7841,0.7911,0.7965,0.7988,0.7988,0.7988,0.7988,0.7988,0.7988,0.7988,0.7988,0.7988,0.7988,0.7988,0.7988,0.7988,0.7988,0.7988,0.7988,0.7988,0.7988,0.7988,0.7988,0.7988,0.7988,0.7988,0.7988,0.7988,0.7988,0.7988,0.8099,0.8211,0.8096,0.8099,0.8208,0.8092,0.7739,0.7288,0.7238,0.6962,0.6616,0.6586,0.6627,0.6711,0.7055,0.8515,1.0626,1.1203,1.2931,1.5028,0.0,0.0,0.0,0.0,0.0,0.0,0.0,0.0,0.0,0.0,0.0,0.0,0.6003,0.5576,0.5296,0.5343,0.0,0.0,0.0,0.0,0.0,0.0,0.0,0.0,0.3703,0.3681,0.3727,0.3849,0.3941,0.4297,0.4908,0.5252,0.5535,0.5772,0.563,0.524,0.468,0.4549,0.4474,0.4467,0.4467,0.4477,0.4535,0.4908,0.5259,0.5538,0.5406,0.5699,0.6168,0.623,0.6401,0.6619,0.6512,0.6466,0.6468,0.0,0.0,0.0,0.7448,0.6978,0.6387,0.6973,0.7148,0.7192,0.7139,0.7459,0.7814,0.7821,0.7887,0.7988,0.7988,0.7988,0.7988,0.7988,0.7988,0.7988,0.7988,0.7988,0.7988,0.7988,0.7988,0.7988,0.7988,0.7988,0.7988,0.7988,0.7988,0.7988,0.7988,0.7988,0.7988,0.7988,0.7988,0.7988,0.7988,0.7988,0.7992,0.8002,0.7992,0.7992,0.8002,0.7992,0.7842,0.7547,0.7291,0.6962,0.6611,0.6443,0.6398,0.6467,0.6845,0.7962,0.945,1.09,1.2319,1.3731,0.0,0.0,0.0,0.0,0.0,0.0,0.0,0.0,0.0,0.0,0.0,0.0,0.0,0.5045,0.4917,0.5092,0.4687,0.0,0.0,0.0,0.0,0.0,0.0,0.0,0.0,0.3604,0.3672,0.3792,0.3754,0.4094,0.4775,0.488,0.5087,0.5339,0.542,0.5358,0.5119,0.4551,0.4379,0.4491,0.4491,0.4662,0.4897,0.4938,0.5237,0.5563,0.52,0.5132,0.5266,0.5867,0.6043,0.6069,0.6321,0.6393,0.6391,0.6314,0.6783,0.735,0.7423,0.7478,0.74,0.7065,0.7039,0.7079,0.6905,0.7105,0.7407,0.7509,0.7723,0.7892,0.7892,0.7924,0.7988,0.7988,0.7988,0.7988,0.7988,0.7988,0.7988,0.7988,0.7988,0.7988,0.7988,0.7988,0.7988,0.7988,0.7988,0.7988,0.7988,0.7988,0.7988,0.7988,0.7988,0.7988,0.7988,0.7988,0.7988,0.7988,0.7988,0.7988,0.7988,0.7988,0.7892,0.7718,0.7532,0.722,0.6827,0.6624,0.6604,0.6816,0.7118,0.8045,0.9264,0.9975,1.1527,1.3312,0.0,0.0,0.0,0.0,0.0,0.0,0.0,0.0,0.0,0.4859,0.0,0.0,0.0,0.0,0.4503,0.4522,0.4254,0.3928,0.3622,0.0,0.0,0.0,0.0,0.0,0.0,0.3648,0.3696,0.3744,0.3727,0.3982,0.4467,0.4619,0.4823,0.5029,0.5114,0.5252,0.5358,0.4746,0.4629,0.4798,0.4849,0.502,0.5268,0.5457,0.564,0.5783,0.5528,0.5277,0.5157,0.5729,0.581,0.5702,0.5965,0.6125,0.624,0.629,0.6991,0.7734,0.755,0.7786,0.7995,0.7666,0.7475,0.7292,0.7152,0.7195,0.7285,0.7286,0.7492,0.7678,0.7729,0.7862,0.7931,0.7982,0.7988,0.7988,0.7988,0.7988,0.7988,0.7988,0.7988,0.7988,0.7988,0.7988,0.7988,0.7988,0.7988,0.7988,0.7988,0.7988,0.7988,0.7988,0.7988,0.7988,0.7988,0.7988,0.7988,0.7988,0.7988,0.7988,0.7988,0.7988,0.7942,0.7877,0.7685,0.7374,0.6987,0.693,0.6933,0.709,0.7443,0.8042,0.8849,0.9385,1.0811,1.2514,0.0,0.0,0.0,0.0,0.0,0.0,0.0,0.0,0.5106,0.4648,0.0,0.0,0.0,0.0,0.0,0.3658,0.361,0.361,0.361,0.3604,0.0,0.0,0.0,0.0,0.3604,0.374,0.374,0.3604,0.3866,0.3984,0.3998,0.446,0.4748,0.4864,0.4748,0.4958,0.5365,0.5172,0.5203,0.5405,0.5552,0.5589,0.5688,0.6413,0.6515,0.633,0.647,0.6311,0.599,0.5853,0.5723,0.5562,0.5354,0.5565,0.5953,0.6217,0.6877,0.7555,0.0,0.0,0.0,0.877,0.8388,0.7832,0.7936,0.7766,0.749,0.7187,0.7238,0.7446,0.7556,0.7706,0.7855,0.7958,0.7985,0.7988,0.7988,0.7988,0.7988,0.7988,0.7988,0.7988,0.7988,0.7988,0.7988,0.7988,0.7988,0.7988,0.7988,0.7988,0.7988,0.7988,0.7988,0.7988,0.7988,0.7988,0.7988,0.7988,0.7988,0.7988,0.7988,0.7988,0.7988,0.7988,0.7746,0.7371,0.7032,0.7343,0.7346,0.7198,0.7705,0.7904,0.8037,0.9134,1.0248,1.1317,0.0,0.0,0.0,0.0,0.0,0.4848,0.4792,0.4797,0.467,0.0,0.0,0.0,0.4165,0.4027,0.3915,0.3887,0.3795,0.3757,0.3757,0.3658,0.3604,0.3604,0.3604,0.3604,0.3604,0.3641,0.3641,0.3604,0.3682,0.3754,0.386,0.3982,0.4182,0.4409,0.4497,0.4685,0.486,0.4574,0.483,0.5388,0.5287,0.5586,0.6136,0.6344,0.6504,0.6583,0.6624,0.646,0.6235,0.6447,0.6189,0.5685,0.5405,0.5453,0.5701,0.6233,0.6913,0.7603,0.8125,0.0,0.0,0.0,0.0,0.0,0.7577,0.7291,0.711,0.7103,0.7078,0.7099,0.7221,0.7482,0.7706,0.7851,0.7917,0.7988,0.7988,0.7988,0.7988,0.7988,0.7988,0.7988,0.7988,0.7988,0.7988,0.7988,0.7988,0.7988,0.7988,0.7988,0.7988,0.7988,0.7988,0.7988,0.7988,0.7988,0.7988,0.7988,0.7988,0.7988,0.7988,0.7988,0.7988,0.7988,0.7942,0.7716,0.7409,0.7406,0.7553,0.7746,0.79,0.805,0.8211,0.8523,0.9721,1.1219,0.0,0.0,0.0,0.0,0.0,0.4795,0.4657,0.4648,0.4508,0.0,0.0,0.0,0.3911,0.3944,0.3967,0.3994,0.388,0.3792,0.3792,0.3682,0.3604,0.3604,0.3658,0.3692,0.3692,0.3731,0.3731,0.3692,0.3692,0.3703,0.3726,0.3765,0.3887,0.4038,0.4144,0.4304,0.4463,0.4227,0.4557,0.5281,0.5406,0.5769,0.619,0.6444,0.6607,0.6715,0.6841,0.6695,0.6524,0.6882,0.663,0.6148,0.5922,0.5836,0.5946,0.6523,0.7137,0.7759,0.8397,0.8677,0.8811,0.8828,0.0,0.0,0.7881,0.7412,0.7017,0.6807,0.6712,0.6671,0.682,0.716,0.7434,0.7519,0.7712,0.785,0.7971,0.7988,0.7988,0.7988,0.7988,0.7988,0.7988,0.7988,0.7988,0.7988,0.7988,0.7988,0.7988,0.7988,0.7988,0.7988,0.7988,0.7988,0.7988,0.7988,0.7988,0.7988,0.7988,0.7988,0.7988,0.7988,0.7988,0.7988,0.7988,0.7892,0.7749,0.768,0.7798,0.7982,0.8144,0.8238,0.8323,0.8323,0.9268,1.0587,0.0,0.0,0.491,0.5047,0.5059,0.4976,0.4677,0.4627,0.449,0.0,0.4035,0.4055,0.4092,0.4186,0.4196,0.4078,0.3938,0.3836,0.3819,0.3706,0.3617,0.3604,0.374,0.3785,0.3768,0.3934,0.3938,0.3768,0.3785,0.3744,0.3607,0.373,0.3768,0.3768,0.3785,0.3951,0.4164,0.4105,0.4476,0.517,0.5703,0.5979,0.6124,0.6657,0.6841,0.6783,0.7004,0.6927,0.6788,0.7168,0.7092,0.6799,0.6647,0.6485,0.6449,0.6908,0.7367,0.7852,0.8503,0.8737,0.9015,0.9722,0.9475,0.0,0.8521,0.7978,0.7324,0.6643,0.6466,0.6492,0.6638,0.6982,0.7241,0.7316,0.75,0.7725,0.7946,0.7941,0.7948,0.7965,0.7965,0.7971,0.7988,0.7988,0.7988,0.7988,0.7988,0.7988,0.7988,0.7988,0.7988,0.7988,0.7988,0.7988,0.7988,0.7988,0.7988,0.7988,0.7988,0.7988,0.7988,0.7988,0.7988,0.7988,0.7988,0.7988,0.7988,0.7988,0.7975,0.7968,0.8373,0.8404,0.8344,0.8344,0.8899,0.978,0.0,0.4303,0.4073,0.4216,0.4245,0.4207,0.4136,0.414,0.4138,0.4163,0.4304,0.4498,0.4688,0.4548,0.4484,0.4551,0.4287,0.4082,0.3957,0.3832,0.3723,0.3607,0.374,0.3737,0.3648,0.3883,0.389,0.3645,0.3757,0.3744,0.3604,0.3631,0.3645,0.3648,0.3764,0.3894,0.4062,0.4419,0.4853,0.5358,0.5477,0.5925,0.6583,0.6702,0.6875,0.7018,0.7075,0.7058,0.7061,0.7244,0.7412,0.7465,0.6875,0.666,0.6653,0.6737,0.6968,0.726,0.7698,0.844,0.8978,0.8644,0.9567,0.0,0.9001,0.8821,0.8709,0.7995,0.7541,0.7403,0.7789,0.804,0.8288,0.8635,0.8354,0.7989,0.7719,0.7685,0.7729,0.7841,0.7855,0.7902,0.7978,0.7988,0.7988,0.7988,0.7988,0.7988,0.7988,0.7988,0.7988,0.7988,0.7988,0.7988,0.7988,0.7988,0.7988,0.7988,0.7988,0.7988,0.7988,0.7988,0.7988,0.7988,0.7988,0.7988,0.7988,0.7988,0.8079,0.8231,0.8428,0.8465,0.8442,0.8442,0.901,0.9907,0.4183,0.402,0.3955,0.4082,0.4109,0.4132,0.4229,0.4239,0.4324,0.4523,0.4772,0.4945,0.4918,0.4782,0.4691,0.4691,0.4392,0.4164,0.4112,0.3921,0.3761,0.3713,0.3751,0.3792,0.3799,0.387,0.387,0.3799,0.3724,0.3672,0.3604,0.3604,0.3682,0.3799,0.3792,0.3958,0.425,0.4406,0.4728,0.5182,0.5665,0.6213,0.6831,0.698,0.7173,0.737,0.737,0.7364,0.7371,0.7246,0.7431,0.7661,0.7037,0.6969,0.7095,0.703,0.7126,0.7321,0.7685,0.8083,0.8353,0.8385,0.885,0.0,0.0,0.8223,0.8229,0.7944,0.7646,0.7551,0.8088,0.8256,0.843,0.8779,0.8356,0.8097,0.8416,0.7947,0.7628,0.7695,0.7706,0.7736,0.7814,0.7821,0.7848,0.787,0.7877,0.7911,0.7985,0.7988,0.7988,0.7988,0.7988,0.7988,0.7988,0.7988,0.7988,0.7988,0.7988,0.7988,0.7988,0.7988,0.7988,0.7988,0.7988,0.7988,0.7988,0.7988,0.8035,0.817,0.8319,0.833,0.833,0.9098,0.9516,0.9942,0.3909,0.3914,0.4041,0.417,0.4244,0.4301,0.447,0.4491,0.461,0.4884,0.522,0.5368,0.5123,0.5073,0.505,0.4955,0.4594,0.4351,0.4324,0.409,0.3897,0.3836,0.3863,0.391,0.395,0.3914,0.3897,0.391,0.3724,0.3628,0.3604,0.3604,0.3721,0.3947,0.3877,0.4095,0.4484,0.4345,0.4614,0.5164,0.5922,0.6413,0.6714,0.7139,0.7363,0.7482,0.7567,0.7655,0.7713,0.7386,0.7544,0.7749,0.7347,0.7415,0.7616,0.7403,0.7427,0.7611,0.7838,0.7893,0.7936,0.831,0.8256,0.8006,0.0,0.0,0.0,0.7607,0.757,0.773,0.8263,0.8449,0.8579,0.8835,0.8444,0.8376,0.9176,0.8426,0.7775,0.7914,0.7632,0.7538,0.778,0.7595,0.7553,0.7753,0.7689,0.7746,0.7934,0.7944,0.7961,0.7988,0.7988,0.7988,0.7988,0.7988,0.7988,0.7988,0.7988,0.7988,0.7988,0.7988,0.7988,0.7988,0.7988,0.7988,0.7988,0.7988,0.7988,0.8005,0.8211,0.8194,0.8213,0.9377,0.9776,1.0016,0.3886,0.3914,0.4041,0.417,0.4355,0.447,0.4487,0.4491,0.4644,0.5019,0.5372,0.565,0.5841,0.5783,0.5749,0.5831,0.5326,0.4945,0.4823,0.4558,0.4296,0.3981,0.4099,0.4051,0.3822,0.4041,0.3987,0.3651,0.3724,0.3726,0.3604,0.3604,0.3686,0.3822,0.3941,0.4168,0.4498,0.4589,0.5128,0.5875,0.5976,0.6006,0.6006,0.6712,0.6947,0.7014,0.7458,0.7724,0.7866,0.7951,0.8151,0.8282,0.7968,0.8048,0.8131,0.7602,0.7607,0.7745,0.7614,0.8183,0.8632,0.7824,0.8831,0.9562,0.797,0.0,0.8495,0.7741,0.0,0.8562,0.894,0.0,0.0,0.9891,0.9485,0.9172,0.9275,0.8716,0.8478,0.8964,0.7804,0.7369,0.8404,0.7554,0.7177,0.7594,0.7255,0.722,0.7807,0.7838,0.7899,0.7985,0.7988,0.7988,0.7988,0.7988,0.7988,0.7988,0.7988,0.7988,0.7988,0.7988,0.7988,0.7988,0.7988,0.7988,0.7988,0.7988,0.7988,0.8005,0.8211,0.831,0.8299,0.8432,0.9223,1.024,0.3822,0.396,0.4146,0.4184,0.4368,0.4491,0.4491,0.4863,0.5184,0.525,0.5716,0.6064,0.6152,0.5949,0.5898,0.6142,0.5769,0.5423,0.5192,0.4894,0.4633,0.4419,0.4193,0.4112,0.4204,0.405,0.391,0.3836,0.3724,0.3662,0.3604,0.3686,0.3829,0.4041,0.4304,0.4623,0.5013,0.4955,0.5216,0.5657,0.5827,0.5861,0.5911,0.6932,0.7424,0.754,0.7685,0.777,0.7811,0.7577,0.784,0.8166,0.7881,0.8083,0.8365,0.7918,0.7845,0.7845,0.7561,0.7883,0.816,0.7653,0.7994,0.8268,0.7455,0.7834,0.8388,0.8366,0.0,0.0,0.0,0.0,0.0,0.0,0.9438,0.9102,0.968,0.8677,0.8179,0.8932,0.8212,0.7753,0.7949,0.7114,0.6725,0.7177,0.6953,0.7021,0.7529,0.7719,0.7841,0.7906,0.7944,0.7988,0.7988,0.7988,0.7988,0.7988,0.7988,0.7988,0.7988,0.7988,0.7988,0.7988,0.7988,0.7988,0.7988,0.7988,0.7988,0.7995,0.8109,0.8136,0.8197,0.8987,0.9906,1.0943,0.3832,0.4008,0.4133,0.4133,0.4338,0.4505,0.4545,0.5026,0.541,0.5457,0.5951,0.6347,0.647,0.6278,0.6291,0.6641,0.6271,0.5956,0.5777,0.5335,0.5053,0.4942,0.4507,0.4348,0.4549,0.4191,0.3992,0.3994,0.3805,0.37,0.3704,0.3805,0.3971,0.421,0.4602,0.4979,0.5395,0.5372,0.5535,0.581,0.6023,0.6207,0.6441,0.7234,0.7746,0.7975,0.7913,0.7875,0.7818,0.7497,0.777,0.8188,0.7982,0.8291,0.8649,0.8329,0.8272,0.8231,0.7878,0.7951,0.8041,0.7806,0.7647,0.7536,0.7438,0.7985,0.8581,0.8858,0.9568,0.0,0.0,0.0,0.0,0.0,0.0,0.9223,0.9774,0.8755,0.8264,0.9065,0.8743,0.8282,0.7798,0.6897,0.6538,0.7014,0.663,0.6664,0.7275,0.7512,0.7685,0.7807,0.7919,0.7948,0.7988,0.7988,0.7988,0.7988,0.7988,0.7988,0.7988,0.7988,0.7988,0.7988,0.7988,0.7988,0.7988,0.7988,0.7988,0.7988,0.7988,0.8187,0.8542,0.9554,1.049,1.1495,0.3987,0.3994,0.4001,0.4001,0.4267,0.4539,0.466,0.483,0.5094,0.5525,0.6016,0.6467,0.6819,0.6977,0.7176,0.7529,0.7014,0.6668,0.6658,0.5973,0.5566,0.5562,0.5131,0.4826,0.4687,0.4552,0.4331,0.3994,0.3987,0.3981,0.0,0.0,0.4072,0.4214,0.4682,0.5077,0.5423,0.582,0.63,0.6836,0.6846,0.7234,0.7719,0.7472,0.7655,0.7988,0.7985,0.7982,0.8007,0.8146,0.8334,0.8593,0.8648,0.8881,0.9043,0.8848,0.8922,0.8986,0.8673,0.8658,0.8704,0.8518,0.8456,0.8467,0.8456,0.9126,0.9586,0.9028,1.0149,1.1095,1.0514,1.0714,0.0,0.0,0.0,0.0,0.0,0.9189,0.9299,0.9719,0.9397,0.8953,0.8414,0.719,0.6697,0.7422,0.632,0.6071,0.7048,0.7112,0.7314,0.7797,0.7818,0.7889,0.7988,0.7988,0.7988,0.7988,0.7988,0.7988,0.7988,0.7988,0.7988,0.7988,0.7988,0.7988,0.7988,0.7988,0.7988,0.7988,0.7988,0.8627,0.9558,0.9612,1.0464,1.1718,0.3994,0.4075,0.4146,0.4146,0.4331,0.4607,0.4928,0.5277,0.5664,0.6115,0.6481,0.6875,0.7326,0.7326,0.7414,0.7712,0.7468,0.721,0.696,0.6573,0.6278,0.6214,0.5654,0.5338,0.5287,0.4873,0.4542,0.4337,0.4114,0.3994,0.0,0.0,0.0,0.4224,0.4925,0.5376,0.5681,0.6132,0.6498,0.6797,0.6947,0.7382,0.7901,0.7851,0.786,0.7988,0.7988,0.7988,0.8031,0.8033,0.829,0.8583,0.8619,0.8859,0.9084,0.9023,0.9047,0.9072,0.895,0.9043,0.9079,0.8501,0.8284,0.8186,0.8157,0.9013,0.9768,0.9648,1.0868,1.179,1.1184,1.1021,0.0,0.0,0.0,0.0,0.0,0.9044,0.9044,0.9372,0.9207,0.8827,0.8263,0.7222,0.6687,0.695,0.6201,0.6013,0.6664,0.6937,0.7213,0.7512,0.7709,0.7885,0.7988,0.7988,0.7988,0.7988,0.7988,0.7988,0.7988,0.7988,0.7988,0.7988,0.7988,0.7988,0.7988,0.7988,0.7988,0.7988,0.7988,0.8676,0.9608,0.9608,1.077,1.248,0.4189,0.4256,0.4281,0.4204,0.4457,0.4738,0.5049,0.5524,0.6023,0.646,0.6783,0.7112,0.7556,0.7556,0.7628,0.7872,0.7756,0.757,0.7274,0.7024,0.6814,0.6715,0.619,0.5905,0.5905,0.5365,0.4958,0.4701,0.4457,0.4257,0.0,0.0,0.0,0.0,0.5081,0.5559,0.584,0.6451,0.6831,0.7044,0.7297,0.7644,0.7988,0.7988,0.7988,0.7988,0.7988,0.7988,0.7988,0.7988,0.8319,0.8676,0.8676,0.8943,0.9275,0.921,0.9234,0.9259,0.9133,0.9222,0.9292,0.8851,0.8675,0.8587,0.8556,0.9426,1.0143,1.0016,1.1181,1.2106,1.1826,1.153,0.0,0.0,0.0,0.0,0.0,0.8898,0.8878,0.9038,0.902,0.8826,0.832,0.752,0.6957,0.6666,0.6231,0.6082,0.6409,0.677,0.7078,0.7282,0.758,0.7807,0.7907,0.7965,0.7988,0.7988,0.7988,0.7988,0.7988,0.7988,0.7988,0.7988,0.7988,0.7988,0.7988,0.7988,0.7988,0.8038,0.8432,0.9213,1.0145,1.0145,1.156,1.353,0.4532,0.4511,0.4481,0.4287,0.4604,0.4935,0.5106,0.5622,0.6146,0.6464,0.6888,0.7233,0.7587,0.7743,0.7882,0.7978,0.7906,0.7767,0.7631,0.7294,0.7129,0.7129,0.6753,0.6549,0.6535,0.6047,0.5596,0.512,0.4958,0.4758,0.0,0.0,0.0,0.0,0.5115,0.5552,0.5861,0.6701,0.7264,0.7634,0.7874,0.7988,0.7988,0.7988,0.7988,0.7988,0.7988,0.7988,0.7988,0.7988,0.8333,0.8775,0.8775,0.9175,0.9542,0.9421,0.949,0.9555,0.9218,0.9242,0.9432,0.9571,0.959,0.9582,0.9598,1.0309,1.0792,1.0221,1.1169,1.2235,1.2463,1.2183,1.1839,0.0,0.0,0.0,0.0,0.8858,0.8851,0.8851,0.8962,0.8925,0.8641,0.8049,0.741,0.6692,0.633,0.6206,0.6294,0.6522,0.6817,0.7078,0.7434,0.7668,0.7811,0.7914,0.7988,0.7988,0.7988,0.7988,0.7988,0.7988,0.7988,0.7988,0.7988,0.7988,0.7988,0.7988,0.7988,0.8088,0.9167,1.0293,1.1268,1.1317,1.2785,1.4702,0.4668,0.4809,0.4918,0.4881,0.4819,0.4948,0.5538,0.5821,0.6215,0.6846,0.7268,0.7597,0.7843,0.7911,0.7948,0.7985,0.7955,0.7917,0.788,0.7746,0.7638,0.7638,0.7319,0.7037,0.6817,0.6257,0.5806,0.5471,0.4986,0.4707,0.4658,0.0,0.0,0.0,0.0,0.5416,0.5844,0.6525,0.7177,0.7773,0.7914,0.7988,0.7988,0.7988,0.7988,0.7988,0.7988,0.7988,0.7988,0.7988,0.8233,0.8531,0.8726,0.9031,0.9324,0.9522,0.9592,0.9558,0.9518,0.9522,0.9543,0.9454,0.9225,0.911,0.9497,1.0679,1.1613,1.1582,1.2965,1.391,1.2895,1.2657,1.2248,0.0,0.0,0.0,0.0,0.9593,0.9459,0.9459,0.9497,0.9282,0.865,0.7967,0.7398,0.6985,0.6131,0.5745,0.6061,0.6271,0.6563,0.6927,0.7383,0.7668,0.7811,0.7914,0.7988,0.7988,0.7988,0.7988,0.7988,0.7988,0.7988,0.7988,0.7988,0.7988,0.7988,0.7988,0.7988,0.8088,0.9167,1.073,1.2387,1.3221,1.39,1.4461,0.4792,0.5081,0.5372,0.5467,0.5352,0.544,0.5928,0.6186,0.6478,0.7024,0.7461,0.7753,0.7874,0.8116,0.8231,0.8231,0.8231,0.8204,0.8143,0.8058,0.7984,0.7913,0.7689,0.7485,0.7319,0.6748,0.6308,0.5921,0.5345,0.4948,0.4687,0.0,0.0,0.0,0.0,0.5312,0.5766,0.6627,0.7312,0.7824,0.7928,0.7988,0.0,0.7988,0.7988,0.7988,0.7988,0.7988,0.7988,0.7988,0.8187,0.8432,0.8581,0.8882,0.9236,0.9381,0.9529,0.9579,0.9579,0.9579,0.9604,0.9498,0.9324,0.9291,0.9921,1.0701,1.1473,1.205,1.3169,1.3902,1.3338,1.2877,1.2161,1.0822,0.0,0.9927,0.9927,0.9786,0.9633,0.9506,0.9606,0.9424,0.8745,0.816,0.762,0.7141,0.6624,0.6287,0.617,0.6689,0.6904,0.6722,0.7295,0.7638,0.7719,0.7884,0.7988,0.7988,0.7988,0.7988,0.7988,0.7988,0.7988,0.7988,0.7988,0.7988,0.7988,0.7988,0.7988,0.8137,0.9706,1.156,1.3463,1.41,1.4298,1.4358,0.5006,0.5382,0.5779,0.6017,0.6084,0.6234,0.645,0.6637,0.6895,0.7146,0.7621,0.7899,0.7899,0.8248,0.8482,0.8482,0.8482,0.8428,0.8357,0.835,0.8228,0.8025,0.7943,0.7851,0.7811,0.7324,0.6851,0.63,0.5825,0.526,0.0,0.0,0.0,0.0,0.0,0.5315,0.5752,0.6931,0.7533,0.7797,0.7921,0.7988,0.7988,0.7988,0.7988,0.7988,0.7988,0.7988,0.7988,0.7988,0.8137,0.8333,0.8382,0.8733,0.9133,0.9187,0.9381,0.9579,0.9579,0.9579,0.9579,0.9579,0.9579,0.9734,1.0345,1.0678,1.1142,1.2072,1.2818,1.343,1.3796,1.3045,1.1904,1.0514,1.0074,0.9927,0.9997,0.993,0.9746,0.9417,0.9673,0.0,0.8925,0.8487,0.7949,0.7244,0.734,0.7146,0.6486,0.7212,0.7301,0.6538,0.7197,0.7674,0.7785,0.7938,0.8088,0.8187,0.8088,0.7988,0.7988,0.7988,0.7988,0.7988,0.7988,0.7988,0.7988,0.7988,0.8187,0.8627,1.0489,1.249,1.4298,1.4298,1.4346,1.4388,0.5471,0.5928,0.6337,0.6272,0.6624,0.6997,0.7322,0.7302,0.736,0.7655,0.8085,0.8364,0.8364,0.8435,0.8482,0.8482,0.8482,0.8472,0.8445,0.8445,0.8381,0.8238,0.8204,0.8072,0.7818,0.7324,0.6851,0.63,0.5719,0.519,0.0,0.0,0.0,0.0,0.0,0.0,0.6235,0.7067,0.7472,0.7658,0.788,0.7988,0.7988,0.7988,0.7988,0.7988,0.7988,0.7988,0.7988,0.7988,0.8038,0.8088,0.8333,0.8627,0.8928,0.9133,0.9381,0.9579,0.9579,0.9579,0.9579,0.9579,0.9579,0.9612,0.9739,1.1119,1.2411,1.2555,1.4021,1.5114,1.4504,1.3486,1.2382,1.1322,1.1122,1.1209,1.1491,1.1102,1.0655,1.0399,1.0588,1.0341,0.9237,0.8669,0.8195,0.7801,0.7281,0.6906,0.6658,0.6812,0.683,0.6682,0.7149,0.793,0.8897,0.8324,0.8432,0.9312,0.8432,0.7988,0.7988,0.7988,0.7988,0.7988,0.7988,0.7988,0.7988,0.7988,0.9019,1.0685,1.1023,1.249,1.4298,1.4298,1.4442,1.4635,0.6254,0.6512,0.6759,0.6926,0.719,0.7478,0.7784,0.7963,0.8035,0.794,0.8187,0.8374,0.8374,0.8581,0.872,0.872,0.872,0.872,0.872,0.8645,0.857,0.8503,0.8421,0.8275,0.8055,0.7756,0.7241,0.6488,0.5962,0.5399,0.4806,0.0,0.0,0.4634,0.0,0.5789,0.6529,0.7166,0.7502,0.7729,0.7901,0.7988,0.7988,0.7988,0.7988,0.7988,0.7988,0.7988,0.7988,0.7988,0.7988,0.8038,0.8137,0.8482,0.8825,0.8977,0.9278,0.9579,0.9579,0.9579,0.9579,0.9579,0.9579,0.9723,1.0306,1.1175,1.2242,1.3318,1.4334,1.4903,1.4551,1.3681,1.2792,1.2204,1.1857,1.171,1.1886,1.1658,1.1263,1.066,1.0847,1.0534,0.9324,0.9122,0.8874,0.84,0.7934,0.772,0.7782,0.8073,0.8256,0.8243,0.8222,0.8532,0.9258,0.8418,0.8237,0.8775,0.8237,0.7988,0.7988,0.7988,0.7988,0.7988,0.7988,0.7988,0.8038,0.8577,0.9756,1.1268,1.1755,1.2926,1.4298,1.4442,1.4592,1.4706,0.6976,0.7075,0.7227,0.7584,0.7723,0.7865,0.8099,0.8489,0.8621,0.818,0.8316,0.8414,0.8414,0.8726,0.8885,0.8885,0.8885,0.8885,0.8885,0.8825,0.8743,0.8713,0.8594,0.8448,0.8327,0.8119,0.7567,0.6749,0.6329,0.5742,0.5006,0.0,0.0,0.4911,0.5596,0.6217,0.6776,0.7231,0.7573,0.7824,0.7928,0.7988,0.7988,0.7988,0.7988,0.7988,0.7988,0.7988,0.7988,0.7988,0.7988,0.7988,0.7988,0.8382,0.8825,0.8825,0.9175,0.9579,0.9579,0.9579,0.9579,0.9579,0.9579,0.9867,1.0979,1.1365,1.2047,1.3908,1.449,1.4575,1.45,1.4008,1.34,1.2878,1.2449,1.2147,1.202,1.2,1.1692,1.0874,1.0928,1.0581,0.9497,0.9526,0.9399,0.8931,0.8631,0.8579,0.8842,0.9244,0.9512,0.9568,0.9058,0.8996,0.9455,0.8478,0.8137,0.8333,0.8088,0.7988,0.7988,0.7988,0.8137,0.8333,0.8333,0.8482,0.8726,0.9608,1.0538,1.1609,1.2436,1.3463,1.4442,1.4688,1.4831,1.4885,0.7368,0.7546,0.7743,0.7784,0.813,0.8408,0.8435,0.8713,0.8797,0.8672,0.8781,0.8821,0.8821,0.8858,0.8885,0.8885,0.8885,0.8885,0.8885,0.8868,0.8801,0.8716,0.8696,0.8557,0.8327,0.8119,0.7621,0.6866,0.6586,0.6088,0.5351,0.5148,0.5223,0.5525,0.6044,0.6474,0.6896,0.7387,0.7668,0.7824,0.7928,0.7988,0.7988,0.7988,0.7988,0.7988,0.7988,0.7988,0.7988,0.7988,0.7988,0.7988,0.7988,0.8382,0.8825,0.8825,0.9175,0.9579,0.9579,0.9579,0.9579,0.9579,0.9579,0.9867,1.0979,1.1901,1.2877,1.4052,1.5016,1.5418,1.4639,1.4669,1.4392,1.3012,1.2978,1.2893,1.2338,1.2265,1.2031,1.1382,1.1136,1.0742,1.007,0.955,0.9231,0.9178,0.8924,0.8814,0.8966,0.8805,0.8843,0.913,0.8559,0.8789,0.994,0.8651,0.8482,0.946,0.8482,0.7988,0.7988,0.7988,0.8531,0.946,0.946,0.9998,1.0925,1.1023,1.1658,1.2581,1.2926,1.3709,1.4688,1.4981,1.522,1.5484,0.7892,0.7929,0.8031,0.8303,0.8353,0.8445,0.8716,0.8804,0.8861,0.8801,0.8844,0.8885,0.8885,0.8885,0.8885,0.8885,0.8885,0.8885,0.8885,0.8885,0.8854,0.8797,0.8849,0.875,0.854,0.8384,0.7987,0.7333,0.6939,0.6454,0.5931,0.5647,0.5742,0.6177,0.6586,0.699,0.735,0.7614,0.7814,0.7904,0.7965,0.7988,0.7988,0.7988,0.7988,0.7988,0.7988,0.7988,0.7988,0.7988,0.7988,0.7988,0.7988,0.8382,0.8825,0.8825,0.9175,0.9579,0.9579,0.9579,0.9579,0.9579,0.9579,0.9723,1.0158,1.1028,1.2096,1.3125,1.4669,1.5678,1.5325,1.497,1.4563,1.4184,1.3734,1.3287,1.2906,1.2846,1.2559,1.1784,1.143,1.1022,1.0441,0.9846,0.9506,0.9506,0.9072,0.8993,0.9397,0.9655,1.0009,1.0486,0.9918,0.9881,1.0356,0.8965,0.8432,0.8871,0.8283,0.7988,0.8038,0.8676,0.9558,1.0587,1.0734,1.0925,1.1268,1.2047,1.2587,1.3022,1.3956,1.4544,1.4981,1.522,1.5508,1.5787,0.837,0.8313,0.8298,0.8713,0.8604,0.8574,0.8838,0.8885,0.8885,0.8885,0.8885,0.8885,0.8885,0.8885,0.8885,0.8885,0.8885,0.8885,0.8885,0.8885,0.8885,0.8885,0.8885,0.8811,0.8713,0.8604,0.8303,0.7797,0.7387,0.6983,0.662,0.6274,0.6325,0.6688,0.7092,0.7421,0.7675,0.7865,0.8007,0.8109,0.8153,0.817,0.817,0.817,0.817,0.8163,0.8123,0.8106,0.8099,0.8005,0.7988,0.7988,0.7988,0.8382,0.8825,0.8825,0.9175,0.9579,0.9579,0.9579,0.9579,0.9579,0.9579,0.9772,1.0355,1.1082,1.1999,1.3355,1.4765,1.5784,1.5784,1.5184,1.4663,1.4747,1.4182,1.354,1.3019,1.31,1.2879,1.2013,1.153,1.1102,1.064,1.0057,0.9719,0.9806,0.9506,0.9539,1.0077,1.0332,1.0815,1.1657,1.1169,1.0973,1.1042,0.9948,0.9262,0.897,0.8726,0.8577,0.8627,0.9998,1.1023,1.1804,1.2296,1.2344,1.2193,1.3173,1.3559,1.3661,1.4783,1.522,1.5267,1.5499,1.5772,1.6061,0.8676,0.8703,0.8754,0.8854,0.8878,0.8875,0.8885,0.8885,0.8885,0.8885,0.8885,0.8885,0.8885,0.8885,0.8885,0.8885,0.8885,0.8885,0.8885,0.8885,0.8885,0.8885,0.8885,0.8811,0.8713,0.871,0.856,0.8313,0.7953,0.7648,0.7398,0.7054,0.695,0.7102,0.7458,0.7675,0.7828,0.8133,0.8316,0.833,0.8421,0.8476,0.8476,0.8476,0.8476,0.8459,0.8371,0.832,0.8245,0.8092,0.7988,0.7988,0.7988,0.8382,0.8825,0.8825,0.9175,0.9579,0.9579,0.9579,0.9579,0.9579,0.9579,1.0162,1.2198,1.2684,1.3258,1.5343,1.5784,1.5784,1.5784,1.5351,1.4814,1.4195,1.4088,1.3667,1.2478,1.2832,1.2879,1.2013,1.1356,1.0914,1.062,1.0057,0.98,1.0094,1.0405,1.07,1.0962,1.0434,1.0788,1.2245,1.1912,1.183,1.2077,1.1921,1.1361,1.0391,1.0096,0.9998,1.0047,1.2145,1.3071,1.3119,1.4202,1.4496,1.4292,1.4592,1.4688,1.4736,1.5255,1.5493,1.554,1.5737,1.6019,1.6313,0.8835,0.8811,0.8824,0.8875,0.8885,0.8885,0.8885,0.8885,0.8974,0.9072,0.9086,0.9123,0.9228,0.9059,0.8885,0.8885,0.8885,0.8885,0.8885,0.8885,0.8885,0.8885,0.8885,0.8861,0.8811,0.8764,0.8665,0.857,0.8269,0.8024,0.7828,0.7838,0.7868,0.7919,0.8116,0.8225,0.8275,0.8374,0.8414,0.8418,0.8465,0.8482,0.8482,0.8482,0.8482,0.8476,0.8431,0.8414,0.8408,0.8357,0.834,0.834,0.834,0.8552,0.8825,0.9031,0.9327,0.9579,0.9579,0.9579,0.9579,0.9579,1.0158,1.0886,1.1517,1.278,1.419,1.554,1.5784,1.5784,1.5784,1.5351,1.4948,1.476,1.4349,1.3814,1.3033,1.3086,1.2946,1.2245,1.1824,1.1591,1.1497,1.0955,1.0566,1.0459,1.0321,1.0388,1.0713,1.1276,1.173,1.2033,1.2382,1.2614,1.2691,1.2334,1.1994,1.1702,1.073,1.0685,1.1419,1.278,1.3661,1.4196,1.4544,1.464,1.4592,1.4838,1.5077,1.5255,1.5588,1.5683,1.5757,1.6004,1.6319,1.658,0.8865,0.8885,0.8885,0.8885,0.8984,0.9018,0.9018,0.9069,0.9137,0.9282,0.9296,0.9333,0.9371,0.9215,0.9106,0.9106,0.9106,0.9106,0.9106,0.9052,0.9018,0.9018,0.8967,0.8885,0.8885,0.879,0.8798,0.8798,0.8554,0.8357,0.8208,0.8306,0.835,0.8353,0.8442,0.8482,0.8486,0.8543,0.8567,0.8574,0.8628,0.8655,0.8655,0.8655,0.8655,0.8645,0.8587,0.8567,0.856,0.8503,0.8482,0.8535,0.8643,0.8822,0.9004,0.9145,0.9383,0.9579,0.9579,0.9579,0.9579,0.9579,1.04,1.1414,1.2198,1.3655,1.5064,1.5683,1.5784,1.5784,1.5784,1.5351,1.5008,1.5008,1.4469,1.3881,1.3293,1.3213,1.2946,1.2225,1.2078,1.194,1.157,1.151,1.1363,1.1109,1.1196,1.1363,1.1578,1.1824,1.2198,1.2723,1.3284,1.368,1.3886,1.369,1.3409,1.3022,1.2145,1.2047,1.2775,1.38,1.4532,1.5022,1.5022,1.4927,1.4885,1.5124,1.5356,1.554,1.5737,1.5784,1.5818,1.6166,1.6386,1.656,0.8895,0.8898,0.8902,0.8912,0.9079,0.9224,0.9224,0.9347,0.9384,0.9395,0.9398,0.9401,0.9412,0.9412,0.9412,0.9412,0.9395,0.9381,0.9381,0.9306,0.9224,0.9224,0.9039,0.8908,0.8898,0.8898,0.8895,0.8885,0.8798,0.8655,0.8513,0.8513,0.8513,0.8513,0.8513,0.8513,0.8523,0.8665,0.8726,0.8737,0.8824,0.8885,0.8885,0.8885,0.8885,0.8865,0.8777,0.8726,0.8706,0.856,0.8513,0.8569,0.8839,0.9095,0.9313,0.9197,0.9384,0.9644,0.9644,0.9587,0.9579,0.9579,1.0449,1.1853,1.395,1.5112,1.5784,1.5784,1.5784,1.5784,1.5784,1.5351,1.5008,1.5008,1.4469,1.3881,1.3293,1.3227,1.2913,1.2067,1.2184,1.2044,1.1223,1.1891,1.2231,1.196,1.2692,1.318,1.318,1.2128,1.2358,1.4062,1.4422,1.485,1.5424,1.5698,1.5302,1.4298,1.41,1.3992,1.3974,1.5003,1.5493,1.5493,1.5493,1.5356,1.5131,1.5404,1.5493,1.554,1.573,1.5784,1.5818,1.6186,1.6342,1.6319,0.9083,0.9103,0.914,0.9256,0.9306,0.9327,0.9327,0.9357,0.9422,0.954,0.9554,0.9598,0.9703,0.9717,0.9717,0.9717,0.951,0.9381,0.9381,0.9347,0.9327,0.9327,0.9293,0.9222,0.9103,0.9103,0.9049,0.8885,0.8848,0.8811,0.8828,0.8828,0.8828,0.8828,0.8828,0.8828,0.8832,0.8814,0.8828,0.8834,0.8868,0.8885,0.8885,0.8885,0.8885,0.8878,0.8844,0.8828,0.8824,0.8842,0.8828,0.8886,0.9159,0.9345,0.9473,0.9522,0.9709,0.9823,0.9823,0.973,0.9579,0.9579,1.0984,1.2872,1.4962,1.5635,1.5784,1.5784,1.5784,1.5784,1.5784,1.5351,1.5008,1.5008,1.4469,1.3881,1.3293,1.336,1.3293,1.2656,1.2812,1.2913,1.2705,1.2872,1.2772,1.2238,1.2643,1.2898,1.2898,1.3019,1.348,1.4389,1.4917,1.5364,1.5678,1.5792,1.5302,1.4298,1.5016,1.4962,1.4238,1.5105,1.5493,1.5493,1.5267,1.5267,1.5404,1.5493,1.5588,1.573,1.5784,1.5784,1.5892,1.6413,1.6466,1.6319,0.9193,0.9265,0.934,0.9367,0.9439,0.9486,0.9486,0.954,0.9612,0.9696,0.9707,0.9734,0.9812,0.9822,0.9822,0.9822,0.9676,0.9581,0.9581,0.952,0.9486,0.9486,0.9418,0.9344,0.9316,0.9313,0.9184,0.9035,0.9035,0.9001,0.8885,0.8885,0.8885,0.8885,0.8885,0.8885,0.8885,0.8885,0.8885,0.8885,0.8885,0.8885,0.8885,0.8885,0.8885,0.8885,0.8885,0.8885,0.8885,0.8885,0.8885,0.894,0.9268,0.9534,0.966,0.9896,1.0007,1.0061,1.0061,0.988,0.9921,1.0815,1.1858,1.3258,1.5343,1.5784,1.5784,1.5784,1.5784,1.5784,1.5784,1.5351,1.5008,1.5008,1.4469,1.3928,1.3433,1.35,1.3433,1.3013,1.3347,1.3554,1.338,1.3774,1.3761,1.316,1.3394,1.3601,1.3601,1.3995,1.4396,1.471,1.5164,1.5538,1.5778,1.5784,1.554,1.4968,1.554,1.5493,1.5016,1.5445,1.5635,1.5635,1.5499,1.5499,1.5635,1.5635,1.5683,1.5784,1.5784,1.5912,1.6086,1.654,1.652,1.6382,0.9275,0.9327,0.9422,0.9445,0.9554,0.9642,0.9642,0.9744,0.9822,0.9822,0.9822,0.9822,0.9822,0.9822,0.9822,0.9822,0.9822,0.9822,0.9822,0.9707,0.9642,0.9642,0.9517,0.9439,0.9415,0.9395,0.9317,0.9245,0.9245,0.9127,0.8949,0.8981,0.8971,0.8971,0.8892,0.8885,0.8885,0.8885,0.8885,0.8885,0.8885,0.8885,0.8885,0.8885,0.8885,0.8885,0.8885,0.8885,0.8885,0.8885,0.8885,0.894,0.9323,0.9599,0.9871,1.0257,1.0319,1.029,1.0261,1.0046,1.0297,1.2051,1.2608,1.3216,1.5153,1.5689,1.5784,1.5784,1.5784,1.5784,1.5784,1.5351,1.4995,1.4948,1.4442,1.3968,1.3586,1.3613,1.358,1.3373,1.3821,1.4068,1.382,1.4522,1.48,1.4255,1.4449,1.4589,1.4589,1.4863,1.5075,1.5075,1.5311,1.5578,1.5778,1.5784,1.5784,1.5784,1.5784,1.5784,1.5784,1.5784,1.5784,1.5784,1.5784,1.5784,1.5784,1.5784,1.5784,1.5784,1.5784,1.6012,1.6348,1.6553,1.6513,1.6413,0.9513,0.9557,0.9612,0.973,0.9771,0.9788,0.9788,0.9805,0.9822,0.9822,0.9822,0.9822,0.9822,0.9822,0.9822,0.9822,0.9822,0.9822,0.9822,0.9798,0.9788,0.9788,0.9764,0.9696,0.9578,0.9449,0.9367,0.9347,0.9347,0.9334,0.931,0.9181,0.9176,0.9169,0.8991,0.8885,0.8885,0.8885,0.8885,0.8885,0.8885,0.8885,0.8885,0.8885,0.8885,0.8885,0.8885,0.8885,0.8885,0.8885,0.8885,0.8992,0.9541,0.9761,0.9926,1.0472,1.0651,1.0578,1.0432,1.0144,1.018,1.1298,1.2141,1.3022,1.4244,1.5207,1.5784,1.5784,1.5784,1.5784,1.5784,1.5351,1.4928,1.4629,1.4309,1.3895,1.3353,1.3707,1.4001,1.3955,1.4249,1.4536,1.4743,1.4928,1.4975,1.4881,1.4914,1.4941,1.4941,1.517,1.5331,1.5331,1.5611,1.5785,1.5784,1.5784,1.5784,1.5784,1.5784,1.5784,1.5784,1.5784,1.5784,1.5784,1.5784,1.5784,1.5784,1.5784,1.5784,1.5784,1.5784,1.6012,1.6328,1.6375,1.6466,1.6653,0.9595,0.9673,0.9744,0.9812,0.9822,0.9822,0.9822,0.9822,0.9822,0.9822,0.9822,0.9822,0.9822,0.9822,0.9822,0.9822,0.9822,0.9822,0.9822,0.9822,0.9822,0.9822,0.9822,0.9791,0.9724,0.9652,0.9581,0.9503,0.9503,0.9462,0.9381,0.931,0.9333,0.933,0.9205,0.9178,0.9178,0.9178,0.9178,0.9178,0.9178,0.9178,0.9178,0.9178,0.9127,0.9055,0.9055,0.9005,0.8885,0.8885,0.8885,0.8992,0.9596,0.9816,0.9923,1.0527,1.0692,1.0655,1.0427,1.031,1.0391,1.1194,1.2163,1.309,1.4087,1.5064,1.5784,1.5784,1.5784,1.5784,1.5784,1.5484,1.515,1.501,1.4616,1.4229,1.3955,1.4148,1.4322,1.4322,1.4716,1.505,1.5184,1.5337,1.5364,1.5211,1.5197,1.5197,1.5197,1.5324,1.5471,1.5625,1.5758,1.5784,1.5784,1.5784,1.5784,1.5784,1.5784,1.5784,1.5784,1.5784,1.5784,1.5784,1.5784,1.5784,1.5784,1.5784,1.5784,1.5784,1.5784,1.6012,1.6321,1.6321,1.646,1.6727,0.9659,0.9747,0.9822,0.9822,0.9822,0.9822,0.9822,0.9822,0.9822,0.9822,0.9822,0.9822,0.9822,0.9822,0.9822,0.9822,0.9822,0.9822,0.9822,0.9822,0.9822,0.9822,0.9822,0.9822,0.9822,0.9822,0.9768,0.9659,0.9659,0.9598,0.9483,0.9449,0.9435,0.9432,0.9398,0.9381,0.9381,0.9381,0.9381,0.9381,0.9381,0.9381,0.9381,0.9381,0.9306,0.9262,0.9262,0.9137,0.9035,0.9001,0.8988,0.9092,0.9607,0.9816,0.9923,1.0527,1.0692,1.0664,1.053,1.0465,1.0576,1.1415,1.2319,1.3248,1.4188,1.5108,1.5784,1.5784,1.5784,1.5784,1.5784,1.5591,1.5378,1.5304,1.4917,1.4596,1.4529,1.4583,1.4649,1.4716,1.5124,1.5424,1.5491,1.5698,1.5684,1.5518,1.5498,1.5498,1.5498,1.5498,1.5598,1.5771,1.5784,1.5784,1.5784,1.5784,1.5784,1.5784,1.5784,1.5784,1.5784,1.5784,1.5784,1.5784,1.5784,1.5784,1.5784,1.5784,1.5784,1.5791,1.5905,1.6072,1.6321,1.6321,1.65,1.6834,0.9805,0.9815,0.9822,0.9822,0.9822,0.9822,0.9822,0.9822,0.9822,0.9822,0.9822,0.9822,0.9822,0.9822,0.9822,0.9822,0.9822,0.9822,0.9822,0.9822,0.9822,0.9822,0.9822,0.9822,0.9822,0.9822,0.9815,0.9805,0.9805,0.9798,0.9785,0.9652,0.9591,0.9588,0.9445,0.9381,0.9381,0.9381,0.9381,0.9381,0.9381,0.9381,0.9381,0.9381,0.9374,0.9364,0.9364,0.9357,0.9327,0.9241,0.9193,0.9226,0.9643,0.9816,0.9923,1.0527,1.0692,1.0688,1.0676,1.0558,1.0691,1.1875,1.2551,1.3292,1.4414,1.5248,1.5784,1.5784,1.5784,1.5784,1.5784,1.5591,1.5311,1.5082,1.5001,1.4836,1.4556,1.4756,1.5075,1.5297,1.5371,1.5504,1.5772,1.5771,1.5771,1.5751,1.5751,1.5751,1.5751,1.5751,1.5758,1.5784,1.5784,1.5784,1.5784,1.5784,1.5784,1.5784,1.5784,1.5784,1.5784,1.5784,1.5784,1.5784,1.5784,1.5784,1.5784,1.5784,1.5784,1.5804,1.6132,1.6301,1.6321,1.6321,1.6683,1.7132,0.9822,0.9822,0.9822,0.9822,0.9822,0.9822,0.9822,0.9822,0.9822,0.9822,0.9822,0.9822,0.9822,0.9822,0.9822,0.9822,0.9822,0.9822,0.9822,0.9822,0.9822,0.9822,0.9822,0.9822,0.9822,0.9822,0.9822,0.9822,0.9822,0.9822,0.9819,0.9768,0.9741,0.9737,0.968,0.9652,0.9652,0.9652,0.9652,0.9652,0.9652,0.9652,0.9652,0.9652,0.9598,0.9523,0.9523,0.9462,0.9371,0.9313,0.9465,0.9684,1.0023,1.0164,1.0285,1.0618,1.0692,1.0692,1.0692,1.0643,1.0837,1.1945,1.283,1.3653,1.4509,1.5443,1.6052,1.5818,1.5784,1.5784,1.5784,1.5738,1.5625,1.5518,1.5351,1.519,1.5077,1.5164,1.5277,1.5384,1.5558,1.5705,1.5771,1.5784,1.5784,1.5784,1.5784,1.5784,1.5784,1.5784,1.5784,1.5784,1.5784,1.5784,1.5784,1.5784,1.5784,1.5784,1.5784,1.5784,1.5784,1.5784,1.5784,1.5784,1.5784,1.5784,1.5784,1.5784,1.5784,1.5811,1.6159,1.6159,1.6046,1.6406,1.668,1.6881,0.9822,0.9822,0.9822,0.9822,0.9822,0.9822,0.9822,0.9822,0.9822,0.9822,0.9822,0.9822,0.9822,0.9822,0.9822,0.9822,0.9822,0.9822,0.9822,0.9822,0.9822,0.9822,0.9822,0.9822,0.9822,0.9822,0.9822,0.9822,0.9822,0.9822,0.9822,0.9822,0.9822,0.9822,0.9822,0.9822,0.9822,0.9822,0.9822,0.9822,0.9822,0.9822,0.9822,0.9822,0.9761,0.9676,0.9676,0.9608,0.9513,0.9466,0.9686,1.0026,1.0203,1.0478,1.0663,1.0762,1.0737,1.0692,1.0692,1.0692,1.1042,1.2461,1.3266,1.4014,1.5218,1.5972,1.6326,1.6025,1.5972,1.5939,1.5798,1.5784,1.5784,1.5784,1.5665,1.5531,1.5531,1.5531,1.5531,1.5531,1.5705,1.5784,1.5784,1.5784,1.5784,1.5784,1.5784,1.5784,1.5784,1.5784,1.5784,1.5784,1.5784,1.5784,1.5784,1.5784,1.5784,1.5784,1.5784,1.5784,1.5784,1.5784,1.5784,1.5784,1.5784,1.5784,1.5784,1.5784,1.5838,1.5985,1.6192,1.6206,1.6152,1.6553,1.6767,1.6874,0.9822,0.9822,0.9822,0.9822,0.9822,0.9822,0.9822,0.9822,0.9822,0.9822,0.9822,0.9822,0.9822,0.9822,0.9822,0.9822,0.9822,0.9822,0.9822,0.9822,0.9822,0.9822,0.9822,0.9822,0.9822,0.9822,0.9822,0.9822,0.9822,0.9822,0.9822,0.9822,0.9822,0.9822,0.9822,0.9822,0.9822,0.9822,0.9822,0.9822,0.9822,0.9822,0.9822,0.9822,0.9822,0.9822,0.9822,0.9822,0.9798,0.9659,0.9846,1.0114,1.024,1.0654,1.0972,1.1028,1.0838,1.0692,1.0692,1.0692,1.1232,1.3545,1.3906,1.4311,1.6671,1.6921,1.6627,1.6339,1.6279,1.6186,1.5885,1.5784,1.5784,1.5784,1.5784,1.5784,1.5784,1.5784,1.5784,1.5784,1.5784,1.5784,1.5784,1.5784,1.5784,1.5784,1.5784,1.5784,1.5784,1.5784,1.5784,1.5784,1.5784,1.5784,1.5784,1.5784,1.5784,1.5784,1.5784,1.5784,1.5784,1.5784,1.5784,1.5784,1.5784,1.5784,1.5784,1.5784,1.6005,1.6321,1.6321,1.6446,1.67,1.6707,1.6894,1.7199,0.9822,0.9822,0.9822,0.9822,0.9822,0.9822,0.9822,0.9822,0.9822,0.9822,0.9822,0.9822,0.9822,0.9822,0.9822,0.9822,0.9822,0.9822,0.9822,0.9822,0.9822,0.9822,0.9822,0.9822,0.9822,0.9822,0.9822,0.9822,0.9822,0.9822,0.9822,0.9822,0.9822,0.9822,0.9822,0.9822,0.9822,0.9822,0.9822,0.9822,0.9822,0.9822,0.9822,0.9822,0.9822,0.9822,0.9822,0.9822,0.9815,0.9771,1.0119,1.0632,1.1,1.1265,1.1313,1.1183,1.1025,1.0887,1.0887,1.0794,1.1232,1.3545,1.403,1.4571,1.6717,1.7132,1.6985,1.664,1.6573,1.6486,1.6192,1.6139,1.6072,1.5865,1.5784,1.5784,1.5784,1.5784,1.5784,1.5784,1.5784,1.5784,1.5784,1.5784,1.5784,1.5784,1.5784,1.5784,1.5784,1.5784,1.5784,1.5784,1.5784,1.5784,1.5784,1.5784,1.5784,1.5784,1.5784,1.5784,1.5784,1.5784,1.5784,1.5784,1.5784,1.5784,1.5784,1.5784,1.5879,1.5979,1.6192,1.6326,1.6453,1.6867,1.7125,1.7233,0.9883,0.9822,0.9822,0.9822,0.9822,0.9822,0.9822,0.9822,0.9822,0.9822,0.9822,0.9822,0.9822,0.9822,0.9822,0.9822,0.9822,0.9822,0.9822,0.9822,0.9822,0.9822,0.9822,0.9822,0.9822,0.9822,0.9822,0.9822,0.9822,0.9822,0.9822,0.9822,0.9822,0.9822,0.9822,0.9822,0.9822,0.9822,0.9822,0.9822,0.9822,0.9822,0.9822,0.9822,0.9822,0.9822,0.9822,0.9822,0.9822,0.994,1.0425,1.1076,1.1519,1.1557,1.148,1.1366,1.1208,1.1167,1.1539,1.1603,1.2032,1.4272,1.4454,1.4688,1.6879,1.7373,1.7293,1.6941,1.6881,1.6794,1.65,1.6346,1.6213,1.6032,1.5905,1.5784,1.5784,1.5784,1.5784,1.5784,1.5784,1.5784,1.5784,1.5784,1.5784,1.5784,1.5784,1.5784,1.5784,1.5784,1.5784,1.5784,1.5784,1.5784,1.5784,1.5784,1.5784,1.5784,1.5784,1.5784,1.5784,1.5784,1.5784,1.5784,1.5784,1.5784,1.5784,1.5784,1.5899,1.6012,1.6072,1.6313,1.6697,1.6938,1.7172,1.7393,1.0361,1.0061,1.0001,1.0122,1.0061,1.0001,1.0122,1.0122,1.0122,1.0122,1.0061,0.994,0.994,0.9883,0.9822,0.9822,0.9822,0.9822,0.9822,0.9822,0.9822,0.9822,0.9822,0.9822,0.9822,0.9822,0.9822,0.9822,0.9822,0.9822,0.9822,0.9822,0.9822,0.9822,0.9822,0.9822,0.9822,0.9822,0.9822,0.9822,0.9822,0.9822,0.9822,0.9822,0.9822,0.9822,0.9822,0.9822,0.9883,1.0243,1.0789,1.1333,1.1712,1.1663,1.1524,1.1524,1.139,1.1438,1.251,1.2711,1.3241,1.5415,1.5066,1.4835,1.7094,1.7582,1.7508,1.7293,1.7239,1.7146,1.68,1.6533,1.6388,1.6319,1.6059,1.5824,1.5824,1.5798,1.5784,1.5784,1.5784,1.5784,1.5784,1.5784,1.5784,1.5784,1.5784,1.5784,1.5784,1.5784,1.5784,1.5784,1.5784,1.5784,1.5784,1.5784,1.5784,1.5784,1.5784,1.5784,1.5784,1.5784,1.5784,1.5784,1.5784,1.5784,1.5784,1.5784,1.5985,1.6206,1.5939,1.6353,1.7125,1.6807,1.7081,1.7582,1.2886,1.1989,1.1627,1.2646,1.1989,1.1627,1.2706,1.2826,1.2826,1.2826,1.1929,1.1269,1.1269,1.0425,0.9822,0.9822,0.9822,0.9822,0.9822,0.9822,0.9822,0.9822,0.9822,0.9822,0.9822,0.9822,0.9822,0.9822,0.9822,0.9822,0.9822,0.9822,0.9822,0.9822,0.9822,0.9822,0.9822,0.9822,0.9822,0.9822,0.9822,0.9822,0.9822,0.9822,0.9822,0.9822,0.9822,0.9943,1.0304,1.091,1.1152,1.1333,1.1712,1.1748,1.1715,1.1715,1.1585,1.172,1.2896,1.2989,1.3276,1.5637,1.5851,1.5861,1.7259,1.7582,1.7562,1.7554,1.7488,1.7454,1.7159,1.7052,1.6931,1.6647,1.6366,1.6179,1.6179,1.5979,1.5784,1.5784,1.5784,1.5784,1.5784,1.5784,1.5784,1.5784,1.5784,1.5784,1.5784,1.5784,1.5784,1.5784,1.5784,1.5784,1.5784,1.5784,1.5784,1.5784,1.5784,1.5784,1.5784,1.5784,1.5784,1.5784,1.5784,1.5784,1.5784,1.5784,1.5818,1.5919,1.5804,1.6226,1.6794,1.6727,1.7081,1.7582,1.4013,1.3241,1.2891,1.3605,1.3126,1.2886,1.3605,1.3725,1.3725,1.3725,1.3066,1.2651,1.2651,1.2045,1.1683,1.1683,1.1088,1.0728,1.0728,1.0122,0.9822,0.9822,0.9822,0.9822,0.9822,0.9822,0.9822,0.9822,0.9822,0.9822,0.9822,0.9822,0.9822,0.9822,0.9822,0.9822,0.9822,0.9822,0.9822,0.9822,0.9822,0.9822,0.9822,0.9822,0.9822,0.9822,1.0001,1.0365,1.0849,1.1152,1.1398,1.1587,1.1712,1.1776,1.1776,1.1776,1.2179,1.2781,1.3912,1.4458,1.5148,1.6931,1.7137,1.7002,1.7503,1.7582,1.7582,1.7582,1.7582,1.7535,1.7434,1.7293,1.7146,1.6991,1.6673,1.6433,1.6342,1.6139,1.5985,1.5798,1.5784,1.5784,1.5784,1.5784,1.5784,1.5784,1.5784,1.5784,1.5784,1.5784,1.5784,1.5784,1.5784,1.5784,1.5784,1.5784,1.5784,1.5784,1.5784,1.5784,1.5784,1.5784,1.5784,1.5784,1.5784,1.5784,1.5784,1.5784,1.5784,1.5784,1.5784,1.6106,1.6513,1.6653,1.7081,1.7582,1.5015,1.449,1.4262,1.45,1.4257,1.4197,1.4381,1.4381,1.4321,1.4321,1.4143,1.4023,1.4023,1.3844,1.3725,1.3725,1.2706,1.2049,1.2049,1.0846,1.0122,1.0122,0.9943,0.9822,0.9822,0.9822,0.9822,0.9822,0.9822,0.9822,0.9822,0.9822,0.9822,0.9822,0.9822,0.9822,0.9822,0.9822,0.9822,0.9822,0.9822,0.9822,0.9822,0.9822,0.9819,0.9943,1.0183,1.0728,1.1333,1.1398,1.1587,1.1837,1.2074,1.2134,1.2195,1.2371,1.32,1.4222,1.521,1.6224,1.7236,1.8338,1.8343,1.7989,1.7736,1.7622,1.7582,1.7582,1.7582,1.7582,1.7582,1.7434,1.728,1.728,1.6974,1.67,1.6502,1.638,1.6259,1.6005,1.5884,1.5838,1.5832,1.5784,1.5784,1.5784,1.5784,1.5784,1.5784,1.5784,1.5784,1.5784,1.5784,1.5784,1.5784,1.5784,1.5784,1.5784,1.5879,1.5879,1.5784,1.5879,1.5831,1.5784,1.5838,1.5831,1.5784,1.5784,1.5784,1.5784,1.5784,1.6039,1.6386,1.6727,1.7161,1.7582,1.7818,1.6926,1.6455,1.7584,1.6626,1.6096,1.7244,1.7185,1.7003,1.7003,1.6048,1.5332,1.5332,1.4381,1.3725,1.3725,1.3545,1.3426,1.3426,1.2169,1.145,1.145,1.0365,0.9822,0.9822,0.9822,0.9822,0.9822,0.9822,0.9822,0.9822,0.9822,0.9822,0.9822,0.9822,0.9822,0.9822,0.9822,0.9822,0.9822,0.9822,0.9822,0.9822,0.9822,1.0001,1.0243,1.0304,1.0728,1.1333,1.1647,1.1776,1.2014,1.3075,1.343,1.367,1.4738,1.5219,1.5623,1.6821,1.7116,1.7279,1.8525,1.8644,1.835,1.7995,1.7776,1.7582,1.7582,1.7582,1.7582,1.7582,1.7549,1.7522,1.7522,1.7333,1.7125,1.7085,1.6814,1.6633,1.6593,1.6366,1.6112,1.5804,1.5784,1.5784,1.5784,1.5784,1.5784,1.5784,1.5784,1.5784,1.5784,1.5784,1.5784,1.5784,1.5784,1.5784,1.5784,1.6092,1.6079,1.5791,1.6092,1.6072,1.5798,1.6106,1.6066,1.5784,1.5784,1.5784,1.5784,1.5784,1.6166,1.6714,1.7261,1.7515,1.7582,1.8706,1.8058,1.776,1.8298,1.7818,1.7467,1.7908,1.7849,1.7726,1.7543,1.7003,1.6644,1.6644,1.6166,1.5811,1.5811,1.5154,1.4738,1.4738,1.3545,1.2826,1.2826,1.1567,1.0846,1.0846,1.0183,0.9822,0.9822,0.9822,0.9822,0.9822,0.9822,0.9822,0.9822,0.9822,0.9822,0.9822,0.9822,0.9822,0.9822,1.0001,1.0061,1.0122,1.0304,1.0425,1.0607,1.0789,1.1156,1.1587,1.1776,1.2251,1.296,1.355,1.4202,1.4857,1.5451,1.6101,1.6809,1.7337,1.79,1.8461,1.905,1.8951,1.8698,1.8564,1.8176,1.7796,1.7615,1.7582,1.7582,1.7582,1.7582,1.7582,1.7582,1.7475,1.7387,1.7226,1.7085,1.6894,1.6727,1.6593,1.64,1.6106,1.6226,1.6253,1.6086,1.6226,1.6319,1.6319,1.6319,1.6319,1.6319,1.6319,1.6319,1.6319,1.6319,1.6239,1.6079,1.6213,1.6206,1.6079,1.6213,1.6206,1.6079,1.6039,1.5952,1.5784,1.5784,1.5784,1.5784,1.5784,1.6186,1.674,1.7001,1.7301,1.7582]}]]